[[{"header":{"parameterUnit":"m.s-1","parameterCategory":1,"la1":30.6,"la2":29.2853,"lo1":-89.7004,"lo2":-87.6739,"dx":0.0162,"dy":0.0183,"nx":112,"ny":82,"refTime":"2022-11-24T18:00:00:Z","depth":0,"parameterNumber":2,"parameterNumberName":"U-component_of_WINDS"},"data":[0.0,0.0,0.0,0.0,0.0,0.0,0.0,0.0,0.0,0.0,0.0,0.0,0.0,0.0,0.0,0.0,0.0,0.0,0.0,0.0,0.0,0.0,0.0,0.0,0.0,0.0,0.0,0.0,0.0,0.0,0.0,0.0,0.0,0.0,0.0,0.0,0.0,0.0,0.0,0.0,0.0,0.0,0.0,0.0,0.0,0.0,0.0,0.0,0.0,0.0,0.0,0.0,0.0,0.0,0.0,0.0,0.0,0.0,0.0,0.0,0.0,0.0,0.0,0.0,0.0,0.0,0.0,0.0,0.0,0.0,0.0,0.0,0.0,0.0,0.0,0.0,0.0,0.0,0.0,0.0,0.0,0.0,0.0,0.0,0.0,0.0,0.0,0.0,0.0,0.0,-1.0117,-1.0975,-1.2141,-1.2757,-1.2465,-1.2757,-1.1899,-0.9431,0.0,0.0,0.0,0.0,0.0,0.0,0.0,0.0,0.0,0.0,0.0,0.0,0.0,0.0,0.0,0.0,0.0,0.0,0.0,0.0,0.0,0.0,0.0,0.0,0.0,0.0,0.0,0.0,0.0,0.0,0.0,0.0,0.0,0.0,0.0,0.0,0.0,0.0,0.0,0.0,0.0,0.0,0.0,0.0,0.0,0.0,0.0,0.0,0.0,0.0,0.0,0.0,0.0,0.0,0.0,0.0,0.0,0.0,0.0,0.0,0.0,0.0,0.0,0.0,0.0,0.0,0.0,0.0,0.0,0.0,0.0,0.0,0.0,0.0,0.0,0.0,0.0,0.0,0.0,0.0,0.0,0.0,0.0,0.0,0.0,0.0,0.0,0.0,0.0,0.0,0.0,0.0,0.0,0.0,0.0,0.0,0.0,0.0,0.0,0.0,0.0,0.0,0.0,0.0,-1.0848,-1.2907,-1.316,-1.312,-1.308,-1.3307,-1.2398,-0.978,0.0,0.0,0.0,0.0,0.0,0.0,0.0,0.0,0.0,0.0,0.0,0.0,0.0,0.0,0.0,0.0,0.0,0.0,0.0,0.0,0.0,0.0,0.0,0.0,0.0,0.0,0.0,0.0,0.0,0.0,0.0,0.0,0.0,0.0,0.0,0.0,0.0,0.0,0.0,0.0,0.0,0.0,0.0,0.0,0.0,0.0,0.0,0.0,0.0,0.0,0.0,0.0,0.0,0.0,0.0,0.0,0.0,0.0,0.0,0.0,0.0,0.0,0.0,0.0,0.0,0.0,0.0,0.0,0.0,0.0,0.0,0.0,0.0,0.0,0.0,0.0,0.0,0.0,0.0,0.0,0.0,0.0,0.0,0.0,0.0,0.0,0.0,0.0,0.0,0.0,0.0,0.0,0.0,0.0,0.0,0.0,0.0,0.0,0.0,0.0,0.0,0.0,0.0,-0.999,-1.1423,-1.2986,-1.3333,-1.3307,-1.3025,-1.3347,-1.2468,-0.9846,-0.9432,0.0,0.0,0.0,0.0,0.0,0.0,0.0,0.0,0.0,0.0,0.0,0.0,0.0,0.0,0.0,0.0,0.0,0.0,0.0,0.0,0.0,0.0,0.0,0.0,0.0,0.0,0.0,0.0,0.0,0.0,0.0,0.0,0.0,0.0,0.0,0.0,0.0,0.0,0.0,0.0,0.0,0.0,0.0,0.0,0.0,0.0,0.0,0.0,0.0,0.0,0.0,0.0,0.0,0.0,0.0,0.0,0.0,0.0,0.0,0.0,0.0,0.0,0.0,0.0,0.0,0.0,0.0,0.0,0.0,0.0,0.0,0.0,0.0,0.0,0.0,0.0,0.0,0.0,0.0,0.0,0.0,0.0,0.0,0.0,0.0,0.0,0.0,0.0,0.0,0.0,0.0,0.0,0.0,0.0,0.0,0.0,0.0,0.0,0.0,0.0,0.0,0.0,-1.1169,-1.2358,-1.2945,-1.3494,-1.3547,-1.2945,-1.34,-1.2585,-0.9889,-0.9715,0.0,0.0,0.0,0.0,0.0,0.0,0.0,0.0,0.0,0.0,0.0,0.0,0.0,0.0,0.0,0.0,0.0,0.0,0.0,0.0,0.0,0.0,0.0,0.0,0.0,0.0,0.0,0.0,0.0,0.0,0.0,0.0,0.0,0.0,0.0,0.0,0.0,0.0,0.0,0.0,0.0,0.0,0.0,0.0,0.0,0.0,0.0,0.0,0.0,0.0,0.0,0.0,0.0,0.0,0.0,0.0,0.0,0.0,0.0,0.0,0.0,0.0,0.0,0.0,0.0,0.0,0.0,0.0,0.0,0.0,0.0,0.0,0.0,0.0,0.0,0.0,0.0,0.0,0.0,0.0,0.0,0.0,0.0,0.0,0.0,0.0,0.0,0.0,0.0,0.0,0.0,0.0,0.0,0.0,0.0,0.0,0.0,0.0,0.0,0.0,0.0,0.0,-1.2559,-1.4079,-1.3586,-1.4066,-1.4066,-1.3253,-1.3721,-1.2812,-0.9903,-0.9715,0.0,0.0,0.0,0.0,0.0,0.0,0.0,0.0,0.0,0.0,0.0,0.0,0.0,0.0,0.0,0.0,0.0,0.0,0.0,0.0,0.0,0.0,0.0,0.0,0.0,0.0,0.0,0.0,0.0,0.0,0.0,0.0,0.0,0.0,0.0,0.0,0.0,0.0,0.0,0.0,0.0,0.0,0.0,0.0,0.0,0.0,0.0,0.0,0.0,0.0,0.0,0.0,0.0,0.0,0.0,0.0,0.0,0.0,0.0,0.0,0.0,0.0,0.0,0.0,0.0,0.0,0.0,0.0,0.0,0.0,0.0,0.0,0.0,0.0,0.0,0.0,0.0,0.0,0.0,0.0,0.0,0.0,0.0,0.0,0.0,0.0,0.0,0.0,0.0,0.0,0.0,0.0,0.0,0.0,0.0,0.0,0.0,0.0,0.0,0.0,0.0,0.0,-1.2331,-1.3828,-1.4119,-1.4549,-1.4509,-1.3814,-1.4122,-1.3093,-1.014,0.0,0.0,0.0,0.0,0.0,0.0,0.0,0.0,0.0,0.0,0.0,0.0,0.0,0.0,0.0,0.0,0.0,0.0,0.0,0.0,0.0,0.0,0.0,0.0,0.0,0.0,0.0,0.0,0.0,0.0,0.0,0.0,0.0,0.0,0.0,0.0,0.0,0.0,0.0,0.0,0.0,0.0,0.0,0.0,0.0,0.0,0.0,0.0,0.0,0.0,0.0,0.0,0.0,0.0,0.0,0.0,0.0,0.0,0.0,0.0,0.0,0.0,0.0,0.0,0.0,0.0,0.0,0.0,0.0,0.0,0.0,0.0,0.0,0.0,0.0,0.0,0.0,0.0,0.0,0.0,0.0,0.0,0.0,0.0,0.0,0.0,0.0,0.0,0.0,0.0,0.0,0.0,0.0,0.0,0.0,0.0,0.0,0.0,0.0,0.0,0.0,0.0,-1.1631,-1.3702,-1.516,-1.5325,-1.5673,-1.5397,-1.4325,-1.4496,-1.34,-1.0448,0.0,0.0,0.0,0.0,0.0,0.0,0.0,0.0,0.0,0.0,0.0,0.0,0.0,0.0,0.0,0.0,0.0,0.0,0.0,0.0,0.0,0.0,0.0,0.0,0.0,0.0,0.0,0.0,0.0,0.0,0.0,0.0,0.0,0.0,0.0,0.0,0.0,0.0,0.0,0.0,0.0,0.0,0.0,0.0,0.0,0.0,0.0,0.0,0.0,0.0,0.0,0.0,0.0,0.0,0.0,0.0,0.0,0.0,0.0,0.0,0.0,0.0,0.0,0.0,0.0,0.0,0.0,0.0,0.0,0.0,0.0,0.0,0.0,0.0,0.0,0.0,0.0,0.0,0.0,0.0,0.0,0.0,0.0,0.0,0.0,0.0,0.0,0.0,0.0,0.0,0.0,0.0,0.0,0.0,0.0,0.0,0.0,0.0,0.0,0.0,0.0,0.0,-1.4145,-1.7096,-1.8596,-1.7342,-1.7536,-1.6839,-1.4734,-1.4847,-1.3762,0.0,0.0,0.0,0.0,0.0,0.0,0.0,0.0,0.0,0.0,0.0,0.0,0.0,0.0,0.0,0.0,0.0,0.0,0.0,0.0,0.0,0.0,0.0,0.0,0.0,0.0,0.0,0.0,0.0,0.0,0.0,0.0,0.0,0.0,0.0,0.0,0.0,0.0,0.0,0.0,0.0,0.0,0.0,0.0,0.0,0.0,0.0,0.0,0.0,0.0,0.0,0.0,0.0,0.0,0.0,0.0,0.0,0.0,0.0,0.0,0.0,0.0,0.0,0.0,0.0,0.0,0.0,0.0,0.0,0.0,0.0,0.0,0.0,0.0,0.0,0.0,0.0,0.0,0.0,0.0,0.0,0.0,0.0,0.0,0.0,0.0,0.0,0.0,0.0,0.0,0.0,0.0,0.0,0.0,0.0,0.0,0.0,0.0,0.0,0.0,0.0,0.0,0.0,-1.4447,-1.6951,-1.8781,-1.9214,-1.9346,-1.8721,-1.7022,-1.6974,-1.5361,-1.1424,0.0,0.0,0.0,0.0,0.0,0.0,0.0,0.0,0.0,0.0,0.0,0.0,0.0,0.0,0.0,0.0,0.0,0.0,0.0,0.0,0.0,0.0,0.0,0.0,0.0,0.0,0.0,0.0,0.0,0.0,0.0,0.0,0.0,0.0,0.0,0.0,0.0,0.0,0.0,0.0,0.0,0.0,0.0,0.0,0.0,0.0,0.0,0.0,0.0,0.0,0.0,0.0,0.0,0.0,0.0,0.0,0.0,0.0,0.0,0.0,0.0,0.0,0.0,0.0,0.0,0.0,0.0,0.0,0.0,0.0,0.0,0.0,0.0,0.0,0.0,0.0,0.0,0.0,0.0,0.0,0.0,0.0,0.0,0.0,0.0,0.0,0.0,0.0,0.0,0.0,0.0,0.0,0.0,0.0,0.0,0.0,0.0,0.0,0.0,0.0,0.0,0.0,-1.6063,-1.8607,-2.0518,-2.1191,-2.0654,-1.9919,-1.8862,-1.7639,-1.572,-1.3033,0.0,0.0,0.0,0.0,0.0,0.0,0.0,0.0,0.0,0.0,0.0,0.0,0.0,0.0,0.0,0.0,0.0,0.0,0.0,0.0,0.0,0.0,0.0,0.0,0.0,0.0,0.0,0.0,0.0,0.0,0.0,0.0,0.0,0.0,0.0,0.0,0.0,0.0,0.0,0.0,0.0,0.0,0.0,0.0,0.0,0.0,0.0,0.0,0.0,0.0,0.0,0.0,0.0,0.0,0.0,0.0,0.0,0.0,0.0,0.0,0.0,0.0,0.0,0.0,0.0,0.0,0.0,0.0,0.0,0.0,0.0,0.0,0.0,0.0,0.0,0.0,0.0,0.0,0.0,0.0,0.0,0.0,0.0,0.0,0.0,0.0,0.0,0.0,0.0,0.0,0.0,0.0,0.0,0.0,0.0,0.0,0.0,0.0,0.0,0.0,0.0,0.0,-1.8286,-2.121,-2.3121,-2.3201,-2.1882,-2.0886,-2.0473,-1.7777,-1.5832,-1.5341,0.0,0.0,0.0,0.0,0.0,0.0,0.0,0.0,0.0,0.0,0.0,0.0,0.0,0.0,0.0,0.0,0.0,0.0,0.0,0.0,0.0,0.0,0.0,0.0,0.0,0.0,0.0,0.0,0.0,0.0,0.0,0.0,0.0,0.0,0.0,0.0,0.0,0.0,0.0,0.0,0.0,0.0,0.0,0.0,0.0,0.0,0.0,0.0,0.0,0.0,0.0,0.0,0.0,0.0,0.0,0.0,0.0,0.0,0.0,0.0,-1.4004,-1.1738,0.0,0.0,0.0,0.0,0.0,0.0,0.0,0.0,0.0,0.0,0.0,0.0,0.0,0.0,0.0,0.0,0.0,0.0,0.0,0.0,0.0,0.0,0.0,0.0,0.0,0.0,0.0,0.0,0.0,0.0,0.0,0.0,0.0,0.0,0.0,0.0,0.0,0.0,0.0,0.0,-1.7988,-2.1074,-2.3563,-2.4544,-2.4345,-2.3839,-2.3139,-2.1852,-2.0099,-1.7813,-1.6519,0.0,0.0,0.0,0.0,0.0,0.0,0.0,0.0,0.0,0.0,0.0,0.0,0.0,0.0,0.0,0.0,0.0,0.0,0.0,0.0,0.0,0.0,0.0,0.0,0.0,0.0,0.0,0.0,0.0,0.0,0.0,0.0,0.0,0.0,0.0,0.0,0.0,0.0,0.0,0.0,0.0,0.0,0.0,0.0,0.0,0.0,0.0,0.0,0.0,0.0,0.0,0.0,0.0,0.0,0.0,0.0,0.0,0.0,0.0,-1.6074,-1.4336,0.0,0.0,0.0,0.0,0.0,0.0,0.0,0.0,0.0,0.0,0.0,0.0,0.0,0.0,0.0,0.0,0.0,0.0,0.0,0.0,0.0,0.0,0.0,0.0,0.0,0.0,0.0,0.0,0.0,0.0,0.0,0.0,0.0,0.0,0.0,0.0,0.0,0.0,0.0,0.0,-1.8457,-2.1465,-2.3965,-2.5254,-2.4965,-2.4737,-2.4756,-2.2913,-2.1206,-1.9973,-1.8273,0.0,0.0,0.0,0.0,0.0,0.0,0.0,0.0,0.0,0.0,0.0,0.0,0.0,0.0,0.0,0.0,0.0,0.0,0.0,0.0,0.0,0.0,0.0,0.0,0.0,0.0,0.0,0.0,0.0,0.0,0.0,0.0,0.0,0.0,0.0,0.0,0.0,0.0,0.0,0.0,0.0,0.0,0.0,0.0,0.0,0.0,0.0,0.0,0.0,0.0,0.0,0.0,0.0,-1.7807,-1.8281,-1.8281,-1.8203,-1.9196,-2.0781,-1.7812,-1.707,-1.7768,-1.5156,0.0,0.0,0.0,0.0,0.0,0.0,0.0,0.0,0.0,0.0,0.0,0.0,0.0,0.0,0.0,0.0,0.0,0.0,0.0,0.0,0.0,0.0,-1.7645,-1.7787,-1.9104,-1.9687,-1.7187,0.0,0.0,0.0,0.0,0.0,0.0,0.0,0.0,0.0,0.0,0.0,-1.9512,-2.2305,-2.457,-2.5674,-2.5177,-2.5107,-2.5995,-2.3359,-2.1807,-2.2199,-1.9835,-1.8154,0.0,0.0,0.0,0.0,0.0,0.0,0.0,0.0,0.0,0.0,0.0,0.0,0.0,0.0,0.0,0.0,0.0,0.0,0.0,0.0,0.0,0.0,0.0,0.0,0.0,0.0,0.0,0.0,0.0,0.0,0.0,0.0,-1.4004,-1.3704,0.0,0.0,0.0,0.0,0.0,0.0,0.0,0.0,0.0,0.0,0.0,0.0,0.0,-1.6609,-1.75,-1.9199,-1.9844,-1.9434,-2.1055,-2.1836,-2.1836,-2.1465,-2.1641,-2.2207,-2.1387,0.0,-2.0116,-1.9316,0.0,0.0,0.0,0.0,0.0,0.0,0.0,0.0,0.0,0.0,0.0,0.0,0.0,0.0,0.0,0.0,0.0,0.0,0.0,0.0,0.0,0.0,-2.3412,-2.2537,-2.2246,-2.207,-2.166,-1.889,-1.657,-1.6758,-1.6202,-1.5361,0.0,0.0,0.0,0.0,0.0,0.0,-2.1328,-2.3848,-2.5684,-2.625,-2.6528,-2.6846,-2.7383,-2.5971,-2.5054,-2.515,-2.3789,-2.2002,-1.9857,-1.8248,0.0,0.0,0.0,0.0,0.0,0.0,0.0,0.0,0.0,0.0,0.0,0.0,0.0,0.0,0.0,0.0,0.0,0.0,0.0,0.0,0.0,0.0,0.0,0.0,0.0,0.0,0.0,0.0,0.0,-1.2734,-1.373,-1.3743,-1.3457,-1.2871,0.0,0.0,0.0,0.0,0.0,0.0,0.0,0.0,0.0,-2.0787,-2.0852,-2.1531,-2.2924,-2.3627,-2.3566,-2.2797,-2.3759,-2.3881,-2.3223,-2.3047,-2.3184,-2.3619,-2.4149,-2.417,-2.3657,-2.1976,-2.0226,-1.863,0.0,0.0,0.0,0.0,-1.7868,-1.8152,-1.9879,-2.0494,-2.0365,-1.9586,0.0,0.0,0.0,0.0,0.0,0.0,0.0,-2.1293,-2.3229,-2.3963,-2.4491,-2.5765,-2.5583,-2.5115,-2.5115,-2.3556,-2.1694,-1.9875,-1.8652,-1.7572,-1.6457,-1.6777,0.0,0.0,0.0,-2.1367,-2.2148,-2.4492,-2.6172,-2.6367,-2.6992,-2.7461,-2.7708,-2.6914,-2.62,-2.5713,-2.4727,-2.3654,-2.2591,-2.0205,-1.8045,0.0,0.0,0.0,0.0,0.0,0.0,0.0,0.0,0.0,0.0,0.0,0.0,0.0,0.0,0.0,0.0,0.0,0.0,0.0,0.0,0.0,0.0,0.0,0.0,0.0,0.0,0.0,0.0,-1.4029,-1.4987,-1.4539,-1.5495,-1.5499,0.0,0.0,0.0,0.0,0.0,0.0,-2.0006,-2.1531,-2.319,-2.4891,-2.496,-2.5659,-2.7111,-2.7299,-2.6901,-2.6001,-2.6561,-2.6288,-2.5329,-2.5329,-2.5513,-2.5819,-2.6801,-2.7121,-2.6797,-2.4724,-2.3356,-2.2622,-2.2718,-2.2356,-2.1762,-2.2091,-2.2323,-2.2682,-2.4397,-2.5097,-2.5158,-2.4694,-2.399,-2.3156,-2.224,0.0,0.0,0.0,0.0,-2.4246,-2.6053,-2.6097,-2.6152,-2.8179,-2.8187,-2.7815,-2.7815,-2.7385,-2.6019,-2.2681,-2.1172,-2.0098,-1.9043,-1.9277,0.0,-1.9512,-2.1309,-2.2871,-2.3437,-2.5293,-2.6582,-2.6699,-2.7434,-2.7832,-2.7832,-2.7441,-2.6914,-2.6269,-2.5312,-2.4699,-2.4699,-2.2107,-2.0429,-1.9916,0.0,0.0,0.0,0.0,0.0,0.0,0.0,0.0,0.0,0.0,0.0,0.0,0.0,0.0,0.0,0.0,0.0,0.0,0.0,0.0,0.0,0.0,0.0,0.0,0.0,0.0,0.0,0.0,0.0,-1.7514,-2.0836,0.0,0.0,0.0,0.0,-2.1643,-2.1814,-2.2682,-2.4499,-2.4696,-2.5524,-2.7266,-2.7334,-2.7586,-2.8046,-2.8992,-2.9195,-2.8722,-2.9691,-2.9917,-2.9511,-2.9511,-2.9534,-2.9557,-2.9602,-2.9308,-2.8722,-2.8092,-2.6802,-2.5249,-2.4739,-2.3881,-2.3058,-2.4263,-2.5056,-2.5708,-2.7482,-2.8398,-2.8576,-2.6846,-2.5122,-2.3956,-2.4972,-2.4554,0.0,0.0,-2.81,-2.8895,-3.0486,-3.0941,-3.0767,-2.9784,-2.9579,-2.967,-2.967,-2.9011,-2.759,-2.4806,-2.3887,-2.3418,-2.2886,0.0,-2.2598,-2.3379,-2.3325,-2.3912,-2.5918,-2.666,-2.7148,-2.7611,-2.7988,-2.8262,-2.8262,-2.7871,-2.7669,-2.763,-2.6367,-2.5615,-2.5615,-2.4309,-2.2486,-2.0245,-1.9851,0.0,0.0,0.0,0.0,0.0,0.0,0.0,0.0,0.0,0.0,0.0,0.0,0.0,0.0,0.0,0.0,0.0,0.0,0.0,0.0,0.0,0.0,0.0,0.0,0.0,0.0,0.0,0.0,-1.9603,-2.1803,0.0,-2.1393,-2.2354,-2.3329,-2.3871,-2.5906,-2.7553,-2.8668,-2.9963,-3.1131,-3.2098,-3.2123,-3.256,-3.3436,-3.3392,-3.3095,-3.2512,-3.2864,-3.2574,-3.1666,-3.1666,-3.1508,-3.119,-3.1948,-3.1995,-3.1526,-3.2085,-3.0721,-2.8356,-2.9213,-2.9086,-2.8467,-2.8915,-2.9438,-3.0008,-3.1047,-3.1515,-3.1563,-3.0936,-3.0523,-3.036,-3.0758,-3.0622,-3.0661,-3.235,-3.2996,-3.3364,-3.4301,-3.3706,-3.3073,-3.3807,-3.3123,-3.2324,-3.2324,-3.2065,-3.1206,-2.9045,-2.7666,-2.6845,-2.6931,-2.6578,-2.6213,-2.597,-2.6032,-2.623,-2.6738,-2.7402,-2.7793,-2.7728,-2.8047,-2.8301,-2.8301,-2.8164,-2.7949,-2.7728,-2.6973,-2.6445,-2.6172,-2.5156,-2.4088,-2.2928,-2.2838,-2.0739,0.0,0.0,0.0,0.0,0.0,0.0,0.0,0.0,0.0,0.0,0.0,0.0,0.0,0.0,0.0,0.0,0.0,0.0,0.0,0.0,0.0,0.0,0.0,0.0,0.0,-2.0375,-2.2914,-2.1441,-2.3883,-2.5265,-2.4119,-2.5562,-2.6919,-2.7862,-2.9987,-3.165,-3.2621,-3.401,-3.4901,-3.5253,-3.5278,-3.5629,-3.6383,-3.6182,-3.5879,-3.5405,-3.5576,-3.5256,-3.4513,-3.4513,-3.4275,-3.3995,-3.48,-3.4846,-3.4431,-3.5205,-3.4144,-3.2064,-3.2585,-3.2667,-3.2516,-3.2516,-3.2968,-3.3721,-3.4474,-3.4625,-3.4449,-3.4449,-3.47,-3.4977,-3.4801,-3.4726,-3.4926,-3.583,-3.606,-3.6182,-3.6581,-3.5911,-3.5428,-3.6441,-3.5911,-3.509,-3.4895,-3.4847,-3.4486,-3.3077,-3.0928,-2.9488,-2.9897,-2.9598,-2.8903,-2.7734,-2.8278,-2.832,-2.6957,-2.7954,-2.8535,-2.7943,-2.8125,-2.8301,-2.8301,-2.8027,-2.7871,-2.7871,-2.7207,-2.6816,-2.6816,-2.5732,-2.4863,-2.4414,-2.4141,-2.2246,-1.8672,0.0,0.0,0.0,0.0,0.0,0.0,0.0,0.0,0.0,0.0,0.0,0.0,0.0,0.0,0.0,0.0,0.0,0.0,0.0,0.0,0.0,0.0,0.0,-1.9627,-2.2887,-2.4976,-2.3246,-2.7542,-2.9955,-2.8154,-3.0134,-3.219,-3.3847,-3.3997,-3.47,-3.638,-3.6455,-3.6455,-3.648,-3.648,-3.6505,-3.6508,-3.701,-3.7262,-3.7262,-3.7789,-3.8065,-3.8065,-3.8065,-3.804,-3.804,-3.804,-3.7713,-3.7211,-3.7211,-3.6933,-3.6304,-3.46,-3.4274,-3.4705,-3.4705,-3.5454,-3.6606,-3.7638,-3.7688,-3.7262,-3.7211,-3.7236,-3.7136,-3.6656,-3.648,-3.6606,-3.7159,-3.7262,-3.7262,-3.7262,-3.7638,-3.7889,-3.7362,-3.7638,-3.7864,-3.7312,-3.7186,-3.701,-3.6505,-3.3577,-3.1318,-3.1743,-3.1427,-3.0522,-2.8833,-3.0005,0.0,-2.6983,-2.843,-2.9435,-2.8469,-2.8349,-2.8349,-2.8349,-2.7532,-2.7434,-2.8295,-2.718,-2.6816,-2.7689,-2.6084,-2.4922,-2.4473,-2.3574,-2.248,-2.119,0.0,0.0,0.0,0.0,0.0,0.0,0.0,0.0,0.0,0.0,0.0,0.0,0.0,0.0,0.0,0.0,0.0,0.0,0.0,0.0,0.0,-2.3296,-2.5592,-2.3458,-2.6308,-2.8604,-2.8481,-3.0392,-3.188,-3.2169,-3.3164,-3.4324,-3.5625,-3.6056,-3.6659,-3.7513,-3.7563,-3.7739,-3.8215,-3.824,-3.8366,-3.8793,-3.8944,-3.8994,-3.8994,-3.9145,-3.922,-3.922,-3.922,-3.9019,-3.8642,-3.8642,-3.8316,-3.7789,-3.7789,-3.7688,-3.7387,-3.5683,-3.5132,-3.5282,-3.5282,-3.6257,-3.7588,-3.7889,-3.8442,-3.8868,-3.804,-3.8065,-3.8441,-3.8265,-3.824,-3.8341,-3.8843,-3.8994,-3.8994,-3.8994,-3.8818,-3.8592,-3.8492,-3.8191,-3.7864,-3.7312,-3.7186,-3.701,-3.6505,-3.561,-3.4964,-3.511,-3.4174,-3.3305,-3.2825,-3.2305,-3.1634,-3.0802,-3.1221,-3.1177,-3.0162,-3.0048,-3.0048,-3.0048,-2.894,-2.8655,-2.9713,-2.8508,-2.7734,-2.7728,-2.7258,-2.6445,-2.5343,-2.3008,-2.1541,0.0,0.0,0.0,0.0,0.0,0.0,0.0,0.0,0.0,0.0,0.0,0.0,0.0,0.0,0.0,0.0,0.0,0.0,0.0,0.0,0.0,0.0,-2.6388,-2.8561,-2.8242,-2.9711,-3.0991,-3.1583,-3.2581,-3.3621,-3.45,-3.5077,-3.5855,-3.696,-3.7337,-3.7864,-3.8668,-3.8718,-3.8868,-3.9195,-3.922,-3.9371,-3.9697,-3.9697,-3.9697,-3.9697,-3.9697,-3.9697,-3.9697,-3.9697,-3.9521,-3.922,-3.922,-3.9019,-3.8718,-3.8718,-3.8718,-3.8567,0.0,0.0,0.0,0.0,-3.7538,-3.8391,-3.8642,-3.9145,-3.9597,-3.8919,-3.8944,-3.922,-3.922,-3.922,-3.927,-3.9597,-3.9697,-3.9697,-3.9697,-3.9446,-3.922,-3.922,-3.8793,-3.8216,-3.7638,-3.7337,-3.701,-3.6505,-3.6405,0.0,-3.6405,-3.5763,-3.492,-3.3983,-3.3979,-3.3487,-3.1968,-3.2582,-3.2727,-3.1497,-3.1381,-3.1381,-3.1381,-3.0319,0.0,0.0,0.0,-2.9247,-2.884,-2.8819,0.0,0.0,0.0,-2.3626,-2.3584,-2.2063,0.0,0.0,-1.992,-1.9568,0.0,0.0,0.0,0.0,0.0,0.0,0.0,0.0,0.0,0.0,0.0,0.0,0.0,0.0,0.0,0.0,-2.9854,-3.1587,-3.3043,-3.2968,-3.2918,-3.3294,-3.4324,-3.5182,-3.5734,-3.6332,-3.7134,-3.8115,-3.8191,-3.8642,-3.9647,-3.9697,0.0,0.0,0.0,-3.9697,-3.9697,-3.9697,-3.9697,-3.9697,-3.9697,-3.9697,-3.9697,-3.9697,-3.9697,-3.9697,-3.9697,-3.9697,-3.9697,-3.9697,-3.9697,-3.9597,-3.8517,-3.809,-3.8165,-3.8668,-3.8969,-3.9044,-3.9521,0.0,0.0,-3.9697,-3.9697,-3.9697,-3.9697,-3.9697,-3.9697,-3.9697,-3.9697,-3.9697,-3.9697,-3.9697,-3.9697,-3.9697,-3.927,-3.8718,-3.814,-3.7563,-3.701,-3.6505,-3.6405,-3.6405,-3.6405,-3.6405,-3.5724,-3.378,-3.5145,-3.525,-3.2011,-3.3357,-3.4119,-3.2746,-3.2574,0.0,-3.2574,-3.1709,-3.1592,-3.2487,-3.1671,-3.0974,-3.0618,-3.0597,-3.0145,-2.9218,-2.8065,-2.7427,-2.731,-2.6215,-2.5478,-2.4934,-2.165,-2.1035,0.0,0.0,0.0,0.0,0.0,0.0,0.0,0.0,0.0,0.0,0.0,0.0,0.0,0.0,0.0,-2.9302,-3.1989,-3.4048,-3.4349,-3.5454,-3.5931,-3.5107,-3.6031,-3.6935,-3.7462,-3.804,-3.8668,-3.932,-3.9371,-3.9471,-3.9697,-3.9697,-3.9697,-3.9697,-3.9697,-3.9697,-3.9697,-3.9697,-3.9697,-3.9697,-3.9697,0.0,-3.9697,-3.9697,-3.9697,-3.9697,-3.9697,-3.9697,-3.9697,-3.9697,-3.9697,-3.9622,-3.8969,-3.8718,-3.8718,-3.8869,-3.9145,-3.9546,-3.9647,-3.9697,-3.9697,-3.9697,-3.9697,-3.9697,-3.9697,-3.9697,0.0,-3.9697,-3.9697,-3.9697,-3.9697,-3.9697,-3.9697,-3.9697,-3.927,-3.8718,-3.814,-3.7563,-3.701,-3.6505,-3.6405,-3.6405,-3.6405,-3.6405,-3.6235,-3.5821,-3.6113,-3.6141,-3.5466,-3.5734,-3.5583,-3.4367,-3.4268,-3.4268,-3.4268,-3.3098,-3.2865,-3.3899,-3.2773,-3.1995,-3.1955,-3.1622,-3.133,-3.1128,-3.0247,-2.9728,-2.9728,-2.9495,-2.9159,-2.8696,-2.6126,-2.5373,0.0,0.0,0.0,0.0,0.0,0.0,0.0,0.0,0.0,0.0,0.0,-2.5661,-2.7042,0.0,-3.0708,-3.239,-3.4003,-3.5282,-3.5881,-3.691,-3.7287,-3.6458,-3.7337,-3.814,-3.8417,-3.8944,-3.9396,-3.9672,-3.9697,-3.9697,-3.9697,-3.9697,-3.9697,-3.9697,-3.9697,-3.9697,-3.9697,-3.9697,-3.9697,-3.9697,-3.9697,-3.9697,-3.9697,-3.9697,-3.9697,-3.9697,-3.9697,-3.9697,-3.9697,-3.9697,-3.9697,-3.9672,-3.9396,-3.927,-3.927,-3.927,-3.9446,-3.9697,-3.9697,-3.9697,-3.9697,-3.9697,-3.9697,-3.9697,-3.9697,-3.9697,-3.9697,-3.9697,-3.9697,-3.9622,-3.9346,-3.9496,-3.9546,-3.8994,-3.8642,-3.8291,-3.7713,-3.7161,-3.6732,-3.6455,-3.6405,-3.6405,-3.6405,-3.6405,-3.6405,-3.6405,-3.6405,-3.6405,-3.6405,-3.6405,-3.6204,-3.5604,-3.5554,-3.5554,-3.5554,-3.4947,-3.4792,-3.533,-3.4751,-3.4338,-3.4338,-3.4149,-3.3887,-3.3625,-3.2582,-3.1902,-3.1646,-3.1014,-3.0595,-3.0394,-2.985,-2.9489,0.0,0.0,0.0,0.0,0.0,0.0,0.0,-2.2221,-2.3427,-2.5234,-2.6816,-2.8536,-3.0407,-3.1637,-3.3119,-3.5433,-3.6009,-3.6508,-3.7387,-3.799,-3.8165,-3.7739,-3.8467,-3.907,-3.907,-3.9421,-3.9697,-3.9697,-3.9697,-3.9697,-3.9697,-3.9697,-3.9697,-3.9697,-3.9697,-3.9697,-3.9697,-3.9697,-3.9697,-3.9697,-3.9697,-3.9697,-3.9697,-3.9697,-3.9697,-3.9697,-3.9697,-3.9697,-3.9697,-3.9697,-3.9697,-3.9697,-3.9697,-3.9697,-3.9697,-3.9697,-3.9697,-3.9697,-3.9697,-3.9697,-3.9697,-3.9697,-3.9697,-3.9697,-3.9697,-3.9697,-3.9697,-3.9697,-3.9697,-3.9597,-3.9145,-3.927,-3.9295,-3.8391,-3.8015,-3.7739,-3.7287,-3.6807,-3.6405,-3.6405,-3.6405,-3.6405,-3.6405,-3.6405,-3.6405,-3.6405,-3.6405,-3.6405,-3.6405,-3.6405,-3.6405,-3.6405,-3.6405,-3.6405,-3.6405,-3.6405,-3.6405,-3.6405,-3.6405,-3.6405,-3.6405,-3.6405,-3.6157,-3.5658,-3.4719,-3.4028,-3.3594,-3.2558,-3.2081,-3.2081,-3.3101,-3.2949,-1.7903,-1.9284,-2.132,-2.3496,-2.3803,-2.4682,0.0,-2.9026,-2.8662,-3.0859,-3.224,-3.3294,-3.4022,-3.5077,-3.6128,-3.686,-3.7839,-3.8542,-3.8668,-3.9145,-3.9496,-3.9421,-3.9521,-3.9597,-3.9597,-3.9647,-3.9697,-3.9697,-3.9697,-3.9697,-3.9697,-3.9697,-3.9697,-3.9697,-3.9697,-3.9697,-3.9697,-3.9697,-3.9697,-3.9697,-3.9697,-3.9697,-3.9697,-3.9697,-3.9697,-3.9697,-3.9697,-3.9697,-3.9697,-3.9697,-3.9697,-3.9697,-3.9697,-3.9697,-3.9697,-3.9697,-3.9697,-3.9697,-3.9697,-3.9697,-3.9697,-3.9697,-3.9697,-3.9697,-3.9697,-3.9697,-3.9697,-3.9697,-3.9697,-3.9672,-3.9622,-3.927,-3.8969,-3.8844,-3.8015,-3.7262,-3.7186,-3.6807,-3.6405,-3.6405,-3.6405,-3.6405,-3.6405,-3.6405,-3.6405,-3.6405,-3.6405,-3.6405,-3.6405,-3.6405,-3.6405,-3.6405,-3.6405,-3.6405,-3.6405,-3.6405,-3.6405,-3.6405,-3.6405,-3.6405,-3.6405,-3.6405,-3.638,-3.6329,-3.6163,-3.6091,-3.6016,-3.5874,-3.5827,-3.5827,-3.5921,-3.5102,-2.3276,-2.3753,-2.413,-2.659,-2.7007,-2.7494,-2.9905,-3.0181,-3.0633,-3.3101,-3.455,-3.5504,-3.6056,-3.6784,-3.7513,-3.8114,-3.8617,-3.8994,-3.9295,-3.9546,-3.9697,-3.9697,-3.9697,-3.9697,-3.9697,-3.9697,-3.9697,-3.9697,-3.9697,-3.9697,-3.9697,-3.9697,-3.9697,-3.9697,-3.9697,-3.9697,-3.9697,-3.9697,-3.9697,-3.9697,-3.9697,-3.9697,-3.9697,-3.9697,-3.9697,-3.9697,-3.9697,-3.9697,-3.9697,-3.9697,-3.9697,-3.9697,-3.9697,-3.9697,-3.9697,-3.9697,-3.9697,-3.9697,-3.9697,-3.9697,-3.9697,-3.9697,-3.9697,-3.9697,-3.9697,-3.9697,-3.9697,-3.9697,-3.9697,-3.9622,-3.9295,-3.9095,-3.8743,-3.804,-3.7538,-3.7086,-3.6832,-3.6581,-3.6405,-3.6405,-3.6405,-3.6405,-3.6405,-3.6405,-3.6405,-3.6405,-3.6405,-3.6405,-3.6405,-3.6405,-3.6405,-3.6405,-3.6405,-3.6405,-3.6405,-3.6405,-3.6405,-3.6405,-3.6405,-3.6405,-3.6405,-3.6405,-3.6405,-3.6405,-3.6405,-3.6405,-3.6405,-3.6405,-3.6405,-3.6405,-3.6405,-3.5996,-2.6163,-2.664,-2.664,-2.9026,-2.9955,-3.0457,-3.1009,-3.1587,-3.2549,-3.4726,-3.5931,-3.6857,-3.7513,-3.799,-3.8442,-3.9019,-3.9094,-3.9245,-3.9647,-3.9697,-3.9697,-3.9697,-3.9697,-3.9697,-3.9697,-3.9697,-3.9697,-3.9697,-3.9697,-3.9697,-3.9697,-3.9697,-3.9697,-3.9697,-3.9697,-3.9697,-3.9697,-3.9697,-3.9697,-3.9697,-3.9697,-3.9697,-3.9697,-3.9697,-3.9697,-3.9697,-3.9848,-3.9923,-3.9923,-4.0099,-4.0149,-4.0149,-4.0149,-4.0149,-4.0149,-4.0149,-3.9948,-3.9697,-3.9697,-3.9697,-3.9697,-3.9697,-3.9697,-3.9697,-3.9697,-3.9697,-3.9697,-3.9697,-3.9697,-3.9597,-3.9195,-3.8994,-3.8668,-3.7888,-3.7538,-3.7287,-3.6958,-3.6857,-3.6857,-3.6857,-3.6857,-3.6857,-3.6857,-3.6857,-3.6857,-3.6857,-3.6857,-3.6757,-3.6455,-3.6405,-3.6405,-3.6405,-3.6405,-3.6405,-3.6405,-3.6405,-3.6405,-3.6405,-3.6405,-3.6405,-3.6405,-3.6405,-3.6405,-3.6405,-3.6405,-3.6405,-3.6405,-3.6405,-3.6405,-3.6405,-3.6405,-3.6405,-2.4274,-2.6063,-2.7896,-3.0633,-3.2541,-3.3897,-3.4449,-3.4956,-3.5533,-3.6229,-3.6807,-3.7487,-3.8617,-3.8894,-3.9019,-3.9572,-3.9672,-3.9672,-3.9697,-3.9697,-3.9697,-3.9697,-3.9697,-3.9697,-3.9697,-3.9697,-3.9697,-3.9697,-3.9697,-3.9697,-3.9697,-3.9697,-3.9697,-3.9697,-3.9697,-3.9697,-3.9697,-3.9697,-3.9697,-3.9697,-3.9697,-3.9697,-3.9697,-3.9697,-3.9697,-3.9722,-4.0249,-4.0501,-4.0526,-4.1025,-4.1225,-4.1225,-4.1225,-4.1225,-4.1225,-4.1225,-4.0601,-3.9697,-3.9697,-3.9697,-3.9697,-3.9697,-3.9697,-3.9697,-3.9697,-3.9697,-3.9697,-3.9697,-3.9697,-3.9697,-3.9672,-3.927,-3.8919,-3.8869,-3.8391,-3.7965,-3.7965,-3.7965,-3.7965,-3.7965,-3.7965,-3.7965,-3.7965,-3.7965,-3.7965,-3.7965,-3.7965,-3.7563,-3.6556,-3.6405,-3.6405,-3.6405,-3.6405,-3.6405,-3.6405,-3.6405,-3.6405,-3.6405,-3.6405,-3.6405,-3.6405,-3.6405,-3.6405,-3.6405,-3.6405,-3.6405,-3.6405,-3.6405,-3.6405,-3.6405,-3.6405,-3.6405,-2.649,-2.875,-3.1135,-3.3502,-3.4299,-3.4675,-3.5604,-3.568,-3.5759,-3.6709,-3.6182,-3.5881,-3.7059,-3.726,-3.7436,-3.7939,-3.8969,-3.9697,-3.9697,-3.9697,-3.9697,-3.9697,-3.9697,-3.9697,-3.9697,-3.9697,-3.9697,-3.9697,-3.9697,-3.9697,-3.9697,-3.9697,-3.9697,-3.9697,-3.9697,-3.9697,-3.9697,-3.9697,-3.9697,-3.9697,-4.0074,-4.0425,-4.0724,-4.0724,-4.0724,-4.0802,-4.0924,-4.1,-4.1025,-4.12,-4.1275,-4.1275,-4.1275,-4.1275,-4.1275,-4.1275,-4.105,-4.0724,-4.0724,-4.0724,-4.0724,-4.0724,-4.0724,-4.0724,-4.0724,-4.0724,-4.0724,-4.0724,-4.0724,-4.0724,-4.0724,-4.0099,-3.9421,-3.9421,-3.8693,-3.8015,-3.8015,-3.8015,-3.8015,-3.8015,-3.8015,-3.8015,-3.8015,-3.8015,-3.8015,-3.8015,-3.8015,-3.7864,-3.7513,-3.7462,-3.7312,-3.6983,-3.6958,-3.6807,-3.643,-3.6405,-3.6405,-3.6405,-3.6405,-3.6405,-3.6405,-3.6405,-3.6405,-3.6405,-3.6405,-3.6405,-3.6405,-3.6405,-3.6405,-3.6405,-3.6405,-3.6405,-2.9151,-3.1185,-3.3068,-3.5278,-3.5579,-3.5504,-3.6254,-3.6081,-3.6081,-3.6985,-3.5881,-3.5002,-3.5906,-3.6081,-3.6056,-3.6006,-3.7412,-3.8592,-3.8768,-3.8793,-3.9019,-3.9622,-3.9697,-3.9697,-3.9697,-3.9697,-3.9697,-3.9697,-3.9697,-3.9697,-3.9697,-3.9697,-3.9697,-3.9697,-3.9697,-3.9798,-3.9973,-3.9998,-4.0099,-4.03,-4.0651,-4.1003,-4.1275,-4.1275,-4.1275,-4.13,-4.1555,-4.163,-4.1656,-4.1856,-4.1932,-4.1932,-4.1932,-4.1932,-4.1932,-4.1932,-4.1932,-4.1856,-4.1426,-4.1275,-4.1275,-4.1275,-4.1275,-4.1275,-4.1275,-4.1275,-4.1275,-4.1275,-4.1275,-4.1275,-4.1275,-4.0802,-4.0224,-4.0023,-3.9446,-3.8843,-3.8642,-3.8617,-3.8617,-3.8617,-3.8617,-3.8617,-3.8617,-3.8617,-3.8617,-3.8617,-3.8617,-3.8467,-3.8065,-3.8015,-3.7864,-3.7513,-3.7487,-3.7337,-3.6985,-3.6983,-3.6983,-3.6983,-3.6983,-3.6908,-3.6707,-3.6707,-3.6606,-3.6405,-3.6405,-3.6405,-3.6405,-3.6405,-3.6405,-3.6405,-3.6405,-3.6405,-3.198,-3.3169,-3.379,-3.5877,-3.6405,-3.6405,-3.6405,-3.6405,-3.6531,-3.6885,-3.5655,-3.4605,-3.5082,-3.5232,-3.4981,-3.4048,-3.5378,-3.6709,-3.7236,-3.7312,-3.7914,-3.9496,-3.9697,-3.9697,-3.9697,-3.9697,-3.9697,-3.9747,-3.9722,-3.9697,-3.9697,-3.9722,-3.9747,-3.9747,-3.9772,-4.0023,-4.0551,-4.0551,-4.0774,-4.1326,-4.1326,-4.1351,-4.1376,-4.1376,-4.1376,-4.1401,-4.1957,-4.2263,-4.2288,-4.276,-4.2986,-4.3042,-4.3073,-4.3073,-4.3129,-4.3184,-4.3129,-4.2977,-4.1944,-4.1512,-4.1376,-4.1376,-4.1376,-4.1376,-4.1376,-4.1376,-4.1376,-4.1376,-4.1376,-4.1376,-4.1376,-4.1326,-4.115,-4.0676,-4.0526,-4.035,-3.9848,-3.9747,-3.9747,-3.9772,-3.9747,-3.9722,-3.9697,-3.9697,-3.9697,-3.9697,-3.9697,-3.9295,-3.8241,-3.809,-3.809,-3.804,-3.804,-3.804,-3.8015,-3.8015,-3.8015,-3.8015,-3.8015,-3.7764,-3.7236,-3.7236,-3.6985,-3.6505,-3.648,-3.648,-3.648,-3.648,-3.648,-3.648,-3.648,-3.648,-3.2641,-3.4318,-3.5701,-3.6254,-3.6405,-3.6405,-3.6405,-3.6405,-3.5977,-3.4469,-3.2817,-3.142,-3.0693,-3.1612,-3.2767,-3.3746,-3.6332,-3.8442,-3.8969,-3.9044,-3.922,-3.9647,-3.9697,-3.9697,-3.9697,-3.9697,-3.9873,-4.0275,-3.9923,-3.9697,-3.9697,-4.0074,-4.03,-4.03,-4.0701,-4.0924,-4.1075,-4.1075,-4.1404,-4.1957,-4.1957,-4.2158,-4.2559,-4.2559,-4.2559,-4.2559,-4.271,-4.2816,-4.2841,-4.2911,-4.2986,-4.3073,-4.4126,-4.4481,-4.4643,-4.5661,-4.5395,-4.4591,-4.5365,-4.4306,-4.2559,-4.2559,-4.2559,-4.2559,-4.2559,-4.2559,-4.2559,-4.2559,-4.2559,-4.2559,-4.2559,-4.1957,-4.125,-4.1125,-4.0501,-3.9973,-4.0249,-4.03,-4.0425,-4.0774,-4.0601,-4.0174,-3.9772,-3.9697,-3.9697,-3.9697,-3.9697,-3.9597,-3.9295,-3.927,-3.9094,-3.8693,-3.8642,-3.8467,-3.804,-3.8015,-3.8015,-3.8015,-3.8015,-3.7939,-3.7789,-3.7789,-3.7739,-3.7588,-3.7588,-3.7588,-3.7588,-3.7588,-3.7588,-3.7588,-3.7588,-3.7588,-3.4474,-3.5651,-3.6455,-3.6707,-3.6581,-3.6153,-3.5173,-3.4972,-3.4268,-3.1763,-2.9955,-2.8599,-2.7971,-2.9603,-3.1185,-3.1637,-3.5127,-3.7913,-3.8191,-3.8442,-3.8868,-3.9597,-3.9697,-3.9697,-3.9697,-3.9923,-4.0174,-4.0501,-4.0224,-4.0149,-4.04,-4.0701,-4.0824,-4.0824,-4.1125,-4.1401,-4.1681,-4.1932,-4.2208,-4.2564,-4.2564,-4.274,-4.2986,-4.2986,-4.2986,-4.2986,-4.2986,-4.2986,-4.2986,-4.2986,-4.2986,-4.3073,-4.3797,-4.4126,-4.4209,-4.4994,-4.5155,-4.5102,-4.5925,-4.5155,-4.3852,-4.3852,-4.3492,-4.2986,-4.2986,-4.2986,-4.2986,-4.2986,-4.2986,-4.2986,-4.2986,-4.2534,-4.2007,-4.1756,-4.1229,-4.0802,-4.0852,-4.0824,-4.0924,-4.1225,-4.105,-4.0777,-4.0475,-4.0224,-4.0049,-4.0049,-3.9848,-3.9697,-3.9697,-3.9697,-3.9572,-3.927,-3.922,-3.9094,-3.8768,-3.8743,-3.8743,-3.8743,-3.8743,-3.8642,-3.8391,-3.8391,-3.8266,-3.8015,-3.8015,-3.8015,-3.8015,-3.8015,-3.8015,-3.8015,-3.8015,-3.8015,-3.6508,-3.6835,-3.6631,-3.7061,-3.6709,-3.5751,-3.3614,-3.3011,-3.2014,-2.9076,-2.7293,-2.6223,-2.5971,-2.8122,-2.9804,-2.9289,-3.3144,-3.6355,-3.6782,-3.726,-3.8065,-3.9521,-3.9697,-3.9722,-3.9798,-4.0249,-4.0576,-4.0727,-4.0727,-4.0902,-4.125,-4.1351,-4.1426,-4.1501,-4.1501,-4.1781,-4.2313,-4.2791,-4.2986,-4.2986,-4.2986,-4.2986,-4.2986,-4.2986,-4.2986,-4.2986,-4.2986,-4.2986,-4.3042,-4.3184,-4.3129,-4.3017,-4.3602,-4.3713,-4.3602,-4.3962,-4.4725,-4.5555,-4.5767,-4.5555,-4.5262,-4.5048,-4.4071,-4.3042,-4.3184,-4.3295,-4.3295,-4.3295,-4.3295,-4.324,-4.3017,-4.2911,-4.2816,-4.2313,-4.2162,-4.1932,-4.153,-4.1451,-4.1476,-4.1401,-4.1326,-4.1275,-4.1275,-4.0877,-4.0551,-4.0626,-4.0224,-3.9923,-3.9923,-3.9798,-3.9697,-3.9697,-3.9697,-3.9697,-3.9697,-3.9697,-3.9697,-3.9697,-3.9697,-3.9471,-3.9045,-3.902,-3.8743,-3.8241,-3.8241,-3.8241,-3.8241,-3.8241,-3.8241,-3.8241,-3.8241,-3.8241,-3.6935,-3.7111,-3.7061,-3.7161,-3.6433,-3.5228,-3.347,-3.234,-3.0633,-2.6942,-2.5611,-2.4682,-2.3276,-2.4908,-2.7444,-3.0482,-3.3244,-3.5956,-3.8743,-3.9195,-3.9371,-3.9672,-3.9697,-3.9873,-4.0325,-4.045,-4.0902,-4.1861,-4.1936,-4.1706,-4.13,-4.1756,-4.2233,-4.2685,-4.2685,-4.2735,-4.2836,-4.2936,-4.2986,-4.2986,-4.2986,-4.2986,-4.2986,-4.2986,-4.2986,-4.2986,-4.2986,-4.2986,-4.3073,-4.4209,-4.4016,-4.3351,-4.6785,-4.7402,-4.663,-4.8964,-4.921,-4.8638,-4.9727,-4.8638,-4.6526,-4.5395,-4.4071,-4.3184,-4.4318,-4.4643,-4.4643,-4.4643,-4.4643,-4.4427,-4.3295,-4.269,-4.2338,-4.2238,-4.1806,-4.158,-4.1932,-4.2359,-4.2559,-4.2162,-4.1656,-4.1275,-4.1275,-4.0877,-4.0676,-4.1075,-4.1075,-4.1,-4.1,-4.0249,-3.9697,-3.9697,-3.9697,-3.9697,-3.9697,-3.9697,-3.9697,-3.9697,-3.9697,-3.9647,-3.9546,-3.9546,-3.9496,-3.9396,-3.9396,-3.9396,-3.9396,-3.9396,-3.9396,-3.9396,-3.9396,-3.9396,-3.7462,-3.7412,-3.7262,-3.7538,-3.6784,-3.5077,-3.1687,-3.0281,-2.8323,-2.3552,-2.2171,-2.1616,-2.1117,-2.3075,-2.5561,-2.7971,-3.1938,-3.5278,-3.6885,-3.8592,-3.9697,-3.9697,-3.9697,-3.9798,-4.0074,-4.0601,-4.1153,-4.1681,-4.2258,-4.2459,-4.2208,-4.2434,-4.271,-4.2961,-4.2986,-4.2986,-4.2986,-4.2986,-4.2986,-4.2986,-4.2986,-4.2986,-4.2986,-4.2986,-4.2986,-4.2986,-4.2986,-4.3381,-4.4071,-4.4725,-4.5048,-4.5342,-4.7299,-4.7656,-4.7248,-4.8589,-4.9112,-4.9308,-4.995,-4.9288,-4.8088,-4.7402,-4.6213,-4.5262,-4.5925,-4.6083,-4.6083,-4.6083,-4.6083,-4.5925,-4.5289,-4.4944,-4.4732,-4.4732,-4.3963,-4.3133,-4.2675,-4.2841,-4.2886,-4.269,-4.2384,-4.2183,-4.2183,-4.1731,-4.1455,-4.1731,-4.153,-4.1275,-4.1275,-4.0824,-4.045,-4.0149,-3.9873,-3.9697,-3.9697,-3.9697,-3.9697,-3.9697,-3.9697,-3.9697,-3.9697,-3.9697,-3.9697,-3.9697,-3.9697,-3.9697,-3.9697,-3.9697,-3.9697,-3.9697,-3.9697,-3.9697,-3.7588,-3.7513,-3.7262,-3.7588,-3.6835,-3.4726,-2.9854,-2.8122,-2.6088,-2.0865,-1.9284,-1.8958,-1.9384,-2.1443,-2.3602,-2.5184,-2.9754,-3.3545,-3.4726,-3.7262,-3.917,-3.9647,-3.9697,-3.9747,-3.9848,-4.0752,-4.1326,-4.1505,-4.2434,-4.2986,-4.2986,-4.2986,-4.2986,-4.2986,-4.2986,-4.2986,-4.2986,-4.2986,-4.2986,-4.2986,-4.2986,-4.2986,-4.2986,-4.2986,-4.2986,-4.2986,-4.2986,-4.3742,-4.5048,-4.5342,-4.6135,-4.7146,-4.7757,-4.7808,-4.7554,-4.7859,-4.8688,-4.963,-4.9659,-4.9659,-4.963,-4.963,-4.8489,-4.7146,-4.7453,-4.7554,-4.7554,-4.7554,-4.7554,-4.7453,-4.7197,-4.7094,-4.7094,-4.7094,-4.6213,-4.5155,-4.4126,-4.3852,-4.3852,-4.3852,-4.3775,-4.3778,-4.3826,-4.3198,-4.2649,-4.2776,-4.2175,-4.1626,-4.1626,-4.158,-4.1354,-4.0902,-4.0375,-4.0049,-4.0049,-4.0049,-4.0049,-4.0049,-4.0049,-4.0049,-4.0049,-4.0049,-4.0049,-4.0049,-4.0049,-4.0049,-4.0049,-4.0049,-3.9973,-3.9873,-3.9873,-3.9798,-3.6709,-3.7236,-3.7086,-3.6681,-3.568,-3.3696,-2.9202,-2.6967,-2.4682,-2.0639,-1.8982,-1.8304,-1.8329,-1.9359,-2.1217,-2.4349,-2.6615,-2.9729,-3.4705,-3.6135,-3.7462,-3.9446,-3.9697,-3.9898,-4.04,-4.0924,-4.1555,-4.2112,-4.269,-4.2986,-4.2986,-4.2986,-4.2986,-4.2986,-4.2986,-4.2986,-4.2986,-4.2986,-4.2986,-4.2986,-4.2986,-4.2986,-4.2986,-4.2986,-4.2986,-4.2986,-4.2986,-4.3742,-4.5102,-4.637,-4.6991,-4.735,-4.9824,-5.0095,-4.9161,-5.0383,-5.0917,-5.1011,-5.1011,-5.1011,-5.1011,-5.1011,-4.9259,-4.735,-4.8638,-4.9014,-4.9014,-4.9014,-4.9014,-4.8688,-4.7402,-4.7094,-4.7094,-4.7094,-4.6991,-4.6888,-4.6733,-4.6733,-4.6733,-4.6733,-4.6346,-4.6154,-4.6651,-4.5232,-4.415,-4.4676,-4.3694,-4.2836,-4.2836,-4.2439,-4.2112,-4.2062,-4.1505,-4.1125,-4.1125,-4.1125,-4.1125,-4.1125,-4.1125,-4.1125,-4.1125,-4.1125,-4.1125,-4.1125,-4.1125,-4.1125,-4.1125,-4.1125,-4.0874,-4.045,-4.045,-4.0174,-3.6128,-3.6433,-3.6307,-3.6734,-3.4776,-3.1813,-2.8398,-2.5536,-2.2623,-1.9083,-1.7727,-1.73,-1.7652,-1.8329,-1.961,-2.1945,-2.4865,-2.7832,-3.0658,-3.4424,-3.7086,-3.7613,-3.917,-4.0275,-4.0501,-4.0974,-4.1706,-4.2585,-4.2861,-4.2986,-4.2986,-4.2986,-4.2986,-4.2986,-4.2986,-4.2986,-4.2986,-4.2986,-4.2986,-4.2986,-4.2986,-4.2986,-4.2986,-4.2986,-4.3436,-4.4209,-4.4209,-4.5449,-4.7554,-4.8139,-4.8837,-4.9679,-5.0745,-5.087,-5.046,-5.1011,-5.1229,-5.1229,-5.1229,-5.1229,-5.1229,-5.1229,-5.046,-4.9679,-5.0239,-5.0383,-5.0383,-5.0383,-5.0383,-5.0287,-4.9727,-4.9582,-4.9357,-4.8539,-4.8389,-4.8139,-4.7299,-4.7094,-4.6837,-4.603,-4.5684,-4.5341,-4.4753,-4.3974,-4.3541,-4.3771,-4.3351,-4.2986,-4.2986,-4.2785,-4.2715,-4.2715,-4.1856,-4.1275,-4.1275,-4.1275,-4.1275,-4.1275,-4.1275,-4.1275,-4.1275,-4.1275,-4.1275,-4.1275,-4.1275,-4.1275,-4.1275,-4.1275,-4.1175,-4.0949,-4.0949,-4.0902,-3.4343,-3.5102,-3.5408,-3.6056,-3.3545,-3.0181,-2.7419,-2.4205,-2.0991,-1.8026,-1.6923,-1.6647,-1.7049,-1.7576,-1.8455,-1.9936,-2.2904,-2.5695,-2.7595,-3.1989,-3.5152,-3.5625,-3.7513,-3.9044,-3.9722,-4.0877,-4.1957,-4.2911,-4.2986,-4.2986,-4.2986,-4.2986,-4.2986,-4.2986,-4.2986,-4.2986,-4.2986,-4.2986,-4.2986,-4.2986,-4.2986,-4.3184,-4.3602,-4.3602,-4.4318,-4.5608,-4.5608,-4.6991,-4.921,-4.921,-4.9969,-5.1229,-5.1229,-5.1229,-5.1229,-5.1229,-5.1229,-5.1229,-5.1229,-5.1229,-5.1229,-5.1229,-5.1229,-5.1229,-5.1229,-5.1229,-5.1229,-5.1229,-5.1229,-5.1229,-5.1229,-5.1229,-5.0964,-5.0017,-4.9455,-4.8936,-4.7909,-4.7402,-4.6785,-4.582,-4.5608,-4.5289,-4.4372,-4.3852,-4.3602,-4.3602,-4.324,-4.2986,-4.2986,-4.2986,-4.2986,-4.2986,-4.2283,-4.1831,-4.1831,-4.1831,-4.1831,-4.1831,-4.1831,-4.1831,-4.1831,-4.1831,-4.1831,-4.1831,-4.1831,-4.1831,-4.1831,-4.1831,-4.1731,-4.158,-4.158,-4.1505,-3.0834,-3.3043,-3.46,-3.4073,-3.1863,-2.9076,-2.6264,-2.308,-2.0088,-1.785,-1.6923,-1.65,-1.65,-1.6999,-1.7752,-1.8832,-2.0439,-2.2904,-2.6776,-2.8775,-3.0884,-3.3596,-3.4424,-3.5629,-3.7814,-4.0526,-4.2439,-4.2936,-4.2986,-4.2986,-4.2986,-4.2986,-4.2986,-4.2986,-4.2986,-4.2986,-4.2986,-4.2986,-4.2986,-4.2986,-4.2986,-4.3713,-4.4994,-4.4994,-4.5767,-4.7094,-4.7094,-4.7859,-4.921,-4.921,-4.9969,-5.1229,-5.1229,-5.1229,-5.1229,-5.1229,-5.1229,-5.1229,-5.1229,-5.1229,-5.1229,-5.1229,-5.1229,-5.1229,-5.1229,-5.1229,-5.1229,-5.1229,-5.1229,-5.1229,-5.1229,-5.1229,-5.1229,-5.1182,-5.0191,-4.921,-4.9161,-4.8088,-4.7094,-4.7094,-4.7094,-4.7043,-4.7043,-4.5925,-4.4994,-4.4994,-4.3852,-4.2986,-4.2986,-4.2986,-4.2986,-4.2986,-4.2961,-4.2961,-4.2961,-4.2961,-4.2961,-4.2961,-4.2961,-4.2961,-4.2961,-4.2961,-4.2961,-4.2961,-4.2961,-4.2961,-4.2961,-4.2961,-4.274,-4.2213,-4.2213,-4.1856,-2.7871,-2.8825,-2.9126,-2.9327,-2.7017,-2.4356,-2.3075,-2.0541,-1.8127,-1.7024,-1.6626,-1.65,-1.65,-1.6999,-1.7752,-1.8832,-2.0413,-2.2322,-2.4707,-2.9076,-3.2365,-3.3244,-3.6835,-3.947,-4.0172,-4.1756,-4.2841,-4.2961,-4.2986,-4.2986,-4.2986,-4.2986,-4.2986,-4.2986,-4.2986,-4.2986,-4.2986,-4.2986,-4.2986,-4.3042,-4.3907,-4.4589,-4.5048,-4.603,-4.7197,-4.8539,-4.8539,-4.8787,-4.921,-4.919,-4.9435,-4.9824,-4.9824,-5.0383,-5.1259,-5.1708,-5.1887,-5.1947,-5.2396,-5.2546,-5.2546,-5.2546,-5.2546,-5.2546,-5.2546,-5.1947,-5.1319,-5.1768,-5.2217,-5.2456,-5.2007,-5.1887,-5.1768,-5.1319,-5.087,-5.0555,-5.0555,-5.0239,-4.963,-4.8688,-4.8539,-4.7909,-4.603,-4.5289,-4.4671,-4.3742,-4.3295,-4.2986,-4.2986,-4.2986,-4.2986,-4.2986,-4.2986,-4.2986,-4.2986,-4.2986,-4.2986,-4.2986,-4.2986,-4.2986,-4.2986,-4.2986,-4.2986,-4.2986,-4.2986,-4.2986,-4.2986,-4.2986,-4.2886,-4.2766,-4.2766,-4.261,-2.433,-2.5493,-2.5912,-2.6264,-2.4004,-2.1594,-2.1295,-1.9032,-1.6948,-1.6575,-1.65,-1.65,-1.65,-1.6999,-1.7752,-1.8832,-2.0413,-2.2372,-2.4883,-2.9051,-3.229,-3.3545,-3.7663,-4.04,-4.04,-4.1957,-4.2986,-4.2986,-4.2986,-4.2986,-4.2986,-4.2986,-4.2986,-4.2986,-4.2986,-4.2986,-4.2986,-4.2986,-4.2986,-4.3042,-4.4372,-4.5316,-4.582,-4.7248,-4.8638,-4.9921,-4.9921,-4.9921,0.0,-4.9386,-4.9629,-5.0301,-4.9783,-5.0545,-5.2007,-5.2426,-5.2576,-5.2636,-5.3025,-5.3174,-5.3174,-5.3174,-5.3174,-5.3174,-5.3174,-5.2606,-5.2037,-5.2456,-5.2875,-5.3084,-5.2665,-5.2576,-5.2456,-5.2067,-5.1535,-5.1168,-5.1168,-5.075,-5.0159,-4.9301,-4.9149,-4.864,-4.6865,-4.6544,-4.6276,-4.5461,-4.5297,-4.5297,-4.5297,-4.5297,-4.5297,-4.5297,-4.5297,-4.5077,-4.4519,-4.3579,-4.2986,-4.2986,-4.2986,-4.2986,-4.2986,-4.2986,-4.2986,-4.2986,-4.2986,-4.2986,-4.2986,-4.2986,-4.2986,-4.2986,-4.2986,-4.2986,0.0,-2.2698,-2.4299,-2.4274,-2.2347,-2.044,-2.0415,-1.838,0.0,-1.65,-1.65,-1.65,-1.655,-1.7024,-1.7752,-1.8882,-2.0439,-2.2849,-2.6741,-2.9001,-3.1411,-3.4525,-3.7362,-3.9045,-3.8919,-4.1408,-4.2986,-4.2986,-4.2986,-4.2986,-4.2986,-4.2986,-4.2986,-4.2986,-4.2986,-4.2986,-4.2986,-4.2986,-4.2986,-4.3042,-4.4398,-4.5741,-4.6991,-4.8489,-4.9873,-5.1058,-5.1182,-5.1135,-5.1024,-4.9786,-5.0389,-5.2007,-5.0726,-5.1452,-5.3204,-5.3234,-5.3264,-5.3264,-5.3324,-5.3324,-5.3324,-5.3324,-5.3324,-5.3324,-5.3324,-5.3294,-5.3264,-5.3264,-5.3294,-5.3324,-5.3264,-5.3264,-5.3234,-5.3204,-5.22,-5.1237,-5.1237,-5.0261,-4.937,-4.937,-4.937,-4.937,-4.9264,-4.9264,-4.9211,-4.9105,-4.9105,-4.9105,-4.9105,-4.9105,-4.9105,-4.9105,-4.9105,-4.8516,-4.7039,-4.4652,-4.3255,-4.3087,-4.3087,-4.3087,-4.3087,-4.3087,-4.3087,-4.3087,-4.3087,-4.3087,-4.3087,-4.3087,-4.3062,-4.3037,-4.3037,-4.3011,-1.7478,0.0,-1.966,-1.9233,-1.8655,-1.8052,0.0,-1.6999,-1.65,-1.65,-1.65,-1.6626,-1.7099,-1.7297,-1.7901,-1.9384,-2.0665,-2.2849,-2.6741,-3.1678,-3.5299,-3.6458,-3.9069,-4.0249,-3.9045,-4.1408,-4.2986,-4.2986,-4.2986,-4.2986,-4.2986,-4.2986,-4.2986,-4.2986,-4.2986,-4.2986,-4.2986,-4.2986,-4.2986,-4.3042,-4.4372,-4.5209,-4.5555,-4.8088,-4.9357,-4.9727,-5.0745,-5.0899,-5.0435,-5.006,-5.0535,-5.1337,-5.1034,-5.1833,-5.3234,-5.3773,-5.3952,-5.4042,-5.4551,-5.473,-5.473,-5.473,-5.473,-5.473,-5.473,-5.4371,-5.3952,-5.3952,-5.4311,-5.461,-5.4102,-5.3952,-5.3832,-5.3294,-5.2949,-5.2704,-5.2704,-5.2477,-5.2229,-5.2229,-5.2229,-5.19,-5.0829,-5.0623,-5.0261,-4.9264,-4.9105,-4.9105,-4.9105,-4.9105,-4.9105,-4.9105,-4.9105,-4.8516,-4.7039,-4.6356,-4.5473,-4.4299,-4.4242,-4.4242,-4.4242,-4.4242,-4.4242,-4.4242,-4.4242,-4.4242,-4.4242,-4.4242,-4.4016,-4.3614,-4.3614,-4.3388,-1.65,-1.6951,-1.7328,-1.7049,-1.6974,-1.6898,-1.6575,-1.65,-1.65,-1.65,-1.6722,-1.6999,-1.7348,-1.8832,-2.0137,-2.0514,-2.3653,-2.7118,-3.0256,-3.3545,-3.6081,-3.7412,-3.912,-4.0249,-4.0427,-4.1957,-4.2986,-4.2986,-4.2986,-4.2986,-4.2986,-4.2986,-4.2986,-4.2986,-4.2986,-4.2986,-4.2986,-4.2986,-4.2986,-4.3042,-4.4372,-4.5342,-4.603,-4.8239,-4.9678,-5.0632,-5.1363,-5.1624,-5.1502,-5.0875,-5.1352,-5.2469,-5.1802,-5.2616,-5.4162,-5.4521,-5.467,-5.47,-5.5059,-5.5179,-5.5179,-5.5179,-5.5179,-5.5179,-5.5179,-5.494,-5.467,-5.467,-5.491,-5.5119,-5.476,-5.467,-5.4551,-5.4192,-5.4102,-5.4102,-5.4102,-5.4102,-5.4102,-5.4102,-5.3544,-5.3061,-5.301,-5.1845,-5.0925,-5.0901,-5.0314,-4.98,-4.98,-4.98,-4.98,-4.98,-4.98,-4.9228,-4.7778,-4.7665,-4.6773,-4.4702,-4.4618,-4.4618,-4.4618,-4.4618,-4.4618,-4.4618,-4.4618,-4.4618,-4.4618,-4.4618,-4.4468,-4.4192,-4.4192,-4.4016,-1.65,-1.6801,-1.7027,-1.66,-1.65,-1.6525,-1.66,-1.6647,-1.6651,-1.6726,-1.7174,-1.77,-1.8202,-2.074,-2.2619,-2.2297,-2.7469,-3.2315,-3.465,-3.5253,-3.6107,-3.7814,-3.8743,-3.9923,-4.1659,-4.2509,-4.2986,-4.2986,-4.2986,-4.2986,-4.2986,-4.2986,-4.2986,-4.2986,-4.2986,-4.2986,-4.2986,-4.2986,-4.2986,-4.3042,-4.4372,-4.5661,-4.6974,-4.8631,-5.032,-5.2018,-5.224,-5.2725,-5.3275,-5.2046,-5.2658,-5.4242,-5.3063,-5.362,-5.5179,-5.5179,-5.5179,-5.5179,-5.5179,-5.5179,-5.5179,-5.5179,-5.5179,-5.5179,-5.5179,-5.5179,-5.5179,-5.5179,-5.5179,-5.5179,-5.5179,-5.5179,-5.5179,-5.5179,-5.5179,-5.5179,-5.5179,-5.5179,-5.5179,-5.5179,-5.42,-5.3756,-5.4976,-5.3093,-5.1835,-5.3121,-5.2213,-5.1372,-5.1372,-5.1372,-5.1372,-5.1372,-5.1372,-5.0768,-4.9308,-4.9194,-4.8167,-4.5681,-4.5102,-4.4895,-4.4895,-4.4895,-4.4895,-4.4895,-4.4895,-4.4895,-4.4895,-4.4895,-4.4844,-4.4744,-4.4744,-4.4719,-1.65,-1.8229,-1.9485,-1.7099,-1.65,-1.6626,-1.7149,-1.725,-1.7375,-1.7852,-1.8003,-1.8932,-2.1716,-2.1594,-2.2099,-2.5217,-2.9302,-3.3018,-3.5776,-3.7739,-3.8693,-3.809,-3.9747,-4.0727,-4.0124,-4.1831,-4.2986,-4.2986,-4.2986,-4.2986,-4.2986,-4.2986,-4.2986,-4.2986,-4.2986,-4.2986,-4.2986,-4.2986,-4.2986,-4.3042,-4.4372,-4.5393,-4.6249,-4.8878,-5.0493,-5.1323,-5.2555,-5.3414,-5.4042,-5.3844,-5.4231,-5.5029,-5.4798,-5.4938,-5.5179,-5.5179,-5.5179,-5.5179,-5.5179,-5.5179,-5.5179,-5.5179,-5.5179,-5.5179,-5.5179,-5.5179,-5.5179,-5.5179,-5.5179,-5.5179,-5.5179,-5.5179,-5.5179,-5.5179,-5.5179,-5.5179,-5.5179,-5.5179,-5.5179,-5.5179,-5.5027,-5.4926,-5.5128,-5.4794,-5.456,-5.4845,-5.4692,-5.4509,-5.4509,-5.4509,-5.4509,-5.4509,-5.4509,-5.3912,-5.2402,-5.2295,-5.1588,-4.9883,-4.7425,-4.605,-4.605,-4.605,-4.605,-4.605,-4.605,-4.605,-4.605,-4.605,-4.5824,-4.5347,-4.5347,-4.5095,-1.65,-1.7677,-1.8881,-1.8781,-1.9886,-2.1039,-2.1343,-2.1619,-2.1543,-2.0614,-2.0916,-2.1895,-2.3672,-2.4883,-2.7404,-3.2742,-3.3345,-3.4098,-3.686,-3.7362,-3.7713,-3.8391,-3.9647,-4.0727,-4.1404,-4.2384,-4.2986,-4.2986,-4.2986,-4.2986,-4.2986,-4.2986,-4.2986,-4.2986,-4.2986,-4.2986,-4.2986,-4.3263,-4.3263,-4.3042,-4.4739,-4.6115,-4.7241,-4.9614,-5.1461,-5.2809,-5.3466,-5.4132,-5.473,-5.473,-5.491,-5.5179,-5.5179,-5.5179,-5.5179,-5.5179,-5.5179,-5.5179,-5.5179,-5.5179,-5.5179,-5.5179,-5.5179,-5.5179,-5.5179,-5.5179,-5.5179,-5.5179,-5.5179,-5.5179,-5.5179,-5.5179,-5.5179,-5.5179,-5.5179,-5.5179,-5.5179,-5.5179,-5.5179,-5.5179,-5.459,-5.4252,-5.5078,-5.3831,-5.3069,-5.3912,-5.3279,-5.2775,-5.2775,-5.2775,-5.2775,-5.2775,-5.2775,-5.2159,-5.0685,-5.0574,-5.024,-4.9565,-4.9022,-4.7951,-4.6361,-4.7087,-4.7475,-4.7475,-4.6695,-4.6695,-4.7475,-4.6695,-4.6175,-4.5924,-4.5924,-4.5799,-1.65,-1.74,-1.8806,-2.0616,-2.2272,-2.3747,-2.4933,-2.5209,-2.4958,-2.4054,-2.4456,-2.5234,-2.6189,-2.8674,-3.2265,-3.7487,-3.6182,-3.5403,-3.804,-3.7412,-3.7387,-3.9245,-3.9923,-4.0978,-4.2811,-4.2986,-4.2986,-4.2986,-4.2986,-4.2986,-4.2986,-4.2986,-4.2986,-4.2986,-4.2986,-4.326,-4.3695,-4.4128,-4.4128,-4.3751,-4.5731,-4.7486,-4.913,-5.0982,-5.2767,-5.4431,-5.4431,-5.473,-5.5179,-5.5179,-5.5179,-5.5179,-5.5179,-5.5179,-5.5179,-5.5179,-5.5179,-5.5179,-5.5179,-5.5179,-5.5179,-5.5179,-5.5179,-5.5179,-5.5179,-5.5179,-5.5179,-5.5179,-5.5179,-5.5179,-5.5179,-5.5179,-5.5179,-5.5179,-5.5179,-5.5179,-5.5179,-5.5179,-5.5179,-5.5179,-5.4304,-5.386,-5.5027,-5.3279,-5.2159,-5.3361,-5.2509,-5.1753,-5.1753,-5.1753,-5.1753,-5.1753,-5.1753,-5.1181,-4.9705,-4.9251,-4.8851,-4.8532,-4.9224,-4.8678,-4.6421,-4.7357,-4.7977,-4.7977,-4.6874,-4.6874,-4.7977,-4.6874,-4.6301,-4.6301,-4.6301,-4.6301,-1.65,-1.8807,-2.1343,-2.202,-2.0788,-2.0638,-2.5317,-2.5184,-2.4933,-2.7809,-2.8097,-2.8448,-3.0532,-3.1964,-3.3169,-3.4148,-3.5403,-3.701,-3.9245,-3.9898,-4.04,-4.1025,-4.1656,-4.2288,-4.2911,-4.2986,-4.2986,-4.2986,-4.2986,-4.2986,-4.2986,-4.2986,-4.2986,-4.2986,-4.2986,-4.3913,-4.5785,-4.5838,-4.5838,-4.5812,-4.7757,-4.9777,-5.184,-5.3343,-5.4391,-5.5119,-5.5119,-5.5149,-5.5179,-5.5179,-5.5179,-5.5179,-5.5179,-5.5179,-5.5179,-5.5179,-5.5179,-5.5179,-5.5179,-5.5179,-5.5179,-5.5179,-5.5179,-5.5179,-5.5179,-5.5179,-5.5179,-5.5179,-5.5179,-5.5179,-5.5179,-5.5179,-5.5179,-5.5179,-5.5179,-5.5179,-5.5179,-5.5179,-5.5179,-5.5179,-5.5128,-5.5078,-5.5179,-5.5027,-5.4896,-5.5027,-5.4976,-5.4845,-5.4845,-5.4845,-5.4845,-5.4845,-5.4845,-5.4304,-5.2804,-5.1372,-4.9932,-4.8589,-4.7324,-4.6541,-4.6301,-4.6421,-4.6481,-4.6481,-4.6361,-4.6361,-4.6481,-4.6361,-4.6301,-4.6301,-4.6301,-4.6301,-1.6948,-1.9484,-2.2221,-2.3125,-2.3502,-2.4714,-2.8661,-2.9302,-2.9277,-2.9854,-3.0909,-3.1863,-3.234,-3.5052,-3.691,-3.6081,-3.7362,-3.8868,-4.0049,-4.0676,-4.1229,-4.1781,-4.2333,-4.2816,-4.2961,-4.2986,-4.2986,-4.2986,-4.2986,-4.2986,-4.2986,-4.2986,-4.2986,-4.2986,-4.4185,-4.5216,-4.6002,-4.7622,-4.8896,-4.983,-5.0529,-5.1309,-5.2139,-5.3997,-5.497,-5.5179,-5.5179,-5.5179,-5.5179,-5.5179,-5.5179,-5.5179,-5.5179,-5.5179,-5.5179,-5.5179,-5.5179,-5.5179,-5.5179,-5.5179,-5.5179,-5.5179,-5.5179,-5.5179,-5.5179,-5.5179,-5.5179,-5.5179,-5.5179,-5.5179,-5.5179,-5.5179,-5.5179,-5.5179,-5.5179,-5.5179,-5.5179,-5.5179,-5.5179,-5.5179,-5.5179,-5.5179,-5.5179,-5.5179,-5.5179,-5.5179,-5.5179,-5.5179,-5.5179,-5.5179,-5.5179,-5.5179,-5.4355,-5.3623,-5.3069,-5.1618,-5.0491,-4.9876,-4.9338,-4.8242,-4.6361,-4.7205,-4.8068,-4.8996,-4.8126,-4.8589,-5.0463,-4.9508,-4.8563,-4.7652,-4.7652,-4.7205,-1.8328,-2.0439,-2.2945,-2.4632,-2.5644,-2.7278,-3.126,-3.2064,-3.219,-3.3043,-3.4274,-3.4977,-3.4293,-3.6885,-3.8718,-3.7387,-3.8592,-3.9898,-4.045,-4.0949,-4.153,-4.2137,-4.269,-4.2986,-4.2986,-4.2986,-4.2986,-4.2986,-4.2986,-4.2986,-4.2986,-4.2986,-4.3062,-4.3237,-4.5022,-4.6187,-4.6502,-4.8736,-5.0722,-5.2405,-5.2405,-5.2613,-5.3136,-5.4535,-5.5179,-5.5179,-5.5179,-5.5179,-5.5179,-5.5179,-5.5179,-5.5179,-5.5179,-5.5179,-5.5179,-5.5179,-5.5179,-5.5179,-5.5179,-5.5179,-5.5179,-5.5179,-5.5179,-5.5179,-5.5179,-5.5179,-5.5179,-5.5179,-5.5179,-5.5179,-5.5179,-5.5179,-5.5179,-5.5179,-5.5179,-5.5179,-5.5179,-5.5179,-5.5179,-5.5179,-5.5179,-5.5179,-5.5179,-5.5179,-5.5179,-5.5179,-5.5179,-5.5179,-5.5179,-5.5179,-5.5179,-5.5179,-5.3466,-5.2266,-5.2266,-5.0435,-4.9338,-4.9338,-4.9338,-4.8851,-4.7743,-4.8678,-4.9678,-5.0713,-4.9734,-4.996,-5.1592,-5.0491,-4.9224,-4.7802,-4.7802,-4.7265,-2.0666,-2.187,-2.3797,-2.659,-2.6465,-2.7118,-3.2667,-3.2616,-3.2842,-3.7888,-3.8417,-3.7663,-3.6606,-3.7287,-3.7839,-3.7287,-3.8592,-3.9898,-4.045,-4.0949,-4.1555,-4.2162,-4.2715,-4.2986,-4.2986,-4.2986,-4.2986,-4.2986,-4.2986,-4.2986,-4.2986,-4.2986,-4.3237,-4.379,-4.523,-4.6528,-4.7661,-4.9172,-5.0946,-5.3016,-5.3016,-5.3808,-5.5179,-5.5179,-5.5179,-5.5179,-5.5179,-5.5179,-5.5179,-5.5179,-5.5179,-5.5179,-5.5179,-5.5179,-5.5179,-5.5179,-5.5179,-5.5179,-5.5179,-5.5179,-5.5179,-5.5179,-5.5179,-5.5179,-5.5179,-5.5179,-5.5179,-5.5179,-5.5179,-5.5179,-5.5179,-5.5179,-5.5179,-5.5179,-5.5179,-5.5179,-5.5179,-5.5179,-5.5179,-5.5179,-5.5179,-5.5179,-5.5179,-5.5179,-5.5179,-5.5179,-5.5179,-5.5179,-5.5179,-5.5179,-5.5179,-5.5179,-5.248,-5.0768,-5.0768,-4.8068,-4.6361,-4.6361,-4.6361,-4.7684,-5.0546,-5.0657,-5.0657,-5.0713,-5.0713,-4.9932,-4.8532,-4.8532,-4.7769,-4.6301,-4.6301,-4.6301,-1.9309,-2.2422,-2.5695,-2.6524,-2.9139,-3.2064,-3.4455,-3.4073,-3.4248,-3.814,-3.809,-3.7337,-3.701,-3.8165,-3.8743,-3.7412,-3.8919,-4.0475,-4.0974,-4.158,-4.2108,-4.2715,-4.2886,-4.2986,-4.2986,-4.2986,-4.2986,-4.2986,-4.2986,-4.2986,-4.2986,-4.3338,-4.3639,-4.379,-4.6009,-4.7374,-4.7661,-5.0599,-5.2391,-5.3016,-5.4068,-5.4794,-5.5179,-5.5179,-5.5179,-5.5179,-5.5179,-5.5179,-5.5179,-5.5179,-5.5179,-5.5179,-5.5179,-5.5179,-5.5179,-5.5179,-5.5179,-5.5179,-5.5179,-5.5179,-5.5179,-5.5179,-5.5179,-5.5179,-5.5179,-5.5179,-5.5179,-5.5179,-5.5179,-5.5179,-5.5179,-5.5179,-5.5179,-5.5179,-5.5179,-5.5179,-5.5179,-5.5179,-5.5179,-5.5179,-5.5179,-5.5179,-5.5179,-5.5179,-5.5179,-5.5179,-5.5179,-5.5179,-5.5179,-5.4304,-5.4068,-5.5078,-5.3466,-5.2722,-5.3779,-5.3069,-5.2591,-5.2591,-5.2591,-5.1071,-4.7743,-4.7626,-4.8068,-4.9137,-4.9137,-4.9451,-5.0045,-5.0045,-4.9281,-4.786,-4.786,-4.7324,-2.2523,-2.5159,-2.763,-2.9578,-3.1989,-3.4424,-3.6408,-3.6533,-3.6784,-3.8793,-3.8843,-3.8442,-3.8216,-3.9195,-3.9622,-3.8391,-3.9496,-4.0701,-4.12,-4.1806,-4.2414,-4.2911,-4.2986,-4.2986,-4.2986,-4.2986,-4.2986,-4.2986,-4.2986,-4.3341,-4.413,-4.3928,-4.4276,-4.5309,-4.6865,-4.7793,-4.8004,-5.0712,-5.2402,-5.3016,-5.3912,-5.4641,-5.5179,-5.5179,-5.5179,-5.5179,-5.5179,-5.5179,-5.5179,-5.5179,-5.5179,-5.5179,-5.5179,-5.5179,-5.5179,-5.5179,-5.5179,-5.5179,-5.5179,-5.5179,-5.5179,-5.5179,-5.5179,-5.5179,-5.5179,-5.5179,-5.5179,-5.5179,-5.5179,-5.5179,-5.5179,-5.5179,-5.5179,-5.5179,-5.5179,-5.5179,-5.5179,-5.5179,-5.5179,-5.5179,-5.5179,-5.5179,-5.5179,-5.5179,-5.5179,-5.5179,-5.5179,-5.5179,-5.5179,-5.4406,-5.42,-5.5128,-5.4065,-5.3709,-5.4605,-5.4393,-5.4221,-5.4221,-5.4221,-5.2597,-4.8983,-4.9492,-5.024,-5.1126,-5.1126,-5.1291,-5.1618,-5.1618,-5.0574,-4.8474,-4.8474,-4.771,-2.7795,-2.8775,-2.9478,-3.4179,-3.4876,-3.5152,-3.8241,-3.932,-3.9697,-3.9697,-4.0099,-4.03,-3.9798,-4.0099,-4.0275,-3.9772,-4.0199,-4.0752,-4.12,-4.1856,-4.2464,-4.2911,-4.2986,-4.2986,-4.2986,-4.2986,-4.2986,-4.2986,-4.3037,-4.3853,-4.5728,-4.4633,-4.5024,-4.7407,-4.7683,-4.8004,-4.8474,-5.0101,-5.1618,-5.3016,-5.3121,-5.3912,-5.5179,-5.5179,-5.5179,-5.5179,-5.5179,-5.5179,-5.5179,-5.5179,-5.5179,-5.5179,-5.5179,-5.5179,-5.5179,-5.5179,-5.5179,-5.5179,-5.5179,-5.5179,-5.5179,-5.5179,-5.5179,-5.5179,-5.5179,-5.5179,-5.5179,-5.5179,-5.5179,-5.5179,-5.5179,-5.5179,-5.5179,-5.5179,-5.5179,-5.5179,-5.5179,-5.5179,-5.5179,-5.5179,-5.5179,-5.5179,-5.5179,-5.5179,-5.5179,-5.5179,-5.5239,-5.5269,-5.5269,-5.5227,-5.5206,-5.5359,-5.4504,-5.405,-5.4157,-5.3415,-5.2906,-5.2906,-5.2735,-5.2678,-5.2678,-5.4144,-5.4921,-5.4768,-5.4738,-5.4036,-5.2519,-5.2519,-5.11,-4.8379,-4.8379,-4.7645,-2.3973,-2.7233,-3.0758,-3.3545,-3.6031,-3.809,-3.9245,-3.9622,-3.9697,-3.9697,-3.9798,-3.9848,-3.9722,-3.9798,-3.9823,-3.9722,-4.0526,-4.115,-4.1275,-4.2183,-4.2836,-4.2961,-4.2986,-4.2986,-4.2986,-4.2986,-4.2986,-4.2986,-4.3388,-4.3834,-4.4275,-4.4792,-4.5397,-4.5977,-4.7502,-4.84,-4.8474,-5.1181,-5.2669,-5.3016,-5.42,-5.4896,-5.5179,-5.5179,-5.5179,-5.5179,-5.5179,-5.5179,-5.5179,-5.5179,-5.5179,-5.5179,-5.5179,-5.5179,-5.5179,-5.5179,-5.5179,-5.5179,-5.5179,-5.5179,-5.5179,-5.5179,-5.5179,-5.5179,-5.5179,-5.5179,-5.5179,-5.5179,-5.5179,-5.5179,-5.5179,-5.5179,-5.5179,-5.5179,-5.5179,-5.5179,-5.5179,-5.5179,-5.5179,-5.5179,-5.5179,-5.5179,-5.5179,-5.5179,-5.5179,-5.5179,-5.5628,-5.5957,-5.5957,-5.5377,-5.5406,-5.6571,-5.5523,-5.5122,-5.6301,-5.5159,-5.4339,-5.4339,-5.319,-5.2449,-5.2449,-5.2995,-5.2602,-5.1374,-5.1374,-5.0559,-4.9006,-4.9006,-4.8438,-4.7415,-4.7415,-4.7005,-2.5008,-2.7444,-2.9729,-3.4324,-3.6985,-3.8668,-3.9496,-3.9697,-3.9697,-3.9697,-3.9697,-3.9697,-3.9697,-3.9697,-3.9772,-4.0049,-4.0802,-4.1376,-4.1681,-4.2459,-4.2986,-4.2986,-4.2986,-4.2986,-4.2986,-4.2986,-4.2986,-4.2986,-4.3489,-4.4232,-4.5222,-4.6103,-4.6985,-4.7942,-4.9033,-4.9565,-4.9565,-5.1863,-5.3016,-5.3016,-5.4509,-5.5179,-5.5179,-5.5179,-5.5179,-5.5179,-5.5179,-5.5179,-5.5179,-5.5179,-5.5179,-5.5179,-5.5179,-5.5179,-5.5179,-5.5179,-5.5179,-5.5179,-5.5179,-5.5179,-5.5179,-5.5179,-5.5179,-5.5179,-5.5179,-5.5179,-5.5179,-5.5179,-5.5179,-5.5269,-5.5598,-5.5658,-5.5748,-5.6017,-5.5628,-5.5179,-5.5179,-5.5179,-5.5269,-5.5598,-5.5658,-5.5748,-5.6047,-5.6107,-5.6107,-5.6107,-5.6406,-5.6615,-5.6615,-5.5611,-5.5409,-5.6937,-5.6025,-5.5655,-5.6393,-5.674,-5.6505,-5.5756,-5.5645,-5.5616,-5.5616,-5.497,-5.3548,-5.1346,-5.1287,-5.1287,-5.1201,-5.04,-4.9909,-4.968,-4.8954,-4.8039,-2.6414,-2.8072,-2.9214,-3.5705,-3.7739,-3.8417,-3.9446,-3.9697,-3.9697,-3.9697,-3.9697,-3.9697,-3.9697,-3.9697,-3.9873,-4.0425,-4.0924,-4.153,-4.2137,-4.269,-4.2986,-4.2986,-4.2986,-4.2986,-4.2986,-4.2986,-4.3123,-4.3478,-4.3784,-4.4826,-4.6922,-4.7559,-4.8572,-5.0241,-5.0823,-5.1098,-5.1098,-5.2615,-5.3361,-5.3413,-5.4641,-5.5179,-5.5179,-5.5179,-5.5179,-5.5179,-5.5179,-5.5179,-5.5179,-5.5179,-5.5179,-5.5179,-5.5179,-5.5179,-5.5179,-5.5179,-5.5179,-5.5179,-5.5179,-5.5179,-5.5179,-5.5179,-5.5179,-5.5209,-5.5329,-5.5359,-5.5388,-5.5478,-5.5508,-5.5658,-5.6196,-5.6346,-5.6466,-5.6974,-5.6286,-5.5508,-5.5508,-5.5508,-5.5688,-5.6226,-5.6346,-5.6496,-5.7004,-5.7094,-5.7094,-5.7094,-5.7184,-5.7274,-5.7274,-5.6241,-5.603,-5.7318,-5.6799,-5.6406,-5.6406,-5.7786,-5.8081,-5.6792,-5.7693,-5.8166,-5.7915,-5.6593,-5.4648,-5.1964,-5.2171,-5.2982,-5.4289,-5.2982,-5.2174,-5.1863,-5.0857,-4.9473,-2.2598,-2.767,-3.3119,-3.6935,-3.8341,-3.8919,-3.9546,-3.9697,-3.9697,-3.9697,-3.9697,-3.9697,-3.9697,-3.9697,-3.9873,-4.0425,-4.0924,-4.153,-4.2137,-4.269,-4.2986,-4.2986,-4.2986,-4.2986,-4.2986,-4.2986,-4.3695,-4.5488,-4.4883,-4.5413,-4.7472,-4.8109,-4.851,-4.882,-5.1345,-5.2669,-5.2669,-5.4171,-5.4926,-5.4926,-5.5128,-5.5179,-5.5179,-5.5179,-5.5179,-5.5179,-5.5179,-5.5179,-5.5179,-5.5179,-5.5179,-5.5179,-5.5179,-5.5179,-5.5179,-5.5179,-5.5179,-5.5179,-5.5179,-5.5179,-5.5179,-5.5179,-5.5179,-5.5299,-5.5867,-5.6098,-5.6166,-5.6705,-5.6855,-5.6855,-5.6944,-5.6974,-5.7004,-5.7064,-5.6974,-5.6855,-5.6855,-5.6855,-5.6855,-5.6944,-5.6974,-5.7004,-5.7094,-5.7094,-5.7094,-5.7094,-5.7603,-5.7992,-5.7992,-5.831,-5.8614,-5.883,-5.8757,-5.8679,-5.8679,-5.7634,-5.6905,-5.6736,-5.5618,-5.4386,-5.2978,-5.2761,-5.1786,-5.0041,-5.1345,-5.2154,-5.2398,-5.2154,-5.1083,-4.9302,-5.0524,-4.9897,-2.2849,-2.7846,-3.2566,-3.6182,-3.7739,-3.8542,-3.9094,-3.9471,-3.9697,-3.9697,-3.9697,-3.9697,-3.9697,-3.9697,-3.9973,-4.0774,-4.1125,-4.163,-4.2484,-4.2866,-4.2986,-4.2986,-4.2986,-4.2986,-4.2986,-4.2986,-4.3832,-4.5866,-4.5099,-4.5891,-4.8758,-4.9465,-4.9734,-4.9734,-5.2669,-5.3413,-5.1727,-5.4016,-5.5179,-5.5179,-5.5179,-5.5179,-5.5179,-5.5179,-5.5179,-5.5179,-5.5179,-5.5179,-5.5179,-5.5179,-5.5179,-5.5179,-5.5179,-5.5179,-5.5179,-5.5179,-5.5179,-5.5239,-5.5598,-5.5748,-5.5807,-5.6137,-5.6256,-5.6316,-5.6585,-5.6675,-5.6735,-5.7004,-5.7094,-5.7184,-5.7573,-5.7663,-5.7752,-5.8141,-5.8231,-5.8231,-5.8231,-5.7633,-5.7214,-5.7603,-5.7962,-5.8231,-5.8231,-5.8231,-5.8231,-5.8231,-5.8471,-5.868,-5.868,-5.8153,-5.8081,-5.8991,-5.8276,-5.7384,-5.6508,-5.6622,-5.5964,-5.4181,-5.4268,-5.4089,-5.3368,-5.2455,-5.2112,-5.2297,-5.1205,-5.1079,-5.1989,-5.1079,-5.0661,-5.0592,-5.0404,-4.9798,-2.2728,-2.649,-2.9779,-3.4198,-3.6031,-3.7086,-3.8366,-3.9069,-3.9496,-3.9496,-3.9597,-3.9697,-3.9697,-3.9697,-4.0049,-4.11,-4.1275,-4.1731,-4.2811,-4.2986,-4.2986,-4.2986,-4.2986,-4.2986,-4.2986,-4.3295,-4.4245,-4.6077,-4.5572,-4.66,-4.994,-5.0464,-5.0878,-5.1263,-5.3831,-5.4119,-5.1889,-5.4068,-5.5179,-5.5179,-5.5179,-5.5179,-5.5179,-5.5179,-5.5269,-5.5418,-5.5269,-5.5179,-5.5209,-5.5359,-5.5448,-5.5448,-5.5598,-5.5688,-5.5688,-5.5688,-5.5688,-5.5748,-5.6226,-5.6406,-5.6466,-5.6944,-5.7094,-5.7124,-5.7304,-5.7363,-5.7393,-5.7543,-5.7603,-5.7723,-5.8231,-5.8381,-5.8501,-5.8979,-5.9099,-5.9099,-5.9099,-5.8321,-5.7752,-5.8291,-5.877,-5.9099,-5.9099,-5.9099,-5.9099,-5.9099,-5.9099,-5.9099,-5.9099,-5.7664,-5.7328,-5.8936,-5.7664,-5.6251,-5.5094,-5.6022,-5.5532,-5.2761,-5.373,-5.4236,-5.379,-5.2639,-5.2332,-5.3126,-5.079,-5.0372,-5.1989,-5.079,-5.06,-5.1393,-5.06,-5.0014,-2.0138,-2.2196,-2.4926,-3.0934,-3.2893,-3.4173,-3.7337,-3.8492,-3.8969,-3.8969,-3.932,-3.9697,-3.9697,-3.9697,-4.0049,-4.11,-4.1275,-4.1731,-4.2811,-4.2986,-4.2986,-4.2986,-4.2986,-4.2986,-4.2986,-4.418,-4.5415,-4.674,-4.6708,-4.7798,-5.0547,-5.0685,-5.1372,-5.2857,-5.4406,-5.5128,-5.4976,-5.5128,-5.5179,-5.5179,-5.5179,-5.5179,-5.5179,-5.5179,-5.5538,-5.6077,-5.5478,-5.5179,-5.5239,-5.5867,-5.6188,-5.6166,-5.6765,-5.7004,-5.7004,-5.7004,-5.7004,-5.7004,-5.7034,-5.7034,-5.7064,-5.7094,-5.7094,-5.7214,-5.7872,-5.8082,-5.8201,-5.883,-5.9009,-5.9009,-5.9039,-5.9069,-5.9069,-5.9099,-5.9099,-5.9099,-5.9099,-5.9039,-5.9009,-5.9039,-5.9069,-5.9099,-5.9099,-5.9099,-5.9099,-5.9099,-5.9099,-5.9099,-5.9099,-5.7664,-5.7328,-5.8936,-5.7664,-5.665,-5.6622,-5.665,-5.6022,-5.4386,-5.4327,-5.373,-5.2209,-5.2024,-5.133,-4.9912,-4.9719,-5.0372,-5.1989,-5.1927,-5.1142,-4.9783,-5.1205,-5.1079,-1.9635,-2.1119,-2.2749,-2.7795,-3.0809,-3.2918,-3.45,-3.6935,-3.8919,-3.8919,-3.932,-3.9697,-3.9697,-3.9697,-4.0049,-4.11,-4.1275,-4.1731,-4.2811,-4.2986,-4.2986,-4.2986,-4.2986,-4.2986,-4.2986,-4.4209,-4.5523,-4.6766,-4.7647,-4.928,-5.2048,-5.2187,-5.2455,-5.2963,-5.4406,-5.5179,-5.5179,-5.5179,-5.5179,-5.5179,-5.5179,-5.5418,-5.5807,-5.5807,-5.6166,-5.6735,-5.6526,-5.6406,-5.6436,-5.6675,-5.6765,-5.6795,-5.7004,-5.7094,-5.7094,-5.7094,-5.7094,-5.7154,-5.7603,-5.7752,-5.7812,-5.8231,-5.8381,-5.8441,-5.868,-5.874,-5.88,-5.9039,-5.9099,-5.9099,-5.9099,-5.9099,-5.9099,-5.9099,-5.9099,-5.9099,-5.9099,-5.9099,-5.9099,-5.9099,-5.9099,-5.9099,-5.9099,-5.9099,-5.9099,-5.9099,-5.9099,-5.9099,-5.9099,-5.8634,-5.844,-5.9045,-5.858,-5.7804,-5.6792,-5.5791,-5.4564,-5.2944,-5.2883,-5.2578,-5.2024,-5.3005,-5.2761,-5.1142,-5.1142,-5.0916,-5.0436,-5.0436,-5.0142,-4.959,-5.0181,-5.0142,-1.7924,-1.9007,-2.0289,-2.4362,-2.7268,-2.9754,-3.1989,-3.4951,-3.7462,-3.8391,-3.917,-3.9697,-3.9697,-3.9697,-4.0049,-4.11,-4.1275,-4.1731,-4.2811,-4.2986,-4.2986,-4.2986,-4.2986,-4.2986,-4.2986,-4.4643,-4.5847,-4.6122,-4.8273,-5.035,-5.2156,-5.2751,-5.3256,-5.3727,-5.4692,-5.5179,-5.5179,-5.5179,-5.5299,-5.5538,-5.5538,-5.5867,-5.6466,-5.6466,-5.6825,-5.7453,-5.7453,-5.7304,-5.7124,-5.7334,-5.7453,-5.7453,-5.7693,-5.7782,-5.7782,-5.7782,-5.7782,-5.7842,-5.8291,-5.8471,-5.853,-5.8949,-5.9099,-5.9099,-5.9099,-5.9099,-5.9099,-5.9099,-5.9099,-5.9099,-5.9099,-5.9099,-5.9099,-5.9099,-5.9099,-5.9099,-5.9099,-5.9099,-5.9099,-5.9099,-5.9099,-5.9099,-5.9099,-5.9099,-5.9099,-5.9099,-5.9099,-5.9099,-5.9099,-5.8634,-5.8495,-5.9045,-5.8634,-5.786,-5.6792,-5.5269,-5.373,-5.2086,-5.1492,-5.1205,-5.1205,-5.2236,-5.2297,-5.1205,-5.1205,-5.0664,-4.959,-4.959,-4.959,-4.959,-4.959,-4.959,0.0,0.0,0.0,-2.0539,-2.2221,-2.4474,-2.9905,-3.2566,-3.4625,-3.7312,-3.8843,-3.9697,-3.9672,-3.9697,-4.0074,-4.1125,-4.1275,-4.1652,-4.2811,-4.2961,-4.2961,-4.2986,-4.2986,-4.2986,-4.2986,-4.5502,-4.641,-4.4749,-4.8596,-5.0957,-5.0685,-5.2213,-5.3727,-5.5128,-5.5179,-5.5179,-5.5179,-5.5209,-5.5538,-5.6218,-5.6248,-5.6526,-5.7124,-5.7124,-5.7513,-5.8141,-5.8141,-5.7782,-5.7214,-5.7872,-5.8141,-5.8201,-5.886,-5.9099,-5.9099,-5.9099,-5.9099,-5.9099,-5.9099,-5.9099,-5.9099,-5.9099,-5.9099,-5.9099,-5.9099,-5.9099,-5.9099,-5.9099,-5.9099,-5.9099,-5.9099,-5.9099,-5.9099,-5.9099,-5.9099,-5.9099,-5.9099,-5.9099,-5.9099,-5.9099,-5.9099,-5.9099,-5.9099,-5.9099,-5.9099,-5.9099,-5.9099,-5.9099,-5.9099,-5.7664,-5.7328,-5.8852,-5.7608,-5.6593,-5.6593,-5.5211,-5.367,-5.2112,-5.0563,-4.9654,-4.9654,-4.9719,-4.9719,-4.9654,-4.9654,-4.9654,-4.959,-4.959,-4.959,-4.959,-4.959,-4.959,-1.4274,0.0,0.0,0.0,0.0,0.0,-2.485,-2.9503,-3.352,-3.4274,-3.7236,-3.9572,-3.917,-3.9747,-4.0526,-4.1175,-4.0949,-4.1128,-4.2288,-4.2439,-4.259,-4.2936,-4.2986,-4.2986,-4.2986,-4.5502,-4.641,-4.4749,-4.9553,-5.202,-5.074,-5.3174,-5.4794,-5.5179,-5.5179,-5.5179,-5.5179,-5.5658,-5.6038,-5.6218,-5.6615,-5.7184,-5.7842,-5.7842,-5.8201,-5.883,-5.883,-5.871,-5.856,-5.877,-5.883,-5.886,-5.9039,-5.9099,-5.9099,-5.9099,-5.9099,-5.9099,-5.9099,-5.9099,-5.9099,-5.9099,-5.9099,-5.9099,-5.9099,-5.9099,-5.9099,-5.9099,-5.9099,-5.9099,-5.9099,-5.9099,-5.9099,-5.9099,-5.9099,-5.9099,-5.9099,-5.9099,-5.9099,-5.9099,-5.9099,-5.9099,-5.9099,-5.9099,-5.9099,-5.9099,-5.9099,-5.9099,-5.9099,-5.7664,-5.6849,-5.7328,-5.5964,-5.5035,-5.5035,-5.361,-5.2455,-5.2024,-5.1554,-5.133,-5.133,-5.2482,-5.2543,-5.1393,-5.133,-5.079,-4.959,-4.959,-4.959,-4.959,-4.959,-4.959,-1.4702,-1.4984,-1.5437,-1.6296,0.0,0.0,-2.3803,-2.7896,-3.1738,-3.4318,-3.7211,-3.917,-3.8617,-3.9421,-4.0199,-4.03,-4.0224,-4.0626,-4.2011,-4.1957,-4.2007,-4.2615,-4.269,-4.2766,-4.2961,-4.4941,-4.5687,-4.4364,-4.928,-5.2405,-5.2583,-5.4223,-5.5179,-5.5179,-5.5179,-5.5329,-5.5598,-5.5987,-5.6436,-5.7004,-5.7363,-5.7872,-5.853,-5.853,-5.874,-5.9099,-5.9099,-5.9099,-5.9099,-5.9099,-5.9099,-5.9099,-5.9099,-5.9099,-5.9099,-5.9099,-5.9099,-5.9099,-5.9099,-5.9099,-5.9099,-5.9099,-5.9099,-5.9099,-5.9099,-5.9099,-5.9099,-5.9099,-5.9099,-5.9099,-5.9099,-5.9099,-5.9099,-5.9099,-5.9099,-5.9099,-5.9099,-5.9099,-5.9099,-5.9099,-5.9099,-5.8882,-5.8221,-5.8081,-5.786,-5.7216,-5.716,-5.716,-5.716,-5.6337,-5.5734,-5.5734,-5.4918,-5.4386,-5.4386,-5.2944,-5.1989,-5.1989,-5.1393,-5.1016,-5.1016,-5.1865,-5.1927,-5.1016,-5.1016,-5.0563,-4.959,-4.959,-4.959,-4.959,-4.959,-4.959,-1.5613,-1.5643,-1.5819,-1.6274,-1.6848,0.0,-2.4236,-2.649,-2.9001,-3.4424,-3.6734,-3.7588,-3.701,-3.7939,-3.8617,-3.8115,-3.8768,-3.9973,-4.1861,-4.1656,-4.1555,-4.2238,-4.2313,-4.2489,-4.2936,-4.4372,-4.4933,-4.408,-4.8454,-5.2362,-5.4949,-5.5149,-5.5179,-5.5179,-5.5179,-5.5508,-5.6218,-5.6308,-5.6885,-5.8112,-5.8201,-5.853,-5.9099,-5.9099,-5.9099,-5.9099,-5.9099,-5.9099,-5.9099,-5.9099,-5.9099,-5.9099,-5.9099,-5.9099,-5.9099,-5.9099,-5.9099,-5.9099,-5.9099,-5.9099,-5.9099,-5.9099,-5.9099,-5.9099,-5.9099,-5.9099,-5.9099,-5.9099,-5.9099,-5.9099,-5.9099,-5.9099,-5.9099,-5.9099,-5.9099,-5.9099,-5.9099,-5.9099,-5.9099,-5.9099,-5.9099,-5.8634,-5.7187,-5.6962,-5.6508,-5.5094,-5.4918,-5.4918,-5.4918,-5.4741,-5.4623,-5.4623,-5.4505,-5.4386,-5.4386,-5.2944,-5.1989,-5.1989,-5.0499,-4.959,-4.959,-4.959,-4.959,-4.959,-4.959,-4.959,-4.959,-4.959,-4.959,-4.959,-4.959,-4.959,-1.5864,-1.5387,-1.5718,-1.5819,-1.6271,0.0,-1.8806,-2.1368,-2.3778,-2.4958,-2.8222,-3.0708,-3.0131,-3.1662,-3.2968,-3.2867,-3.5248,-3.8065,-4.1078,-4.1351,-4.1706,-4.271,-4.2811,-4.2861,-4.2961,-4.5262,-4.6379,-4.5535,-4.9429,-5.2603,-5.4271,-5.491,-5.5179,-5.5179,-5.5179,-5.5508,-5.6218,-5.6675,-5.7334,-5.8141,-5.865,-5.8979,-5.9099,-5.9099,-5.9099,-5.9099,-5.9099,-5.9099,-5.9099,-5.9099,-5.9099,-5.9099,-5.9099,-5.9099,-5.9099,-5.9099,-5.9099,-5.9099,-5.9099,-5.9099,-5.9099,-5.9099,-5.9099,-5.9099,-5.9099,-5.9099,-5.9099,-5.9099,-5.9099,-5.9099,-5.9099,-5.9099,-5.9099,-5.9099,-5.9099,-5.9099,-5.9099,-5.9099,-5.9099,-5.9099,-5.9099,-5.8991,-5.8689,-5.8634,-5.8495,-5.8221,-5.8166,-5.8166,-5.8166,-5.7018,-5.6251,-5.6251,-5.5152,-5.4386,-5.4386,-5.2944,-5.1989,-5.1989,-5.0499,-4.959,-4.959,-4.959,-4.959,-4.959,-4.959,-4.959,-4.959,-4.959,-4.959,-4.959,-4.959,-4.959,-1.7046,-1.612,-1.6095,-1.6095,-1.63,0.0,0.0,-2.0715,-2.2372,-2.4029,-2.6364,-2.7946,-2.7394,-2.885,-3.008,-2.9804,-3.3018,-3.5655,-3.5909,-3.8567,-4.1028,-4.2464,-4.2333,-4.2384,-4.2911,-4.4833,-4.6589,-4.7953,-4.9298,-5.1299,-5.4062,-5.4521,-5.485,-5.5179,-5.5508,-5.5987,-5.6615,-5.7274,-5.7932,-5.862,-5.8949,-5.9099,-5.9099,-5.9099,-5.9099,-5.9099,-5.9099,-5.9099,-5.9099,-5.9099,-5.9099,-5.9099,-5.9099,-5.9099,-5.9099,-5.9099,-5.9099,-5.9099,-5.9099,-5.9099,-5.9099,-5.9099,-5.9099,-5.9099,-5.9099,-5.9099,-5.9099,-5.9099,-5.9099,-5.9099,-5.9099,-5.9099,-5.9099,-5.9099,-5.9099,-5.9099,-5.9099,-5.9099,-5.9099,-5.9099,-5.9099,-5.8852,-5.8026,-5.7915,-5.7608,-5.6849,-5.6736,-5.6736,-5.6736,-5.605,-5.5269,-5.4477,-5.3643,-5.2883,-5.2051,-5.1268,-5.079,-5.079,-5.0078,-4.959,-4.959,-4.959,-4.959,-4.959,-4.959,-4.959,-4.959,-4.959,-4.959,-4.959,-4.959,-4.959,-1.8631,-1.72,-1.6651,-1.6651,-1.6575,-1.7202,0.0,0.0,0.0,-2.4035,-2.5016,-2.5267,-2.4815,-2.5988,-2.6806,-2.6289,-2.9829,-3.1888,-2.9654,-3.4123,-3.8266,-4.0075,-4.0978,-4.1605,-4.1831,-4.3464,-4.6068,-4.9904,-4.895,-4.9889,-5.4003,-5.4221,-5.4521,-5.5179,-5.5837,-5.6466,-5.7094,-5.7782,-5.8471,-5.9099,-5.9099,-5.9099,-5.9099,-5.9099,-5.9099,-5.9099,-5.9099,-5.9099,-5.9099,-5.9099,-5.9099,-5.9099,-5.9099,-5.9099,-5.9099,-5.9099,-5.9099,-5.9099,-5.9099,-5.9099,-5.9099,-5.9099,-5.9099,-5.9099,-5.9099,-5.9099,-5.9099,-5.9099,-5.9099,-5.9099,-5.9099,-5.9099,-5.9099,-5.9099,-5.9099,-5.9099,-5.9099,-5.9099,-5.9099,-5.9099,-5.9099,-5.8689,-5.7384,-5.6905,-5.6251,-5.5035,-5.4564,-5.4386,-5.4386,-5.4386,-5.391,-5.2578,-5.2455,-5.1927,-5.06,-5.0245,-5.0078,-5.0078,-4.9783,-4.959,-4.959,-4.959,-4.959,-4.959,-4.959,-4.959,-4.959,-4.959,-4.959,-4.959,-4.959,-4.959,-2.0362,-1.8078,-1.7297,-1.7297,-1.6898,-1.66,-1.6977,0.0,-1.7177,-1.7576,0.0,-1.8504,-1.8454,0.0,0.0,-1.9409,-2.2648,-2.5109,-2.4782,-2.7871,-3.0959,-3.3093,-3.8492,-4.1006,-3.8115,-4.0733,-4.4684,-4.9831,-4.8999,-5.0024,-5.4012,-5.4221,-5.4521,-5.5179,-5.5837,-5.6466,-5.7094,-5.7782,-5.8471,-5.9099,-5.9099,-5.9099,-5.9099,-5.9099,-5.9099,-5.9099,-5.9099,-5.9099,-5.9099,-5.9099,-5.9099,-5.9099,-5.9099,-5.9099,-5.9099,-5.9099,-5.9099,-5.9099,-5.9099,-5.9099,-5.9099,-5.9099,-5.9099,-5.9099,-5.9099,-5.9099,-5.9099,-5.9099,-5.9099,-5.9099,-5.9099,-5.9099,-5.9099,-5.9099,-5.9099,-5.9099,-5.9099,-5.9099,-5.9099,-5.9099,-5.9099,-5.9045,-5.8852,-5.7608,-5.665,-5.6508,-5.5269,-5.4386,-5.4386,-5.4386,-5.4327,-5.4149,-5.4149,-5.4029,-5.385,-5.2543,-5.1741,-5.1741,-5.0372,-4.959,-4.959,-4.959,-4.959,-4.959,-4.959,-4.959,-4.959,-4.959,-4.959,-4.959,-4.959,-4.959,-2.1769,-2.1066,-2.1091,-1.8505,-1.8882,-1.9259,-1.7002,-1.65,-1.65,-1.65,0.0,0.0,0.0,0.0,0.0,0.0,-2.0966,-2.2794,-2.0916,-2.5159,-2.9151,-3.106,-3.3746,0.0,-3.8199,-4.2522,-4.6393,-4.9408,-5.0543,-5.1827,-5.3514,-5.3982,-5.4521,-5.5179,-5.6166,-5.6825,-5.7094,-5.8171,-5.883,-5.9099,-5.9099,-5.9099,-5.9099,-5.9099,-5.9099,-5.9099,-5.9099,-5.9099,-5.9099,-5.9099,-5.9099,-5.9099,-5.9099,-5.9099,-5.9099,-5.9099,-5.9099,-5.9099,-5.9099,-5.9099,-5.9099,-5.9099,-5.9099,-5.9099,-5.9099,-5.9099,-5.9099,-5.9099,-5.9099,-5.9099,-5.9099,-5.9099,-5.9099,-5.9099,-5.9099,-5.9099,-5.9099,-5.9099,-5.9219,-5.9608,-5.9668,-5.9787,-6.0206,-5.8302,-5.6794,-5.7168,-5.6678,-5.6413,-5.6753,-5.7656,-5.7569,-5.5617,-5.5436,-5.4508,-5.2292,-5.1471,-5.096,-5.0626,-4.995,-4.959,-4.959,-4.959,-4.959,-4.959,-4.959,-4.959,-4.959,-4.959,-4.959,-4.959,-4.959,-4.959,-2.4255,-2.4029,-2.4029,-1.9911,-2.0162,-2.0639,-1.7629,-1.6851,-1.6748,-1.6748,-1.66,0.0,0.0,0.0,-1.7049,-1.6769,0.0,-2.0136,-1.7451,-2.1594,-2.5561,-2.7208,-2.852,0.0,0.0,-4.2318,-4.6077,-4.7722,-5.0577,-5.2658,-5.3424,-5.3773,-5.4311,-5.5149,-5.6436,-5.7094,-5.7094,-5.8441,-5.9099,-5.9099,-5.9099,-5.9099,-5.9099,-5.9099,-5.9099,-5.9099,-5.9099,-5.9099,-5.9099,-5.9099,-5.9099,-5.9099,-5.9099,-5.9099,-5.9099,-5.9099,-5.9099,-5.9099,-5.9099,-5.9099,-5.9099,-5.9099,-5.9099,-5.9099,-5.9099,-5.9099,-5.9099,-5.9099,-5.9099,-5.9099,-5.9099,-5.9099,-5.9099,-5.9099,-5.9099,-5.9099,-5.9099,-5.9249,-5.9518,-5.9997,-6.0236,-6.0535,-6.1014,-5.8947,-5.7398,-5.783,-5.7568,-5.7477,-5.7874,-5.8987,-5.887,-5.6487,-5.5813,-5.4405,-5.16,-5.0882,-5.0419,-4.9866,-4.9816,-4.9741,-4.9615,-4.959,-4.959,-4.959,-4.959,-4.959,-4.959,-4.959,-4.959,-4.959,-4.959,-4.959,-2.8574,-2.6339,-2.4757,-2.1446,-1.9861,-1.8933,-1.8304,-1.7727,-1.7373,-1.7373,-1.6898,-1.65,-1.65,-1.6525,-1.6195,-1.5135,-1.5537,0.0,0.0,-1.5764,-1.7478,-1.9183,-2.3257,-2.7926,0.0,-3.7861,-4.1724,0.0,-4.8067,-5.1404,-5.4042,-5.3563,-5.3832,-5.5149,-5.6436,-5.7094,-5.7094,-5.8441,-5.9099,-5.9099,-5.9099,-5.9099,-5.9099,-5.9099,-5.9099,-5.9099,-5.9099,-5.9099,-5.9099,-5.9099,-5.9099,-5.9099,-5.9099,-5.9099,-5.9099,-5.9099,-5.9099,-5.9099,-5.9099,-5.9099,-5.9099,-5.9099,-5.9099,-5.9099,-5.9099,-5.9099,-5.9099,-5.9099,-5.9099,-5.9099,-5.9099,-5.9099,-5.9099,-5.9099,-5.9099,-5.9099,-5.9099,-5.9608,-6.0057,-6.0086,-6.0625,-6.1074,-6.1104,-5.9767,-5.8609,-5.8637,-5.7338,-5.6371,-5.6399,-5.6399,-5.6399,-5.6338,-5.488,-5.3805,-5.3678,-5.2228,-5.0996,-5.0419,-5.0393,-5.0142,-4.9615,-4.959,-4.959,-4.959,-4.959,-4.959,-4.959,-4.959,-4.959,-4.959,-4.959,-4.959,-3.1738,-3.1955,-3.1527,-2.6373,-2.5611,-2.5034,-2.0817,-1.9133,-1.848,-1.848,-1.7727,-1.7099,-1.7099,-1.6773,-1.6271,-1.5563,-1.5567,-1.5336,0.0,-1.4576,-1.5639,-1.7657,-2.222,-2.6337,-2.9174,0.0,0.0,0.0,-4.9781,0.0,-5.3533,-5.4162,-5.491,-5.5807,-5.7513,-5.8201,-5.7782,-5.9099,-5.9548,-5.9099,-5.9099,-5.9099,-5.9099,-5.9099,-5.9099,-5.9099,-5.9099,-5.9099,-5.9099,-5.9099,-5.9099,-5.9099,-5.9099,-5.9099,-5.9099,-5.9099,-5.9099,-5.9099,-5.9099,-5.9099,-5.9099,-5.9099,-5.9099,-5.9099,-5.9099,-5.9099,-5.9099,-5.9099,-5.9099,-5.9099,-5.9099,-5.9099,-5.9099,-5.9099,-5.9099,-5.9219,-5.9668,-5.9937,-6.0356,-6.1253,-6.1613,-6.1511,-6.0794,-6.0233,-5.9762,-5.9299,-5.8796,-5.8277,-5.7501,-5.8423,-5.8211,-5.5976,-5.5229,-5.4249,-5.2777,-5.1873,-5.1197,-5.0996,-5.0996,-5.0745,-5.0167,-5.0142,-4.9967,-4.9615,-4.959,-4.959,-4.959,-4.959,-4.959,-4.959,-4.959,-4.959,-3.4901,-3.5625,-3.5475,-3.0306,-2.9704,-2.9076,-2.4186,-2.2171,-2.1368,-2.1368,-1.971,-1.8881,-2.084,-1.8807,-1.7024,-1.7652,-1.6597,-1.5412,0.0,-1.4217,-1.4901,-1.7024,-2.0417,-2.4041,-2.7872,0.0,0.0,0.0,0.0,0.0,0.0,-5.3862,-5.488,-5.5807,-5.7723,-5.865,-5.8471,-5.9787,-6.0116,-5.9458,-5.9458,-5.9338,-5.9099,-5.9099,-5.9099,-5.9099,-5.9099,-5.9099,-5.9099,-5.9099,-5.9099,-5.9099,-5.9099,-5.9099,-5.9099,-5.9099,-5.9099,-5.9099,-5.9099,-5.9099,-5.9099,-5.9099,-5.9099,-5.9099,-5.9099,-5.9099,-5.9099,-5.9099,-5.9099,-5.9099,-5.9099,-5.9099,-5.9099,-5.9099,-5.9099,-5.9279,-5.9937,-5.9793,-5.9844,-6.0993,-6.0882,-6.0435,-5.9725,-5.9598,-5.9484,-5.9026,-5.903,-5.8805,-5.8076,-5.8918,-5.8793,-5.6569,-5.5748,-5.4586,-5.2538,-5.2076,-5.1774,-5.1599,-5.1574,-5.1322,-5.0745,-5.072,-5.0645,-5.0494,-5.0092,-4.9992,-5.0193,-4.9791,-4.959,-4.959,-4.959,-4.959]},{"header":{"parameterUnit":"m.s-1","parameterCategory":1,"la1":30.6,"la2":29.2853,"lo1":-89.7004,"lo2":-87.6739,"dx":0.0162,"dy":0.0183,"nx":112,"ny":82,"refTime":"2022-11-24T18:00:00:Z","depth":0,"parameterNumber":3,"parameterNumberName":"V-component_of_WINDS"},"data":[0.0,0.0,0.0,0.0,0.0,0.0,0.0,0.0,0.0,0.0,0.0,0.0,0.0,0.0,0.0,0.0,0.0,0.0,0.0,0.0,0.0,0.0,0.0,0.0,0.0,0.0,0.0,0.0,0.0,0.0,0.0,0.0,0.0,0.0,0.0,0.0,0.0,0.0,0.0,0.0,0.0,0.0,0.0,0.0,0.0,0.0,0.0,0.0,0.0,0.0,0.0,0.0,0.0,0.0,0.0,0.0,0.0,0.0,0.0,0.0,0.0,0.0,0.0,0.0,0.0,0.0,0.0,0.0,0.0,0.0,0.0,0.0,0.0,0.0,0.0,0.0,0.0,0.0,0.0,0.0,0.0,0.0,0.0,0.0,0.0,0.0,0.0,0.0,0.0,0.0,2.7703,3.0051,3.3243,3.4931,3.4247,3.4931,3.2583,2.5999,0.0,0.0,0.0,0.0,0.0,0.0,0.0,0.0,0.0,0.0,0.0,0.0,0.0,0.0,0.0,0.0,0.0,0.0,0.0,0.0,0.0,0.0,0.0,0.0,0.0,0.0,0.0,0.0,0.0,0.0,0.0,0.0,0.0,0.0,0.0,0.0,0.0,0.0,0.0,0.0,0.0,0.0,0.0,0.0,0.0,0.0,0.0,0.0,0.0,0.0,0.0,0.0,0.0,0.0,0.0,0.0,0.0,0.0,0.0,0.0,0.0,0.0,0.0,0.0,0.0,0.0,0.0,0.0,0.0,0.0,0.0,0.0,0.0,0.0,0.0,0.0,0.0,0.0,0.0,0.0,0.0,0.0,0.0,0.0,0.0,0.0,0.0,0.0,0.0,0.0,0.0,0.0,0.0,0.0,0.0,0.0,0.0,0.0,0.0,0.0,0.0,0.0,0.0,0.0,2.9806,3.5583,3.6156,3.6046,3.5936,3.6684,3.4064,2.6869,0.0,0.0,0.0,0.0,0.0,0.0,0.0,0.0,0.0,0.0,0.0,0.0,0.0,0.0,0.0,0.0,0.0,0.0,0.0,0.0,0.0,0.0,0.0,0.0,0.0,0.0,0.0,0.0,0.0,0.0,0.0,0.0,0.0,0.0,0.0,0.0,0.0,0.0,0.0,0.0,0.0,0.0,0.0,0.0,0.0,0.0,0.0,0.0,0.0,0.0,0.0,0.0,0.0,0.0,0.0,0.0,0.0,0.0,0.0,0.0,0.0,0.0,0.0,0.0,0.0,0.0,0.0,0.0,0.0,0.0,0.0,0.0,0.0,0.0,0.0,0.0,0.0,0.0,0.0,0.0,0.0,0.0,0.0,0.0,0.0,0.0,0.0,0.0,0.0,0.0,0.0,0.0,0.0,0.0,0.0,0.0,0.0,0.0,0.0,0.0,0.0,0.0,0.0,2.7541,3.1384,3.5679,3.6633,3.656,3.5665,3.6795,3.4371,2.7053,2.5915,0.0,0.0,0.0,0.0,0.0,0.0,0.0,0.0,0.0,0.0,0.0,0.0,0.0,0.0,0.0,0.0,0.0,0.0,0.0,0.0,0.0,0.0,0.0,0.0,0.0,0.0,0.0,0.0,0.0,0.0,0.0,0.0,0.0,0.0,0.0,0.0,0.0,0.0,0.0,0.0,0.0,0.0,0.0,0.0,0.0,0.0,0.0,0.0,0.0,0.0,0.0,0.0,0.0,0.0,0.0,0.0,0.0,0.0,0.0,0.0,0.0,0.0,0.0,0.0,0.0,0.0,0.0,0.0,0.0,0.0,0.0,0.0,0.0,0.0,0.0,0.0,0.0,0.0,0.0,0.0,0.0,0.0,0.0,0.0,0.0,0.0,0.0,0.0,0.0,0.0,0.0,0.0,0.0,0.0,0.0,0.0,0.0,0.0,0.0,0.0,0.0,0.0,3.0687,3.3954,3.5445,3.7074,3.7345,3.5445,3.6817,3.4578,2.7079,2.6602,0.0,0.0,0.0,0.0,0.0,0.0,0.0,0.0,0.0,0.0,0.0,0.0,0.0,0.0,0.0,0.0,0.0,0.0,0.0,0.0,0.0,0.0,0.0,0.0,0.0,0.0,0.0,0.0,0.0,0.0,0.0,0.0,0.0,0.0,0.0,0.0,0.0,0.0,0.0,0.0,0.0,0.0,0.0,0.0,0.0,0.0,0.0,0.0,0.0,0.0,0.0,0.0,0.0,0.0,0.0,0.0,0.0,0.0,0.0,0.0,0.0,0.0,0.0,0.0,0.0,0.0,0.0,0.0,0.0,0.0,0.0,0.0,0.0,0.0,0.0,0.0,0.0,0.0,0.0,0.0,0.0,0.0,0.0,0.0,0.0,0.0,0.0,0.0,0.0,0.0,0.0,0.0,0.0,0.0,0.0,0.0,0.0,0.0,0.0,0.0,0.0,0.0,3.4504,3.8814,3.7456,3.8778,3.8778,3.6413,3.7698,3.5202,2.7115,2.6602,0.0,0.0,0.0,0.0,0.0,0.0,0.0,0.0,0.0,0.0,0.0,0.0,0.0,0.0,0.0,0.0,0.0,0.0,0.0,0.0,0.0,0.0,0.0,0.0,0.0,0.0,0.0,0.0,0.0,0.0,0.0,0.0,0.0,0.0,0.0,0.0,0.0,0.0,0.0,0.0,0.0,0.0,0.0,0.0,0.0,0.0,0.0,0.0,0.0,0.0,0.0,0.0,0.0,0.0,0.0,0.0,0.0,0.0,0.0,0.0,0.0,0.0,0.0,0.0,0.0,0.0,0.0,0.0,0.0,0.0,0.0,0.0,0.0,0.0,0.0,0.0,0.0,0.0,0.0,0.0,0.0,0.0,0.0,0.0,0.0,0.0,0.0,0.0,0.0,0.0,0.0,0.0,0.0,0.0,0.0,0.0,0.0,0.0,0.0,0.0,0.0,0.0,3.388,3.7991,3.8924,3.9974,3.9863,3.7955,3.8799,3.5973,2.786,0.0,0.0,0.0,0.0,0.0,0.0,0.0,0.0,0.0,0.0,0.0,0.0,0.0,0.0,0.0,0.0,0.0,0.0,0.0,0.0,0.0,0.0,0.0,0.0,0.0,0.0,0.0,0.0,0.0,0.0,0.0,0.0,0.0,0.0,0.0,0.0,0.0,0.0,0.0,0.0,0.0,0.0,0.0,0.0,0.0,0.0,0.0,0.0,0.0,0.0,0.0,0.0,0.0,0.0,0.0,0.0,0.0,0.0,0.0,0.0,0.0,0.0,0.0,0.0,0.0,0.0,0.0,0.0,0.0,0.0,0.0,0.0,0.0,0.0,0.0,0.0,0.0,0.0,0.0,0.0,0.0,0.0,0.0,0.0,0.0,0.0,0.0,0.0,0.0,0.0,0.0,0.0,0.0,0.0,0.0,0.0,0.0,0.0,0.0,0.0,0.0,0.0,2.8878,3.4235,3.8363,4.0185,4.1097,4.0909,3.9224,3.9827,3.6817,2.8705,0.0,0.0,0.0,0.0,0.0,0.0,0.0,0.0,0.0,0.0,0.0,0.0,0.0,0.0,0.0,0.0,0.0,0.0,0.0,0.0,0.0,0.0,0.0,0.0,0.0,0.0,0.0,0.0,0.0,0.0,0.0,0.0,0.0,0.0,0.0,0.0,0.0,0.0,0.0,0.0,0.0,0.0,0.0,0.0,0.0,0.0,0.0,0.0,0.0,0.0,0.0,0.0,0.0,0.0,0.0,0.0,0.0,0.0,0.0,0.0,0.0,0.0,0.0,0.0,0.0,0.0,0.0,0.0,0.0,0.0,0.0,0.0,0.0,0.0,0.0,0.0,0.0,0.0,0.0,0.0,0.0,0.0,0.0,0.0,0.0,0.0,0.0,0.0,0.0,0.0,0.0,0.0,0.0,0.0,0.0,0.0,0.0,0.0,0.0,0.0,0.0,0.0,2.9823,3.6249,4.0806,4.1355,4.2205,4.1941,4.0072,4.0655,3.7683,0.0,0.0,0.0,0.0,0.0,0.0,0.0,0.0,0.0,0.0,0.0,0.0,0.0,0.0,0.0,0.0,0.0,0.0,0.0,0.0,0.0,0.0,0.0,0.0,0.0,0.0,0.0,0.0,0.0,0.0,0.0,0.0,0.0,0.0,0.0,0.0,0.0,0.0,0.0,0.0,0.0,0.0,0.0,0.0,0.0,0.0,0.0,0.0,0.0,0.0,0.0,0.0,0.0,0.0,0.0,0.0,0.0,0.0,0.0,0.0,0.0,0.0,0.0,0.0,0.0,0.0,0.0,0.0,0.0,0.0,0.0,0.0,0.0,0.0,0.0,0.0,0.0,0.0,0.0,0.0,0.0,0.0,0.0,0.0,0.0,0.0,0.0,0.0,0.0,0.0,0.0,0.0,0.0,0.0,0.0,0.0,0.0,0.0,0.0,0.0,0.0,0.0,0.0,3.0545,3.6145,4.0506,4.2284,4.2697,4.2548,4.1867,4.2013,3.8872,3.1176,0.0,0.0,0.0,0.0,0.0,0.0,0.0,0.0,0.0,0.0,0.0,0.0,0.0,0.0,0.0,0.0,0.0,0.0,0.0,0.0,0.0,0.0,0.0,0.0,0.0,0.0,0.0,0.0,0.0,0.0,0.0,0.0,0.0,0.0,0.0,0.0,0.0,0.0,0.0,0.0,0.0,0.0,0.0,0.0,0.0,0.0,0.0,0.0,0.0,0.0,0.0,0.0,0.0,0.0,0.0,0.0,0.0,0.0,0.0,0.0,0.0,0.0,0.0,0.0,0.0,0.0,0.0,0.0,0.0,0.0,0.0,0.0,0.0,0.0,0.0,0.0,0.0,0.0,0.0,0.0,0.0,0.0,0.0,0.0,0.0,0.0,0.0,0.0,0.0,0.0,0.0,0.0,0.0,0.0,0.0,0.0,0.0,0.0,0.0,0.0,0.0,0.0,3.1272,3.642,4.0707,4.3208,4.3424,4.3208,4.2742,4.2585,3.978,3.3407,0.0,0.0,0.0,0.0,0.0,0.0,0.0,0.0,0.0,0.0,0.0,0.0,0.0,0.0,0.0,0.0,0.0,0.0,0.0,0.0,0.0,0.0,0.0,0.0,0.0,0.0,0.0,0.0,0.0,0.0,0.0,0.0,0.0,0.0,0.0,0.0,0.0,0.0,0.0,0.0,0.0,0.0,0.0,0.0,0.0,0.0,0.0,0.0,0.0,0.0,0.0,0.0,0.0,0.0,0.0,0.0,0.0,0.0,0.0,0.0,0.0,0.0,0.0,0.0,0.0,0.0,0.0,0.0,0.0,0.0,0.0,0.0,0.0,0.0,0.0,0.0,0.0,0.0,0.0,0.0,0.0,0.0,0.0,0.0,0.0,0.0,0.0,0.0,0.0,0.0,0.0,0.0,0.0,0.0,0.0,0.0,0.0,0.0,0.0,0.0,0.0,0.0,3.1752,3.6829,4.118,4.3982,4.413,4.3789,4.3164,4.2655,4.045,3.5924,0.0,0.0,0.0,0.0,0.0,0.0,0.0,0.0,0.0,0.0,0.0,0.0,0.0,0.0,0.0,0.0,0.0,0.0,0.0,0.0,0.0,0.0,0.0,0.0,0.0,0.0,0.0,0.0,0.0,0.0,0.0,0.0,0.0,0.0,0.0,0.0,0.0,0.0,0.0,0.0,0.0,0.0,0.0,0.0,0.0,0.0,0.0,0.0,0.0,0.0,0.0,0.0,0.0,0.0,0.0,0.0,0.0,0.0,0.0,0.0,2.4255,2.0331,0.0,0.0,0.0,0.0,0.0,0.0,0.0,0.0,0.0,0.0,0.0,0.0,0.0,0.0,0.0,0.0,0.0,0.0,0.0,0.0,0.0,0.0,0.0,0.0,0.0,0.0,0.0,0.0,0.0,0.0,0.0,0.0,0.0,0.0,0.0,0.0,0.0,0.0,0.0,0.0,3.1157,3.6502,4.1018,4.3382,4.3583,4.3906,4.4808,4.3709,4.1438,3.7768,3.5527,0.0,0.0,0.0,0.0,0.0,0.0,0.0,0.0,0.0,0.0,0.0,0.0,0.0,0.0,0.0,0.0,0.0,0.0,0.0,0.0,0.0,0.0,0.0,0.0,0.0,0.0,0.0,0.0,0.0,0.0,0.0,0.0,0.0,0.0,0.0,0.0,0.0,0.0,0.0,0.0,0.0,0.0,0.0,0.0,0.0,0.0,0.0,0.0,0.0,0.0,0.0,0.0,0.0,0.0,0.0,0.0,0.0,0.0,0.0,2.7841,2.4831,0.0,0.0,0.0,0.0,0.0,0.0,0.0,0.0,0.0,0.0,0.0,0.0,0.0,0.0,0.0,0.0,0.0,0.0,0.0,0.0,0.0,0.0,0.0,0.0,0.0,0.0,0.0,0.0,0.0,0.0,0.0,0.0,0.0,0.0,0.0,0.0,0.0,0.0,0.0,0.0,3.1968,3.7178,4.1508,4.3741,4.4579,4.4974,4.5008,4.4133,4.2416,3.9626,3.7156,0.0,0.0,0.0,0.0,0.0,0.0,0.0,0.0,0.0,0.0,0.0,0.0,0.0,0.0,0.0,0.0,0.0,0.0,0.0,0.0,0.0,0.0,0.0,0.0,0.0,0.0,0.0,0.0,0.0,0.0,0.0,0.0,0.0,0.0,0.0,0.0,0.0,0.0,0.0,0.0,0.0,0.0,0.0,0.0,0.0,0.0,0.0,0.0,0.0,0.0,0.0,0.0,0.0,3.0765,3.1664,3.1664,3.1529,3.3165,3.5904,3.0852,2.9567,3.0697,2.6251,0.0,0.0,0.0,0.0,0.0,0.0,0.0,0.0,0.0,0.0,0.0,0.0,0.0,0.0,0.0,0.0,0.0,0.0,0.0,0.0,0.0,0.0,2.9955,3.0731,3.3173,3.41,2.977,0.0,0.0,0.0,0.0,0.0,0.0,0.0,0.0,0.0,0.0,0.0,3.3795,3.8633,4.2557,4.4581,4.5891,4.6241,4.5252,4.4517,4.3382,4.164,3.8512,3.6212,0.0,0.0,0.0,0.0,0.0,0.0,0.0,0.0,0.0,0.0,0.0,0.0,0.0,0.0,0.0,0.0,0.0,0.0,0.0,0.0,0.0,0.0,0.0,0.0,0.0,0.0,0.0,0.0,0.0,0.0,0.0,0.0,2.4255,2.3797,0.0,0.0,0.0,0.0,0.0,0.0,0.0,0.0,0.0,0.0,0.0,0.0,0.0,2.884,3.0311,3.3254,3.437,3.366,3.6468,3.7821,3.7821,3.7178,3.7483,3.8464,3.7043,0.0,3.4754,3.3457,0.0,0.0,0.0,0.0,0.0,0.0,0.0,0.0,0.0,0.0,0.0,0.0,0.0,0.0,0.0,0.0,0.0,0.0,0.0,0.0,0.0,0.0,3.765,3.8452,3.8531,3.8227,3.7516,3.2801,2.8773,2.9025,2.7993,2.6539,0.0,0.0,0.0,0.0,0.0,0.0,3.6941,4.1305,4.4485,4.5466,4.6298,4.6971,4.7428,4.5671,4.4395,4.4116,4.1834,3.9389,3.6956,3.4051,0.0,0.0,0.0,0.0,0.0,0.0,0.0,0.0,0.0,0.0,0.0,0.0,0.0,0.0,0.0,0.0,0.0,0.0,0.0,0.0,0.0,0.0,0.0,0.0,0.0,0.0,0.0,0.0,0.0,2.2057,2.3782,2.3864,2.3308,2.2293,0.0,0.0,0.0,0.0,0.0,0.0,0.0,0.0,0.0,3.1258,3.1356,3.2452,3.4716,3.6123,3.6814,3.6929,3.8676,3.9744,4.0223,3.9918,4.0155,4.0806,3.9993,3.9249,3.8417,3.5599,3.2685,2.9814,0.0,0.0,0.0,0.0,2.649,2.6911,2.9892,3.089,3.0695,2.9383,0.0,0.0,0.0,0.0,0.0,0.0,0.0,2.9578,3.3329,3.5948,3.7984,3.9486,4.0254,4.0685,4.0685,3.8066,3.5314,3.4081,3.2307,3.0359,2.8432,2.9059,0.0,0.0,0.0,3.7009,3.8362,4.2422,4.5331,4.5669,4.6752,4.7564,4.7872,4.6616,4.5495,4.4649,4.2828,4.1281,4.0133,3.6544,3.3584,0.0,0.0,0.0,0.0,0.0,0.0,0.0,0.0,0.0,0.0,0.0,0.0,0.0,0.0,0.0,0.0,0.0,0.0,0.0,0.0,0.0,0.0,0.0,0.0,0.0,0.0,0.0,0.0,2.3698,2.5128,2.5119,2.5597,2.5045,0.0,0.0,0.0,0.0,0.0,0.0,2.9383,2.984,3.1483,3.4496,3.4591,3.5725,3.8096,3.8537,3.8959,3.9284,4.0225,4.0869,4.1333,4.1333,4.1633,4.2132,4.1468,4.1072,4.0678,3.7178,3.5038,3.3697,3.1777,3.035,2.9478,3.006,3.0375,3.0935,3.3889,3.5022,3.5027,3.4302,3.3171,3.1798,3.0193,0.0,0.0,0.0,0.0,3.1814,3.5049,3.6756,3.8051,3.978,4.1108,4.1924,4.1924,4.1179,4.0066,3.8504,3.6671,3.481,3.2983,3.3389,0.0,3.3795,3.6907,3.9614,4.0595,4.3809,4.6041,4.6244,4.7398,4.8206,4.8206,4.753,4.6616,4.55,4.3842,4.2888,4.2888,3.9374,3.7045,3.6302,0.0,0.0,0.0,0.0,0.0,0.0,0.0,0.0,0.0,0.0,0.0,0.0,0.0,0.0,0.0,0.0,0.0,0.0,0.0,0.0,0.0,0.0,0.0,0.0,0.0,0.0,0.0,0.0,0.0,3.0032,3.1554,0.0,0.0,0.0,0.0,2.9517,2.9682,3.0935,3.3719,3.3914,3.5292,3.8225,3.8321,3.8764,3.9684,4.1023,4.131,4.0641,4.2012,4.2331,4.1661,4.1661,4.1693,4.1725,4.1693,4.1279,4.0641,3.9842,3.7836,3.5153,3.4365,3.2719,3.0948,3.3166,3.4329,3.5303,3.8263,3.9721,3.9786,3.7035,3.4183,3.2228,3.4293,3.2658,0.0,0.0,3.4546,3.5208,3.9285,4.0414,4.0645,4.1563,4.1757,4.1692,4.1692,4.0579,4.0049,4.1695,4.1373,4.0561,3.974,0.0,3.914,4.0493,4.0299,4.1313,4.4891,4.6177,4.7022,4.7703,4.8477,4.8951,4.8951,4.8274,4.7804,4.7736,4.5669,4.4479,4.4479,4.2211,3.9744,3.719,3.5266,0.0,0.0,0.0,0.0,0.0,0.0,0.0,0.0,0.0,0.0,0.0,0.0,0.0,0.0,0.0,0.0,0.0,0.0,0.0,0.0,0.0,0.0,0.0,0.0,0.0,0.0,0.0,0.0,3.0771,3.1798,0.0,3.0131,3.098,3.1962,3.263,3.4379,3.6071,3.753,3.8008,3.8876,4.0353,4.0384,4.0934,4.2035,4.2169,4.2551,4.3243,4.3711,4.4122,4.4395,4.4395,4.4172,4.3727,4.3176,4.2556,4.1931,4.1159,3.9498,3.7375,3.7057,3.616,3.5154,3.5947,3.6679,3.7473,3.8944,3.9619,3.9681,3.8632,3.7861,3.7491,3.8324,3.7731,3.7195,3.9244,3.9673,4.0027,4.1889,4.2469,4.2618,4.2787,4.2875,4.2993,4.2993,4.2552,4.2462,4.3264,4.1601,4.0177,4.0401,4.1519,4.2256,4.1763,4.3647,4.5432,4.6312,4.7462,4.8139,4.7906,4.8578,4.9018,4.9018,4.8781,4.8409,4.7906,4.6718,4.5805,4.5331,4.3572,4.1933,4.0526,3.9858,3.6378,0.0,0.0,0.0,0.0,0.0,0.0,0.0,0.0,0.0,0.0,0.0,0.0,0.0,0.0,0.0,0.0,0.0,0.0,0.0,0.0,0.0,0.0,0.0,0.0,0.0,2.9508,3.1394,3.1051,3.2573,3.315,3.1862,3.3463,3.5081,3.6228,3.8039,3.9612,4.0736,4.1166,4.1594,4.2013,4.2043,4.2462,4.3359,4.312,4.3524,4.4511,4.4725,4.5126,4.5697,4.5697,4.5485,4.5011,4.4441,4.3808,4.3189,4.2612,4.1512,4.013,3.9354,3.8931,3.8751,3.8751,3.929,4.0187,4.1085,4.1265,4.1055,4.1055,4.1354,4.1683,4.1474,4.1384,4.1624,4.2701,4.3069,4.312,4.3499,4.3953,4.4143,4.3718,4.3953,4.4213,4.3968,4.3907,4.3844,4.3795,4.2278,4.1246,4.201,4.3267,4.3875,4.2911,4.4927,4.6555,4.6456,4.7457,4.8202,4.8277,4.8714,4.9018,4.9018,4.8545,4.8274,4.8274,4.7124,4.6447,4.6447,4.4457,4.3064,4.2286,4.1813,3.8531,3.2341,0.0,0.0,0.0,0.0,0.0,0.0,0.0,0.0,0.0,0.0,0.0,0.0,0.0,0.0,0.0,0.0,0.0,0.0,0.0,0.0,0.0,0.0,0.0,2.9167,3.093,3.204,3.1344,3.4394,3.6258,3.5554,3.6718,3.8362,4.0337,4.0516,4.1354,4.326,4.3349,4.3349,4.3379,4.3379,4.3409,4.3509,4.4107,4.4407,4.4407,4.5035,4.5364,4.5364,4.5364,4.5334,4.5334,4.5334,4.4945,4.4347,4.4347,4.3917,4.317,4.1235,4.0846,4.1452,4.1452,4.2252,4.3529,4.4855,4.4915,4.4407,4.4347,4.4377,4.4257,4.3589,4.3379,4.3529,4.4186,4.4407,4.4407,4.4407,4.4855,4.5155,4.4526,4.4855,4.5125,4.4466,4.4317,4.4107,4.3409,4.366,4.4211,4.4915,4.4469,4.41,4.4294,4.4171,0.0,4.5581,4.6167,4.7106,4.8695,4.8855,4.8855,4.8855,4.7567,4.7398,4.8886,4.6959,4.6447,4.7838,4.5066,4.3166,4.2388,4.0832,3.8937,3.6795,0.0,0.0,0.0,0.0,0.0,0.0,0.0,0.0,0.0,0.0,0.0,0.0,0.0,0.0,0.0,0.0,0.0,0.0,0.0,0.0,0.0,2.9684,3.2102,3.2736,3.3825,3.5244,3.7033,3.7615,3.8162,3.8938,3.9787,4.0905,4.2363,4.297,4.3688,4.4706,4.4766,4.4975,4.5442,4.5472,4.5723,4.6232,4.6411,4.6471,4.6471,4.6651,4.6741,4.6741,4.6741,4.6501,4.6052,4.6052,4.5663,4.5035,4.5035,4.4915,4.4556,4.262,4.1961,4.2141,4.2141,4.321,4.4796,4.5155,4.5813,4.6322,4.5334,4.5364,4.5711,4.5502,4.5472,4.5592,4.6292,4.6471,4.6471,4.6471,4.6262,4.5992,4.5771,4.5514,4.5125,4.4466,4.4317,4.4107,4.3409,4.3391,4.3564,4.3747,4.4236,4.4601,4.4665,4.5186,4.5706,4.5989,4.6178,4.6114,4.557,4.5506,4.5506,4.5506,4.5757,4.6533,4.7899,4.8037,4.8037,4.7906,4.7094,4.5805,4.4005,3.9851,3.7405,0.0,0.0,0.0,0.0,0.0,0.0,0.0,0.0,0.0,0.0,0.0,0.0,0.0,0.0,0.0,0.0,0.0,0.0,0.0,0.0,0.0,0.0,3.2514,3.4724,3.623,3.6609,3.7429,3.9264,3.9611,4.0068,4.1115,4.1803,4.2731,4.4047,4.4496,4.5125,4.6082,4.6142,4.6322,4.6711,4.6741,4.692,4.7309,4.7309,4.7309,4.7309,4.7309,4.7309,4.7309,4.7309,4.71,4.6741,4.6741,4.6501,4.6142,4.6142,4.6142,4.5963,0.0,0.0,0.0,0.0,4.4736,4.5753,4.6052,4.6651,4.7189,4.6381,4.6411,4.6741,4.6741,4.6741,4.68,4.7189,4.7309,4.7309,4.7309,4.701,4.6741,4.6741,4.6232,4.5544,4.4855,4.4496,4.4107,4.3409,4.329,0.0,4.329,4.3771,4.4098,4.3889,4.4483,4.505,4.5234,4.5469,4.5461,4.5088,4.5026,4.5026,4.5026,4.4949,0.0,0.0,0.0,4.6579,4.582,4.5787,0.0,0.0,0.0,3.9031,3.9057,3.7643,0.0,0.0,3.4416,3.322,0.0,0.0,0.0,0.0,0.0,0.0,0.0,0.0,0.0,0.0,0.0,0.0,0.0,0.0,0.0,0.0,3.5579,3.7644,3.9379,3.929,3.923,3.9679,4.0905,4.2021,4.268,4.3299,4.4157,4.5424,4.5514,4.6052,4.7249,4.7309,0.0,0.0,0.0,4.7309,4.7309,4.7309,4.7309,4.7309,4.7309,4.7309,4.7309,4.7309,4.7309,4.7309,4.7309,4.7309,4.7309,4.7309,4.7309,4.7189,4.5903,4.5394,4.5484,4.6082,4.6339,4.6531,4.71,0.0,0.0,4.7309,4.7309,4.7309,4.7309,4.7309,4.7309,4.7309,4.7309,4.7309,4.7309,4.7309,4.7309,4.7309,4.68,4.6142,4.5454,4.4766,4.4107,4.3409,4.329,4.329,4.329,4.329,4.3145,4.2659,4.3015,4.3433,4.3857,4.4367,4.4868,4.5592,4.5667,0.0,4.5667,4.4556,4.4495,4.5968,4.4918,4.3928,4.3223,4.3094,4.2457,4.1247,4.1805,4.2133,4.2255,4.2989,4.2931,4.2118,3.6754,3.4664,0.0,0.0,0.0,0.0,0.0,0.0,0.0,0.0,0.0,0.0,0.0,0.0,0.0,0.0,0.0,3.4921,3.8123,4.0576,4.0935,4.2252,4.2821,4.1931,4.294,4.4018,4.4646,4.5334,4.6082,4.686,4.692,4.704,4.7309,4.7309,4.7309,4.7309,4.7309,4.7309,4.7309,4.7309,4.7309,4.7309,4.7309,0.0,4.7309,4.7309,4.7309,4.7309,4.7309,4.7309,4.7309,4.7309,4.7309,4.7219,4.6441,4.6142,4.6142,4.6219,4.6651,4.713,4.7249,4.7309,4.7309,4.7309,4.7309,4.7309,4.7309,4.7309,0.0,4.7309,4.7309,4.7309,4.7309,4.7309,4.7309,4.7309,4.68,4.6142,4.5454,4.4766,4.4107,4.3409,4.329,4.329,4.329,4.329,4.3279,4.3166,4.3229,4.3358,4.3408,4.3542,4.3262,4.2439,4.2318,4.2318,4.2318,4.2747,4.3613,4.4986,4.5524,4.5693,4.553,4.4952,4.4537,4.4249,4.3197,4.2654,4.2654,4.2816,4.2526,4.1753,4.023,3.9924,0.0,0.0,0.0,0.0,0.0,0.0,0.0,0.0,0.0,0.0,0.0,3.0582,3.2228,0.0,3.6596,3.8601,4.0613,4.2141,4.2761,4.3988,4.4436,4.3449,4.4496,4.5454,4.5783,4.6411,4.695,4.7279,4.7309,4.7309,4.7309,4.7309,4.7309,4.7309,4.7309,4.7309,4.7309,4.7309,4.7309,4.7309,4.7309,4.7309,4.7309,4.7309,4.7309,4.7309,4.7309,4.7309,4.7309,4.7309,4.7309,4.7279,4.695,4.68,4.68,4.68,4.701,4.7309,4.7309,4.7309,4.7309,4.7309,4.7309,4.7309,4.7309,4.7309,4.7309,4.7309,4.7309,4.7219,4.689,4.707,4.713,4.6471,4.6052,4.5633,4.4945,4.4287,4.3678,4.3349,4.329,4.329,4.329,4.329,4.329,4.329,4.329,4.329,4.329,4.329,4.305,4.2432,4.2372,4.2372,4.2372,4.2773,4.3351,4.4021,4.4479,4.475,4.475,4.4403,4.4062,4.3722,4.3434,4.3113,4.2768,4.318,4.3191,4.2807,4.2139,4.1629,0.0,0.0,0.0,0.0,0.0,0.0,0.0,2.6482,2.7919,3.0073,3.1958,3.3932,3.6237,3.7704,3.9469,4.2321,4.301,4.3509,4.4556,4.5274,4.5484,4.4975,4.5843,4.6459,4.6459,4.698,4.7309,4.7309,4.7309,4.7309,4.7309,4.7309,4.7309,4.7309,4.7309,4.7309,4.7309,4.7309,4.7309,4.7309,4.7309,4.7309,4.7309,4.7309,4.7309,4.7309,4.7309,4.7309,4.7309,4.7309,4.7309,4.7309,4.7309,4.7309,4.7309,4.7309,4.7309,4.7309,4.7309,4.7309,4.7309,4.7309,4.7309,4.7309,4.7309,4.7309,4.7309,4.7309,4.7309,4.7189,4.6651,4.68,4.683,4.5753,4.5304,4.4975,4.4436,4.3768,4.329,4.329,4.329,4.329,4.329,4.329,4.329,4.329,4.329,4.329,4.329,4.329,4.329,4.329,4.329,4.329,4.329,4.329,4.329,4.329,4.329,4.329,4.329,4.329,4.309,4.259,4.3259,4.3359,4.2806,4.3501,4.3854,4.3854,4.3138,4.2268,2.1335,2.293,2.5352,2.8064,2.8368,2.9415,0.0,3.4592,3.4234,3.6776,3.8422,3.9679,4.0546,4.1803,4.2961,4.3928,4.5095,4.5933,4.6082,4.6651,4.707,4.698,4.71,4.7189,4.7189,4.7249,4.7309,4.7309,4.7309,4.7309,4.7309,4.7309,4.7309,4.7309,4.7309,4.7309,4.7309,4.7309,4.7309,4.7309,4.7309,4.7309,4.7309,4.7309,4.7309,4.7309,4.7309,4.7309,4.7309,4.7309,4.7309,4.7309,4.7309,4.7309,4.7309,4.7309,4.7309,4.7309,4.7309,4.7309,4.7309,4.7309,4.7309,4.7309,4.7309,4.7309,4.7309,4.7309,4.7309,4.7279,4.7219,4.68,4.6339,4.619,4.5304,4.4407,4.4317,4.3768,4.329,4.329,4.329,4.329,4.329,4.329,4.329,4.329,4.329,4.329,4.329,4.329,4.329,4.329,4.329,4.329,4.329,4.329,4.329,4.329,4.329,4.329,4.329,4.329,4.326,4.32,4.3289,4.3298,4.3208,4.3326,4.3365,4.3365,4.3286,4.3251,2.7739,2.8308,2.8757,3.1689,3.2257,3.2766,3.5639,3.5968,3.6507,3.9535,4.1175,4.2312,4.297,4.3838,4.4706,4.5323,4.592,4.6471,4.683,4.713,4.7309,4.7309,4.7309,4.7309,4.7309,4.7309,4.7309,4.7309,4.7309,4.7309,4.7309,4.7309,4.7309,4.7309,4.7309,4.7309,4.7309,4.7309,4.7309,4.7309,4.7309,4.7309,4.7309,4.7309,4.7309,4.7309,4.7309,4.7309,4.7309,4.7309,4.7309,4.7309,4.7309,4.7309,4.7309,4.7309,4.7309,4.7309,4.7309,4.7309,4.7309,4.7309,4.7309,4.7309,4.7309,4.7309,4.7309,4.7309,4.7309,4.7219,4.683,4.6488,4.607,4.5334,4.4736,4.4197,4.3798,4.3499,4.329,4.329,4.329,4.329,4.329,4.329,4.329,4.329,4.329,4.329,4.329,4.329,4.329,4.329,4.329,4.329,4.329,4.329,4.329,4.329,4.329,4.329,4.329,4.329,4.329,4.329,4.329,4.329,4.329,4.329,4.329,4.329,4.329,4.3377,3.118,3.1749,3.1749,3.4592,3.5699,3.6297,3.6956,3.7644,3.8876,4.1384,4.2821,4.3828,4.4706,4.5274,4.5813,4.6501,4.6591,4.677,4.7249,4.7309,4.7309,4.7309,4.7309,4.7309,4.7309,4.7309,4.7309,4.7309,4.7309,4.7309,4.7309,4.7309,4.7309,4.7309,4.7309,4.7309,4.7309,4.7309,4.7309,4.7309,4.7309,4.7309,4.7309,4.7309,4.7309,4.7309,4.7489,4.7578,4.7578,4.7788,4.7848,4.7848,4.7848,4.7848,4.7848,4.7848,4.7608,4.7309,4.7309,4.7309,4.7309,4.7309,4.7309,4.7309,4.7309,4.7309,4.7309,4.7309,4.7309,4.7189,4.6711,4.6471,4.6082,4.5053,4.4736,4.4436,4.3947,4.3828,4.3828,4.3828,4.3828,4.3828,4.3828,4.3828,4.3828,4.3828,4.3828,4.3708,4.3349,4.329,4.329,4.329,4.329,4.329,4.329,4.329,4.329,4.329,4.329,4.329,4.329,4.329,4.329,4.329,4.329,4.329,4.329,4.329,4.329,4.329,4.329,4.329,2.8992,3.1061,3.3245,3.6507,3.8781,4.0397,4.1055,4.1752,4.244,4.308,4.3768,4.4676,4.6022,4.6249,4.6501,4.716,4.7279,4.7279,4.7309,4.7309,4.7309,4.7309,4.7309,4.7309,4.7309,4.7309,4.7309,4.7309,4.7309,4.7309,4.7309,4.7309,4.7309,4.7309,4.7309,4.7309,4.7309,4.7309,4.7309,4.7309,4.7309,4.7309,4.7309,4.7309,4.7309,4.7339,4.7967,4.8267,4.8297,4.9,4.9239,4.9239,4.9239,4.9239,4.9239,4.9239,4.8386,4.7309,4.7309,4.7309,4.7309,4.7309,4.7309,4.7309,4.7309,4.7309,4.7309,4.7309,4.7309,4.7309,4.7279,4.68,4.6279,4.6219,4.5753,4.5244,4.5244,4.5244,4.5244,4.5244,4.5244,4.5244,4.5244,4.5244,4.5244,4.5244,4.5244,4.4766,4.3469,4.329,4.329,4.329,4.329,4.329,4.329,4.329,4.329,4.329,4.329,4.329,4.329,4.329,4.329,4.329,4.329,4.329,4.329,4.329,4.329,4.329,4.329,4.329,3.1569,3.4262,3.7105,4.0014,4.0876,4.1324,4.2432,4.2521,4.271,4.3748,4.312,4.2761,4.4067,4.4306,4.4515,4.5214,4.6441,4.7309,4.7309,4.7309,4.7309,4.7309,4.7309,4.7309,4.7309,4.7309,4.7309,4.7309,4.7309,4.7309,4.7309,4.7309,4.7309,4.7309,4.7309,4.7309,4.7309,4.7309,4.7309,4.7309,4.7758,4.8177,4.864,4.864,4.864,4.8626,4.888,4.897,4.9,4.9209,4.9299,4.9299,4.9299,4.9299,4.9299,4.9299,4.903,4.864,4.864,4.864,4.864,4.864,4.864,4.864,4.864,4.864,4.864,4.864,4.864,4.864,4.864,4.7788,4.698,4.698,4.6112,4.5304,4.5304,4.5304,4.5304,4.5304,4.5304,4.5304,4.5304,4.5304,4.5304,4.5304,4.5304,4.5125,4.4706,4.4646,4.4466,4.3977,4.3947,4.3768,4.3319,4.329,4.329,4.329,4.329,4.329,4.329,4.329,4.329,4.329,4.329,4.329,4.329,4.329,4.329,4.329,4.329,4.329,3.4741,3.7165,3.9409,4.2043,4.2402,4.2312,4.311,4.3,4.3,4.4077,4.2761,4.1713,4.2791,4.3,4.297,4.291,4.4586,4.5992,4.6202,4.6232,4.6501,4.7219,4.7309,4.7309,4.7309,4.7309,4.7309,4.7309,4.7309,4.7309,4.7309,4.7309,4.7309,4.7309,4.7309,4.7429,4.7638,4.7668,4.7788,4.8027,4.8446,4.8865,4.9299,4.9299,4.9299,4.9329,4.9523,4.9613,4.9643,4.9883,4.9972,4.9972,4.9972,4.9972,4.9972,4.9972,4.9972,4.9883,4.9479,4.9299,4.9299,4.9299,4.9299,4.9299,4.9299,4.9299,4.9299,4.9299,4.9299,4.9299,4.9299,4.8626,4.7938,4.7698,4.701,4.6292,4.6052,4.6022,4.6022,4.6022,4.6022,4.6022,4.6022,4.6022,4.6022,4.6022,4.6022,4.5843,4.5364,4.5304,4.5125,4.4706,4.4676,4.4496,4.4077,4.3977,4.3977,4.3977,4.3977,4.3888,4.3648,4.3648,4.3529,4.329,4.329,4.329,4.329,4.329,4.329,4.329,4.329,4.329,3.8028,3.9529,4.018,4.2662,4.329,4.329,4.329,4.329,4.3439,4.3958,4.2491,4.1332,4.1901,4.2081,4.1782,4.0576,4.2162,4.3748,4.4377,4.4466,4.5185,4.707,4.7309,4.7309,4.7309,4.7309,4.7309,4.7369,4.7339,4.7309,4.7309,4.7339,4.7369,4.7369,4.7399,4.7698,4.8327,4.8327,4.87,4.9359,4.9359,4.9389,4.9419,4.9419,4.9419,4.9449,5.0002,5.0255,5.0285,5.096,5.1229,5.1182,5.1105,5.1105,5.1058,5.1011,5.1058,5.0879,4.9656,4.9253,4.9419,4.9419,4.9419,4.9419,4.9419,4.9419,4.9419,4.9419,4.9419,4.9419,4.9419,4.9359,4.9149,4.8476,4.8297,4.8087,4.7489,4.7369,4.7369,4.7399,4.7369,4.7339,4.7309,4.7309,4.7309,4.7309,4.7309,4.683,4.5574,4.5394,4.5394,4.5334,4.5334,4.5334,4.5304,4.5304,4.5304,4.5304,4.5304,4.5005,4.4377,4.4377,4.4077,4.3409,4.3379,4.3379,4.3379,4.3379,4.3379,4.3379,4.3379,4.3379,3.8901,4.0808,4.2453,4.311,4.329,4.329,4.329,4.329,4.2781,4.0988,3.911,3.7528,3.666,3.7674,3.905,4.0217,4.3299,4.5813,4.6441,4.6531,4.6741,4.7249,4.7309,4.7309,4.7309,4.7309,4.7519,4.7997,4.7578,4.7309,4.7309,4.7758,4.8027,4.8027,4.8506,4.888,4.906,4.906,4.9344,5.0002,5.0002,5.0242,5.072,5.072,5.072,5.072,5.09,5.0913,5.0943,5.1139,5.1229,5.1105,5.0095,4.9727,4.9582,4.8539,4.8787,4.9524,4.812,4.8992,5.072,5.072,5.072,5.072,5.072,5.072,5.072,5.072,5.072,5.072,5.072,5.0002,4.9269,4.912,4.8267,4.7638,4.7967,4.8027,4.8177,4.87,4.8386,4.7878,4.7399,4.7309,4.7309,4.7309,4.7309,4.7189,4.683,4.68,4.6591,4.6112,4.6052,4.5843,4.5334,4.5304,4.5304,4.5304,4.5304,4.5214,4.5035,4.5035,4.4975,4.4796,4.4796,4.4796,4.4796,4.4796,4.4796,4.4796,4.4796,4.4796,4.1085,4.2393,4.3349,4.3648,4.3499,4.2991,4.1825,4.1586,4.0748,3.7853,3.5699,3.4083,3.3335,3.528,3.7165,3.7704,4.1863,4.5083,4.5514,4.5813,4.6322,4.7189,4.7309,4.7309,4.7309,4.7578,4.7878,4.8267,4.7938,4.7848,4.8147,4.8506,4.876,4.876,4.912,4.9449,4.9673,4.9972,5.0301,5.0614,5.0614,5.0823,5.1229,5.1229,5.1229,5.1229,5.1229,5.1229,5.1229,5.1229,5.1229,5.1105,5.0383,5.0095,4.9969,4.921,4.9063,4.9112,4.8289,4.9063,5.0335,5.0335,5.0698,5.1229,5.1229,5.1229,5.1229,5.1229,5.1229,5.1229,5.1229,5.069,5.0062,4.9763,4.9134,4.8626,4.8686,4.876,4.888,4.9239,4.903,4.8596,4.8237,4.7938,4.7728,4.7728,4.7489,4.7309,4.7309,4.7309,4.716,4.68,4.6741,4.6591,4.6202,4.6172,4.6172,4.6172,4.6172,4.6052,4.5753,4.5753,4.5603,4.5304,4.5304,4.5304,4.5304,4.5304,4.5304,4.5304,4.5304,4.5304,4.3509,4.3898,4.3559,4.4167,4.3748,4.2512,3.9971,3.9254,3.8153,3.4651,3.2527,3.1182,3.0883,3.3514,3.5519,3.4983,3.9499,4.323,4.3738,4.4306,4.5364,4.71,4.7309,4.7339,4.7429,4.7967,4.8356,4.8536,4.8536,4.8745,4.9269,4.9389,4.9479,4.9569,4.9569,4.9793,5.0315,5.0883,5.1229,5.1229,5.1229,5.1229,5.1229,5.1229,5.1229,5.1229,5.1229,5.1229,5.1182,5.1011,5.1058,5.1152,5.0603,5.0508,5.0603,5.0239,4.9455,4.8638,4.8439,4.8638,4.8964,4.9161,5.0143,5.1182,5.1011,5.0917,5.0917,5.0917,5.0917,5.0964,5.1152,5.1139,5.0913,5.0315,5.0136,4.9972,4.9494,4.9509,4.9539,4.9449,4.9359,4.9299,4.9299,4.8716,4.8327,4.8416,4.7938,4.7578,4.7578,4.7429,4.7309,4.7309,4.7309,4.7309,4.7309,4.7309,4.7309,4.7309,4.7309,4.704,4.6429,4.6399,4.6172,4.5574,4.5574,4.5574,4.5574,4.5574,4.5574,4.5574,4.5574,4.5574,4.4018,4.4227,4.4167,4.4287,4.3419,4.1983,3.9888,3.8542,3.6507,3.2108,3.0522,2.9415,2.7739,2.9684,3.2706,3.6327,3.9619,4.2851,4.6172,4.6711,4.692,4.7279,4.7309,4.7519,4.8057,4.8207,4.8745,4.9777,4.9867,4.9703,4.9329,4.9763,5.0331,5.087,5.087,5.093,5.105,5.1169,5.1229,5.1229,5.1229,5.1229,5.1229,5.1229,5.1229,5.1229,5.1229,5.1229,5.1105,4.9969,5.0191,5.087,4.7402,4.6785,4.7554,4.5262,4.4994,4.5555,4.4481,4.5555,4.7656,4.8787,5.0143,5.1011,4.9873,4.9582,4.9582,4.9582,4.9582,4.9776,5.0917,5.0764,5.0345,5.0226,4.9823,4.9553,4.9972,5.0481,5.072,5.0136,4.9643,4.9299,4.9299,4.8716,4.8476,4.906,4.906,4.897,4.897,4.7967,4.7309,4.7309,4.7309,4.7309,4.7309,4.7309,4.7309,4.7309,4.7309,4.7249,4.713,4.713,4.707,4.695,4.695,4.695,4.695,4.695,4.695,4.695,4.695,4.695,4.4646,4.4586,4.4407,4.4736,4.3838,4.1803,3.7764,3.6088,3.3754,2.8068,2.6422,2.5818,2.5166,2.75,3.0462,3.3335,3.8063,4.2043,4.3958,4.5992,4.7309,4.7309,4.7309,4.7429,4.7758,4.8386,4.9045,4.9673,5.0361,5.0601,5.0301,5.0571,5.09,5.1199,5.1229,5.1229,5.1229,5.1229,5.1229,5.1229,5.1229,5.1229,5.1229,5.1229,5.1229,5.1229,5.1229,5.0793,5.0143,4.9455,4.9161,4.8837,4.6888,4.6526,4.694,4.5608,4.5102,4.4887,4.4289,4.4967,4.6135,4.6785,4.7959,4.8964,4.8289,4.8139,4.8139,4.8139,4.8139,4.8289,4.8886,4.8833,4.8603,4.8603,4.8933,4.951,5.0521,5.0943,5.1109,5.0764,5.0511,5.0272,5.0272,4.9733,4.9404,4.9733,4.9494,4.9299,4.9299,4.876,4.8207,4.7848,4.7519,4.7309,4.7309,4.7309,4.7309,4.7309,4.7309,4.7309,4.7309,4.7309,4.7309,4.7309,4.7309,4.7309,4.7309,4.7309,4.7309,4.7309,4.7309,4.7309,4.4796,4.4706,4.4407,4.4796,4.3898,4.1384,3.5579,3.3514,3.1091,2.4866,2.3032,2.2643,2.3101,2.5555,2.8128,3.0013,3.5459,3.9978,4.1384,4.4407,4.6681,4.7249,4.7309,4.7369,4.7489,4.8566,4.9359,4.9464,5.0571,5.1229,5.1229,5.1229,5.1229,5.1229,5.1229,5.1229,5.1229,5.1229,5.1229,5.1229,5.1229,5.1229,5.1229,5.1229,5.1229,5.1229,5.1229,5.043,4.9161,4.8837,4.8088,4.7043,4.6422,4.637,4.663,4.6317,4.5502,4.4589,4.4615,4.4615,4.4589,4.4589,4.5714,4.7043,4.6733,4.663,4.663,4.663,4.663,4.6733,4.6991,4.7094,4.7094,4.7094,4.7959,4.9063,5.0095,5.0335,5.0335,5.0335,5.0246,5.014,5.0305,5.0023,4.9825,4.9974,4.9819,4.9719,4.9719,4.9553,4.9284,4.8745,4.8117,4.7728,4.7728,4.7728,4.7728,4.7728,4.7728,4.7728,4.7728,4.7728,4.7728,4.7728,4.7728,4.7728,4.7728,4.7728,4.7638,4.7519,4.7519,4.7429,4.3748,4.4377,4.4197,4.3618,4.2521,4.0157,3.4801,3.2138,2.9415,2.4597,2.2622,2.1814,2.1844,2.3071,2.5285,2.9082,3.1719,3.5429,4.1452,4.3159,4.4646,4.701,4.7309,4.7549,4.8147,4.888,4.9523,5.0076,5.0764,5.1229,5.1229,5.1229,5.1229,5.1229,5.1229,5.1229,5.1229,5.1229,5.1229,5.1229,5.1229,5.1229,5.1229,5.1229,5.1229,5.1229,5.1229,5.043,4.9112,4.7808,4.7197,4.6837,4.4372,4.4126,4.5048,4.3797,4.3295,4.3184,4.3184,4.3184,4.3184,4.3184,4.4941,4.6837,4.5555,4.5209,4.5209,4.5209,4.5209,4.5502,4.6785,4.7094,4.7094,4.7094,4.7197,4.7299,4.7453,4.7453,4.7453,4.7453,4.6957,4.6762,4.7369,4.7978,4.8606,4.9184,5.0265,5.105,5.105,5.0465,5.0076,5.0016,4.9464,4.912,4.912,4.912,4.912,4.912,4.912,4.912,4.912,4.912,4.912,4.912,4.912,4.912,4.912,4.912,4.882,4.8207,4.8207,4.7878,4.2961,4.3419,4.3269,4.3778,4.1444,3.7913,3.3844,3.0432,2.6961,2.2742,2.1126,2.0617,2.1036,2.1844,2.337,2.6153,2.9567,3.3095,3.6537,4.1025,4.4197,4.4825,4.6681,4.7997,4.8267,4.894,4.9703,5.075,5.1079,5.1229,5.1229,5.1229,5.1229,5.1229,5.1229,5.1229,5.1229,5.1229,5.1229,5.1229,5.1229,5.1229,5.1229,5.1229,5.0745,4.9969,4.9969,4.8738,4.663,4.6083,4.5342,4.4535,4.3436,4.3351,4.3768,4.3184,4.2986,4.2986,4.2986,4.2986,4.2986,4.2986,4.3768,4.4535,4.3962,4.3797,4.3797,4.3797,4.3797,4.3907,4.4481,4.4643,4.4833,4.5661,4.582,4.6083,4.6888,4.7094,4.735,4.8189,4.8141,4.8304,4.9377,4.9812,5.0088,5.0353,5.087,5.1229,5.1229,5.099,5.0794,5.0794,4.9883,4.9299,4.9299,4.9299,4.9299,4.9299,4.9299,4.9299,4.9299,4.9299,4.9299,4.9299,4.9299,4.9299,4.9299,4.9299,4.9179,4.891,4.891,4.8745,4.0838,4.1833,4.2291,4.297,3.9978,3.5968,3.2677,2.8846,2.5016,2.1436,2.0168,1.9839,2.0318,2.0946,2.1994,2.3759,2.7235,3.0554,3.2886,3.8123,4.1893,4.2363,4.4706,4.6531,4.7339,4.8716,5.0002,5.1139,5.1229,5.1229,5.1229,5.1229,5.1229,5.1229,5.1229,5.1229,5.1229,5.1229,5.1229,5.1229,5.1229,5.1011,5.0603,5.0603,4.9873,4.8589,4.8589,4.7197,4.4994,4.4994,4.4209,4.2986,4.2986,4.2986,4.2986,4.2986,4.2986,4.2986,4.2986,4.2986,4.2986,4.2986,4.2986,4.2986,4.2986,4.2986,4.2986,4.2986,4.2986,4.2986,4.2986,4.2986,4.324,4.4155,4.4725,4.5236,4.6265,4.6785,4.7402,4.8389,4.8589,4.8886,4.9824,5.0335,5.0603,5.0603,5.0964,5.1229,5.1229,5.1229,5.1229,5.1229,5.0391,4.9853,4.9853,4.9853,4.9853,4.9853,4.9853,4.9853,4.9853,4.9853,4.9853,4.9853,4.9853,4.9853,4.9853,4.9853,4.9733,4.9553,4.9553,4.9464,3.6746,3.9379,4.1235,4.0606,3.7973,3.4651,3.13,2.7445,2.3887,2.1226,2.0168,1.9708,1.9708,2.0258,2.1156,2.2493,2.4358,2.7235,3.1839,3.4292,3.6806,4.0038,4.1025,4.2462,4.5065,4.8297,5.0465,5.1169,5.1229,5.1229,5.1229,5.1229,5.1229,5.1229,5.1229,5.1229,5.1229,5.1229,5.1229,5.1229,5.1229,5.0508,4.921,4.921,4.8439,4.7094,4.7094,4.6317,4.4994,4.4994,4.4209,4.2986,4.2986,4.2986,4.2986,4.2986,4.2986,4.2986,4.2986,4.2986,4.2986,4.2986,4.2986,4.2986,4.2986,4.2986,4.2986,4.2986,4.2986,4.2986,4.2986,4.2986,4.2986,4.3042,4.4016,4.4994,4.5048,4.6135,4.7094,4.7094,4.7094,4.7146,4.7146,4.8289,4.921,4.921,5.0335,5.1229,5.1229,5.1229,5.1229,5.1229,5.1199,5.1199,5.1199,5.1199,5.1199,5.1199,5.1199,5.1199,5.1199,5.1199,5.1199,5.1199,5.1199,5.1199,5.1199,5.1199,5.0823,5.0196,5.0196,4.9883,3.3215,3.4352,3.4711,3.4951,3.2198,2.9026,2.75,2.4425,2.1555,2.0288,1.9857,1.9708,1.9708,2.0258,2.1156,2.2493,2.4328,2.6602,2.9445,3.4651,3.8571,3.9619,4.3898,4.7143,4.7981,4.9763,5.0943,5.1199,5.1229,5.1229,5.1229,5.1229,5.1229,5.1229,5.1229,5.1229,5.1229,5.1229,5.1229,5.1182,5.0287,4.963,4.9161,4.8189,4.6991,4.5661,4.5661,4.5395,4.4994,4.5074,4.4805,4.4372,4.4372,4.3797,4.3011,4.3388,4.3539,4.3589,4.3966,4.4091,4.4091,4.4091,4.4091,4.4091,4.4091,4.3589,4.3062,4.3438,4.3815,4.4016,4.3639,4.3539,4.3438,4.3062,4.3351,4.3657,4.3657,4.3962,4.4589,4.5502,4.5661,4.6265,4.8189,4.8886,4.9504,5.043,5.0917,5.1229,5.1229,5.1229,5.1229,5.1229,5.1229,5.1229,5.1229,5.1229,5.1229,5.1229,5.1229,5.1229,5.1229,5.1229,5.1229,5.1229,5.1229,5.1229,5.1229,5.1229,5.1109,5.0853,5.0853,5.078,2.8996,3.0315,3.0881,3.13,2.8607,2.5734,2.5322,2.2682,2.0198,1.9798,1.9708,1.9708,1.9708,2.0258,2.1156,2.2493,2.4328,2.6662,2.9654,3.4622,3.8482,3.9978,4.4885,4.8147,4.8147,5.0002,5.1229,5.1229,5.1229,5.1229,5.1229,5.1229,5.1229,5.1229,5.1229,5.1229,5.1229,5.1229,5.1229,5.1182,4.9824,4.8915,4.8389,4.694,4.5555,4.4264,4.4264,4.4264,0.0,4.4859,4.4883,4.46,4.512,4.462,4.3639,4.3991,4.4116,4.4166,4.4493,4.4618,4.4618,4.4618,4.4618,4.4618,4.4618,4.4141,4.3664,4.4016,4.4367,4.4543,4.4192,4.4116,4.4016,4.3689,4.4015,4.4382,4.4382,4.4801,4.5461,4.6276,4.6437,4.6971,4.8742,4.9048,4.9301,5.0159,5.0307,5.0307,5.0307,5.0307,5.0307,5.0307,5.0307,5.0504,5.1101,5.1137,5.1229,5.1229,5.1229,5.1229,5.1229,5.1229,5.1229,5.1229,5.1229,5.1229,5.1229,5.1229,5.1229,5.1229,5.1229,5.1229,0.0,2.7051,2.9022,2.8992,2.6632,2.4306,2.4276,2.1904,0.0,1.9708,1.9708,1.9708,1.9768,2.0288,2.1156,2.2553,2.4358,2.723,3.1869,3.4562,3.7434,4.1145,4.4526,4.6429,4.6279,4.9239,5.1229,5.1229,5.1229,5.1229,5.1229,5.1229,5.1229,5.1229,5.1229,5.1229,5.1229,5.1229,5.1229,5.1182,4.9854,4.8518,4.7197,4.5714,4.4318,4.3129,4.3042,4.3098,4.329,4.4533,4.4678,4.4124,4.5474,4.5421,4.4644,4.4669,4.4694,4.4694,4.4744,4.4744,4.4744,4.4744,4.4744,4.4744,4.4744,4.4719,4.4694,4.4694,4.4719,4.4744,4.4694,4.4694,4.4669,4.4644,4.5577,4.654,4.654,4.7592,4.8516,4.8516,4.8516,4.8516,4.8624,4.8624,4.8677,4.8784,4.8784,4.8784,4.8784,4.8784,4.8784,4.8784,4.8784,4.937,5.0886,5.114,5.1208,5.1349,5.1349,5.1349,5.1349,5.1349,5.1349,5.1349,5.1349,5.1349,5.1349,5.1349,5.1319,5.1289,5.1289,5.1259,2.0876,0.0,2.343,2.2921,2.2183,2.1465,0.0,2.0258,1.9708,1.9708,1.9708,1.9857,2.0378,2.0569,2.1286,2.3101,2.4627,2.723,3.1869,3.7669,4.1974,4.3449,4.6561,4.7967,4.6429,4.9239,5.1229,5.1229,5.1229,5.1229,5.1229,5.1229,5.1229,5.1229,5.1229,5.1229,5.1229,5.1229,5.1229,5.1182,4.9824,4.9014,4.8638,4.6135,4.4833,4.4481,4.3436,4.3857,4.5213,4.5571,4.5802,4.6021,4.6356,4.5757,4.4669,4.5121,4.5271,4.5347,4.5773,4.5924,4.5924,4.5924,4.5924,4.5924,4.5924,4.5623,4.5271,4.5271,4.5573,4.5824,4.5397,4.5271,4.5171,4.4719,4.4825,4.5113,4.5113,4.5317,4.5602,4.5602,4.5602,4.5917,4.6986,4.7207,4.7592,4.8624,4.8784,4.8784,4.8784,4.8784,4.8784,4.8784,4.8784,4.937,5.0886,5.1034,5.1511,5.2677,5.2725,5.2725,5.2725,5.2725,5.2725,5.2725,5.2725,5.2725,5.2725,5.2725,5.2456,5.1977,5.1977,5.1708,1.9708,2.0247,2.0696,2.0318,2.0228,2.0139,1.9798,1.9708,1.9708,1.9708,1.9929,2.0258,2.0628,2.2443,2.3999,2.4448,2.8188,3.2317,3.6058,3.9978,4.3,4.4586,4.6621,4.7967,4.8073,5.0002,5.1229,5.1229,5.1229,5.1229,5.1229,5.1229,5.1229,5.1229,5.1229,5.1229,5.1229,5.1229,5.1229,5.1182,4.9824,4.8837,4.8189,4.5978,4.4828,4.4403,4.3675,4.4091,4.5365,4.6009,4.6238,4.6217,4.6848,4.6346,4.5447,4.5748,4.5874,4.5899,4.62,4.6301,4.6301,4.6301,4.6301,4.6301,4.6301,4.61,4.5874,4.5874,4.6075,4.625,4.5949,4.5874,4.5773,4.5472,4.5397,4.5397,4.5397,4.5397,4.5397,4.5397,4.5933,4.6431,4.6489,4.7612,4.8538,4.862,4.9228,4.9692,4.9692,4.9692,4.9692,4.9692,4.9692,5.0314,5.1799,5.1903,5.2289,5.3155,5.3174,5.3174,5.3174,5.3174,5.3174,5.3174,5.3174,5.3174,5.3174,5.3174,5.2995,5.2665,5.2665,5.2456,1.9708,2.0067,2.0337,1.9828,1.9708,1.9738,1.9828,1.9839,1.9887,1.9977,2.0468,2.1047,2.1645,2.4717,2.7016,2.6572,3.2736,3.8512,4.1294,4.2013,4.303,4.5065,4.6172,4.7578,4.9538,5.0661,5.1229,5.1229,5.1229,5.1229,5.1229,5.1229,5.1229,5.1229,5.1229,5.1229,5.1229,5.1229,5.1229,5.1182,4.9824,4.8646,4.7489,4.5848,4.4814,4.4232,4.4029,4.4242,4.4802,4.6047,4.618,4.5716,4.6843,4.692,4.6301,4.6301,4.6301,4.6301,4.6301,4.6301,4.6301,4.6301,4.6301,4.6301,4.6301,4.6301,4.6301,4.6301,4.6301,4.6301,4.6301,4.6301,4.6301,4.6301,4.6301,4.6301,4.6301,4.6301,4.6301,4.6301,4.7324,4.7769,4.6541,4.8332,4.9621,4.8358,4.9224,5.0045,5.0045,5.0045,5.0045,5.0045,5.0045,5.0657,5.2187,5.2295,5.245,5.2782,5.3277,5.3503,5.3503,5.3503,5.3503,5.3503,5.3503,5.3503,5.3503,5.3503,5.3443,5.3324,5.3324,5.3294,1.9708,2.1724,2.317,2.0378,1.9708,1.9857,2.0438,2.0557,2.0707,2.1276,2.1455,2.2562,2.5937,2.5734,2.6279,2.9986,3.4921,3.9349,4.2542,4.4975,4.6112,4.5394,4.7369,4.8536,4.7818,4.9853,5.1229,5.1229,5.1229,5.1229,5.1229,5.1229,5.1229,5.1229,5.1229,5.1229,5.1229,5.1229,5.1229,5.1182,4.9824,4.9322,4.9487,4.6892,4.5965,4.6212,4.4986,4.4819,4.5347,4.5582,4.591,4.6175,4.639,4.6405,4.6301,4.6301,4.6301,4.6301,4.6301,4.6301,4.6301,4.6301,4.6301,4.6301,4.6301,4.6301,4.6301,4.6301,4.6301,4.6301,4.6301,4.6301,4.6301,4.6301,4.6301,4.6301,4.6301,4.6301,4.6301,4.6301,4.6481,4.6601,4.6361,4.6695,4.6909,4.6636,4.6815,4.6968,4.6968,4.6968,4.6968,4.6968,4.6968,4.7593,4.908,4.9194,4.9709,5.0984,5.3487,5.488,5.488,5.488,5.488,5.488,5.488,5.488,5.488,5.488,5.461,5.4042,5.4042,5.3743,1.9708,2.1066,2.2452,2.2383,2.3699,2.5129,2.5435,2.5764,2.5674,2.4567,2.4926,2.6093,2.8274,2.9654,3.2587,3.902,3.9738,4.0636,4.3928,4.4526,4.4945,4.5753,4.7249,4.8536,4.9344,5.0511,5.1229,5.1229,5.1229,5.1229,5.1229,5.1229,5.1229,5.1229,5.1229,5.1229,5.1229,5.1558,5.1558,5.1182,5.0126,4.9345,4.8813,4.7082,4.6234,4.6007,4.5363,4.5422,4.5924,4.5924,4.6075,4.6301,4.6301,4.6301,4.6301,4.6301,4.6301,4.6301,4.6301,4.6301,4.6301,4.6301,4.6301,4.6301,4.6301,4.6301,4.6301,4.6301,4.6301,4.6301,4.6301,4.6301,4.6301,4.6301,4.6301,4.6301,4.6301,4.6301,4.6301,4.6301,4.6934,4.7265,4.6421,4.7626,4.8416,4.7593,4.8184,4.8678,4.8678,4.8678,4.8678,4.8678,4.8678,4.9281,5.0796,5.0906,5.1236,5.1889,5.2455,5.3489,5.5128,5.4406,5.4016,5.4016,5.4794,5.4794,5.4016,5.4794,5.5029,5.473,5.473,5.4581,1.9708,2.0737,2.2362,2.4515,2.6542,2.8364,2.9714,3.0043,2.9744,2.8667,2.9146,3.0073,3.121,3.4173,3.8452,4.4676,4.312,4.2192,4.5334,4.4586,4.4556,4.677,4.7578,4.8835,5.102,5.1229,5.1229,5.1229,5.1229,5.1229,5.1229,5.1229,5.1229,5.1229,5.1229,5.1101,5.0935,5.1439,5.1439,5.0887,5.0125,4.9066,4.7756,4.6819,4.6174,4.5673,4.5673,4.5924,4.6301,4.6301,4.6301,4.6301,4.6301,4.6301,4.6301,4.6301,4.6301,4.6301,4.6301,4.6301,4.6301,4.6301,4.6301,4.6301,4.6301,4.6301,4.6301,4.6301,4.6301,4.6301,4.6301,4.6301,4.6301,4.6301,4.6301,4.6301,4.6301,4.6301,4.6301,4.6301,4.7205,4.7652,4.6481,4.8184,4.9281,4.8152,4.8965,4.9651,4.9651,4.9651,4.9651,4.9651,4.9651,5.0296,5.1809,5.2241,5.2615,5.2963,5.2213,5.2775,5.5078,5.4119,5.3518,5.3518,5.4641,5.4641,5.3518,5.4641,5.5179,5.5179,5.5179,5.5179,1.9708,2.2413,2.5435,2.6243,2.4829,2.465,3.0105,3.0013,2.9714,3.3216,3.3484,3.3903,3.6387,3.8093,3.9529,4.0696,4.2192,4.4107,4.677,4.7549,4.8147,4.9,4.9643,5.0285,5.1139,5.1229,5.1229,5.1229,5.1229,5.1229,5.1229,5.1229,5.1229,5.1229,5.1229,5.0851,5.0075,5.0133,5.0133,5.0104,4.9346,4.8491,4.7502,4.6167,4.5842,4.625,4.625,4.6276,4.6301,4.6301,4.6301,4.6301,4.6301,4.6301,4.6301,4.6301,4.6301,4.6301,4.6301,4.6301,4.6301,4.6301,4.6301,4.6301,4.6301,4.6301,4.6301,4.6301,4.6301,4.6301,4.6301,4.6301,4.6301,4.6301,4.6301,4.6301,4.6301,4.6301,4.6301,4.6301,4.6361,4.6421,4.6301,4.6481,4.6576,4.6481,4.6541,4.6636,4.6636,4.6636,4.6636,4.6636,4.6636,4.7205,4.8705,5.0045,5.1481,5.291,5.42,5.4976,5.5179,5.5078,5.5027,5.5027,5.5128,5.5128,5.5027,5.5128,5.5179,5.5179,5.5179,5.5179,2.0198,2.3221,2.6482,2.756,2.8008,2.9388,3.4082,3.4921,3.4891,3.5579,3.6836,3.7973,3.8542,4.1773,4.3988,4.3,4.4526,4.6322,4.7728,4.8476,4.9134,4.9793,5.0451,5.0913,5.1199,5.1229,5.1229,5.1229,5.1229,5.1229,5.1229,5.1229,5.1229,5.1229,5.0718,5.0328,4.9983,4.9855,4.9324,4.8437,4.8161,4.7846,4.7464,4.6425,4.6125,4.6301,4.6301,4.6301,4.6301,4.6301,4.6301,4.6301,4.6301,4.6301,4.6301,4.6301,4.6301,4.6301,4.6301,4.6301,4.6301,4.6301,4.6301,4.6301,4.6301,4.6301,4.6301,4.6301,4.6301,4.6301,4.6301,4.6301,4.6301,4.6301,4.6301,4.6301,4.6301,4.6301,4.6301,4.6301,4.6301,4.6301,4.6301,4.6301,4.6301,4.6301,4.6301,4.6301,4.6301,4.6301,4.6301,4.6301,4.7146,4.786,4.8416,4.9847,5.0933,5.1536,5.2105,5.3227,5.5128,5.4304,5.3384,5.2427,5.3332,5.291,5.1016,5.1943,5.2881,5.386,5.386,5.4304,2.1794,2.4358,2.7405,2.9355,3.0494,3.2437,3.7255,3.8212,3.8362,3.9379,4.0846,4.1683,4.0778,4.3958,4.6142,4.4556,4.5992,4.7549,4.8207,4.891,4.9494,5.0106,5.0764,5.1229,5.1229,5.1229,5.1229,5.1229,5.1229,5.1229,5.1229,5.1229,5.1319,5.1528,5.0554,5.0184,5.0637,5.0029,4.9088,4.781,4.781,4.7581,4.7114,4.6577,4.6301,4.6301,4.6301,4.6301,4.6301,4.6301,4.6301,4.6301,4.6301,4.6301,4.6301,4.6301,4.6301,4.6301,4.6301,4.6301,4.6301,4.6301,4.6301,4.6301,4.6301,4.6301,4.6301,4.6301,4.6301,4.6301,4.6301,4.6301,4.6301,4.6301,4.6301,4.6301,4.6301,4.6301,4.6301,4.6301,4.6301,4.6301,4.6301,4.6301,4.6301,4.6301,4.6301,4.6301,4.6301,4.6301,4.6301,4.6301,4.8035,4.9167,4.9167,5.0989,5.2105,5.2105,5.2105,5.2615,5.3727,5.2775,5.1781,5.0713,5.1727,5.1509,4.993,5.0933,5.2213,5.3675,5.3675,5.4252,2.4575,2.6063,2.8423,3.1689,3.1539,3.2317,3.8931,3.8871,3.914,4.5053,4.5783,4.4885,4.3529,4.4436,4.5095,4.4436,4.5992,4.7549,4.8207,4.891,4.9523,5.0136,5.0794,5.1229,5.1229,5.1229,5.1229,5.1229,5.1229,5.1229,5.1229,5.1229,5.1528,5.2187,5.0787,5.0666,5.2012,5.0477,4.9306,4.8474,4.8474,4.771,4.6301,4.6301,4.6301,4.6301,4.6301,4.6301,4.6301,4.6301,4.6301,4.6301,4.6301,4.6301,4.6301,4.6301,4.6301,4.6301,4.6301,4.6301,4.6301,4.6301,4.6301,4.6301,4.6301,4.6301,4.6301,4.6301,4.6301,4.6301,4.6301,4.6301,4.6301,4.6301,4.6301,4.6301,4.6301,4.6301,4.6301,4.6301,4.6301,4.6301,4.6301,4.6301,4.6301,4.6301,4.6301,4.6301,4.6301,4.6301,4.6301,4.6301,4.8939,5.0657,5.0657,5.3384,5.5128,5.5128,5.5128,5.3779,5.0878,5.0768,5.0768,5.0713,5.0713,5.1481,5.2963,5.2963,5.3756,5.5179,5.5179,5.5179,2.3011,2.6722,3.0554,3.154,3.465,3.8212,4.1153,4.0606,4.0816,4.5352,4.5394,4.4496,4.4107,4.5484,4.6172,4.4586,4.6381,4.8237,4.894,4.9553,5.0182,5.0794,5.1109,5.1229,5.1229,5.1229,5.1229,5.1229,5.1229,5.1229,5.1229,5.1648,5.2007,5.2187,5.1662,5.1586,5.2012,4.9941,4.8748,4.8474,4.7416,4.6695,4.6301,4.6301,4.6301,4.6301,4.6301,4.6301,4.6301,4.6301,4.6301,4.6301,4.6301,4.6301,4.6301,4.6301,4.6301,4.6301,4.6301,4.6301,4.6301,4.6301,4.6301,4.6301,4.6301,4.6301,4.6301,4.6301,4.6301,4.6301,4.6301,4.6301,4.6301,4.6301,4.6301,4.6301,4.6301,4.6301,4.6301,4.6301,4.6301,4.6301,4.6301,4.6301,4.6301,4.6301,4.6301,4.6301,4.6301,4.7205,4.7416,4.6421,4.8035,4.8736,4.7684,4.8416,4.8935,4.8935,4.8935,5.0407,5.3727,5.3831,5.3384,5.2348,5.2348,5.1997,5.1372,5.1372,5.2159,5.3623,5.3623,5.42,2.6841,2.9983,3.2856,3.525,3.8123,4.1025,4.3389,4.3539,4.3838,4.6232,4.6292,4.5813,4.5544,4.6711,4.7219,4.5753,4.707,4.8506,4.9209,4.9823,5.0435,5.1139,5.1229,5.1229,5.1229,5.1229,5.1229,5.1229,5.1229,5.1083,5.0766,5.1661,5.2185,5.2122,5.2049,5.2156,5.2387,5.0381,4.908,4.8474,4.7593,4.6874,4.6301,4.6301,4.6301,4.6301,4.6301,4.6301,4.6301,4.6301,4.6301,4.6301,4.6301,4.6301,4.6301,4.6301,4.6301,4.6301,4.6301,4.6301,4.6301,4.6301,4.6301,4.6301,4.6301,4.6301,4.6301,4.6301,4.6301,4.6301,4.6301,4.6301,4.6301,4.6301,4.6301,4.6301,4.6301,4.6301,4.6301,4.6301,4.6301,4.6301,4.6301,4.6301,4.6301,4.6301,4.6301,4.6301,4.6301,4.7087,4.7324,4.6361,4.7833,4.8466,4.7573,4.8229,4.8714,4.8714,4.8714,5.0351,5.3926,5.2497,5.1236,5.0351,5.0351,5.0184,4.9847,4.9847,5.0906,5.3016,5.3016,5.3808,3.3125,3.4292,3.513,4.0823,4.1564,4.1893,4.5574,4.686,4.7309,4.7309,4.7788,4.8027,4.7429,4.7788,4.7997,4.7399,4.7908,4.8566,4.9209,4.9883,5.0495,5.1139,5.1229,5.1229,5.1229,5.1229,5.1229,5.1229,5.1289,5.1006,5.0233,5.1571,5.2368,5.2191,5.2151,5.2387,5.3016,5.1318,4.9847,4.8474,4.8358,4.7593,4.6301,4.6301,4.6301,4.6301,4.6301,4.6301,4.6301,4.6301,4.6301,4.6301,4.6301,4.6301,4.6301,4.6301,4.6301,4.6301,4.6301,4.6301,4.6301,4.6301,4.6301,4.6301,4.6301,4.6301,4.6301,4.6301,4.6301,4.6301,4.6301,4.6301,4.6301,4.6301,4.6301,4.6301,4.6301,4.6301,4.6301,4.6301,4.6301,4.6301,4.6301,4.6301,4.6301,4.6301,4.6351,4.6376,4.6376,4.6547,4.6632,4.6451,4.8221,4.9311,4.9193,5.1022,5.2218,5.2218,5.2391,5.2449,5.2449,4.8858,4.6907,4.7087,4.7061,4.7807,4.9297,4.9297,5.0656,5.3261,5.3261,5.3971,2.8633,3.2527,3.6656,3.9978,4.294,4.5394,4.677,4.7219,4.7309,4.7309,4.7429,4.7489,4.7339,4.7429,4.7459,4.7339,4.8297,4.9149,4.9299,5.0272,5.105,5.1199,5.1229,5.1229,5.1229,5.1229,5.1229,5.1229,5.1708,5.1894,5.1725,5.3028,5.3744,5.3713,5.3105,5.2819,5.3016,5.0296,4.8793,4.8474,4.7324,4.6576,4.6301,4.6301,4.6301,4.6301,4.6301,4.6301,4.6301,4.6301,4.6301,4.6301,4.6301,4.6301,4.6301,4.6301,4.6301,4.6301,4.6301,4.6301,4.6301,4.6301,4.6301,4.6301,4.6301,4.6301,4.6301,4.6301,4.6301,4.6301,4.6301,4.6301,4.6301,4.6301,4.6301,4.6301,4.6301,4.6301,4.6301,4.6301,4.6301,4.6301,4.6301,4.6301,4.6301,4.6301,4.6677,4.6954,4.6954,4.8351,4.8911,4.768,4.9015,4.9523,4.8299,4.9774,5.0783,5.0783,5.1929,5.2678,5.2678,5.1625,5.1692,5.2967,5.2967,5.3746,5.527,5.527,5.5354,5.5515,5.5515,5.5402,2.9804,3.2706,3.5429,4.0905,4.4077,4.6082,4.707,4.7309,4.7309,4.7309,4.7309,4.7309,4.7309,4.7309,4.7399,4.7728,4.8626,4.9419,4.9673,5.0601,5.1229,5.1229,5.1229,5.1229,5.1229,5.1229,5.1229,5.1229,5.1828,5.2018,5.1679,5.257,5.299,5.2549,5.2124,5.1889,5.1889,4.9648,4.8474,4.8474,4.6968,4.6301,4.6301,4.6301,4.6301,4.6301,4.6301,4.6301,4.6301,4.6301,4.6301,4.6301,4.6301,4.6301,4.6301,4.6301,4.6301,4.6301,4.6301,4.6301,4.6301,4.6301,4.6301,4.6301,4.6301,4.6301,4.6301,4.6301,4.6301,4.6376,4.6652,4.6702,4.6778,4.7004,4.6677,4.6301,4.6301,4.6301,4.6376,4.6652,4.6702,4.6778,4.7029,4.7079,4.7079,4.7079,4.733,4.7506,4.7506,4.9092,4.9672,4.8094,4.9567,5.0332,4.9564,4.976,5.0322,5.1091,5.1213,5.1186,5.1186,5.1823,5.2736,5.3754,5.3809,5.3809,5.3837,5.4641,5.4826,5.4454,5.5211,5.5752,3.148,3.3455,3.4739,4.2551,4.4975,4.5783,4.701,4.7309,4.7309,4.7309,4.7309,4.7309,4.7309,4.7309,4.7519,4.8177,4.888,4.9494,5.0106,5.0764,5.1229,5.1229,5.1229,5.1229,5.1229,5.1229,5.1165,5.1018,5.1834,5.2023,5.1206,5.1788,5.186,5.1125,5.0602,5.0324,5.0324,4.8851,4.8152,4.8094,4.6874,4.6301,4.6301,4.6301,4.6301,4.6301,4.6301,4.6301,4.6301,4.6301,4.6301,4.6301,4.6301,4.6301,4.6301,4.6301,4.6301,4.6301,4.6301,4.6301,4.6301,4.6301,4.6301,4.6326,4.6426,4.6451,4.6476,4.6552,4.6577,4.6702,4.7154,4.728,4.738,4.7807,4.723,4.6577,4.6577,4.6577,4.6728,4.7179,4.728,4.7405,4.7832,4.7908,4.7908,4.7908,4.7983,4.8058,4.8058,4.9322,4.968,4.8309,4.9811,5.09,5.09,5.0344,5.06,5.1927,5.1042,5.0563,5.079,5.2086,5.312,5.381,5.3555,5.2752,5.1406,5.2752,5.3442,5.3472,5.4537,5.5796,2.6931,3.2976,3.9469,4.4018,4.5693,4.6381,4.713,4.7309,4.7309,4.7309,4.7309,4.7309,4.7309,4.7309,4.7519,4.8177,4.888,4.9494,5.0106,5.0764,5.1229,5.1229,5.1229,5.1229,5.1229,5.1229,5.0935,5.0188,5.1974,5.2704,5.192,5.2502,5.2824,5.2697,5.0128,4.8793,4.8793,4.7298,4.6601,4.6601,4.6361,4.6301,4.6301,4.6301,4.6301,4.6301,4.6301,4.6301,4.6301,4.6301,4.6301,4.6301,4.6301,4.6301,4.6301,4.6301,4.6301,4.6301,4.6301,4.6301,4.6301,4.6301,4.6301,4.6401,4.6878,4.6968,4.7129,4.7581,4.7707,4.7707,4.7782,4.7807,4.7832,4.7883,4.7807,4.7707,4.7707,4.7707,4.7707,4.7782,4.7807,4.7832,4.7908,4.7908,4.7908,4.7908,4.8335,4.8661,4.8661,4.9254,4.962,4.9364,4.9632,4.9785,4.9785,5.0991,5.1803,5.1989,5.3126,5.4386,5.5705,5.5964,5.6762,5.8204,5.6899,5.6051,5.5823,5.6051,5.6609,5.7345,5.6113,5.6151,2.723,3.3185,3.8811,4.312,4.4975,4.5933,4.6591,4.704,4.7309,4.7309,4.7309,4.7309,4.7309,4.7309,4.7638,4.87,4.912,4.9613,5.0631,5.0973,5.1229,5.1229,5.1229,5.1229,5.1229,5.1229,5.0869,5.0054,5.1994,5.2444,5.0823,5.1335,5.1727,5.1727,4.8793,4.8094,4.9734,4.7475,4.6301,4.6301,4.6301,4.6301,4.6301,4.6301,4.6301,4.6301,4.6301,4.6301,4.6301,4.6301,4.6301,4.6301,4.6301,4.6301,4.6301,4.6301,4.6301,4.6351,4.6652,4.6778,4.6828,4.7104,4.7205,4.7255,4.7481,4.7556,4.7606,4.7832,4.7908,4.7983,4.8309,4.8385,4.846,4.8786,4.8862,4.8862,4.8862,4.836,4.8008,4.8335,4.8636,4.8862,4.8862,4.8862,4.8862,4.8862,4.9063,4.9238,4.9238,5.0219,5.06,4.9719,5.0436,5.133,5.2236,5.2112,5.2761,5.4536,5.4505,5.4682,5.5385,5.6251,5.6622,5.6451,5.7496,5.7608,5.6736,5.7608,5.7768,5.7309,5.7474,5.7794,2.7026,3.1569,3.5489,4.0756,4.294,4.4197,4.5723,4.6561,4.707,4.707,4.7189,4.7309,4.7309,4.7309,4.7728,4.909,4.9299,4.9733,5.102,5.1229,5.1229,5.1229,5.1229,5.1229,5.1229,5.0917,5.0562,5.0284,5.1736,5.1868,5.0049,5.0464,5.0546,5.0157,4.7626,4.7357,4.9565,4.7416,4.6301,4.6301,4.6301,4.6301,4.6301,4.6301,4.6376,4.6502,4.6376,4.6301,4.6326,4.6451,4.6527,4.6527,4.6652,4.6728,4.6728,4.6728,4.6728,4.6778,4.7179,4.733,4.738,4.7782,4.7908,4.7933,4.8083,4.8134,4.8159,4.8284,4.8335,4.8435,4.8862,4.8987,4.9088,4.949,4.959,4.959,4.959,4.8937,4.846,4.8912,4.9314,4.959,4.959,4.959,4.959,4.959,4.959,4.959,4.959,5.1016,5.1393,4.9783,5.1016,5.2455,5.367,5.27,5.316,5.5964,5.5035,5.4592,5.4976,5.6079,5.6366,5.5618,5.7915,5.8331,5.6736,5.7915,5.8081,5.7328,5.8081,5.8689,2.3947,2.6452,2.9771,3.6866,3.92,4.0726,4.4496,4.5873,4.6339,4.6339,4.686,4.7309,4.7309,4.7309,4.7728,4.909,4.9299,4.9733,5.102,5.1229,5.1229,5.1229,5.1229,5.1229,5.1229,5.0047,4.9779,5.0896,5.1084,5.1033,5.0657,5.0685,5.0045,4.8647,4.7087,4.6361,4.6541,4.6361,4.6301,4.6301,4.6301,4.6301,4.6301,4.6301,4.6602,4.7054,4.6552,4.6301,4.6351,4.6878,4.7043,4.7129,4.7631,4.7832,4.7832,4.7832,4.7832,4.7832,4.7857,4.7857,4.7883,4.7908,4.7908,4.8008,4.856,4.8736,4.8837,4.9364,4.9515,4.9515,4.954,4.9565,4.9565,4.959,4.959,4.959,4.959,4.954,4.9515,4.954,4.9565,4.959,4.959,4.959,4.959,4.959,4.959,4.959,4.959,5.1016,5.1393,4.9783,5.1016,5.2024,5.2112,5.2024,5.27,5.4386,5.4446,5.5035,5.648,5.665,5.7384,5.8828,5.8991,5.8331,5.6736,5.6792,5.7552,5.8936,5.7496,5.7608,2.3349,2.5113,2.7111,3.3125,3.6716,3.923,4.1115,4.4018,4.6279,4.6279,4.686,4.7309,4.7309,4.7309,4.7728,4.909,4.9299,4.9733,5.102,5.1229,5.1229,5.1229,5.1229,5.1229,5.1229,4.9969,4.968,5.0925,5.0209,4.9604,4.9284,4.9308,4.9022,4.8532,4.7087,4.6301,4.6301,4.6301,4.6301,4.6301,4.6301,4.6502,4.6828,4.6828,4.7129,4.7606,4.7431,4.733,4.7355,4.7556,4.7631,4.7657,4.7832,4.7908,4.7908,4.7908,4.7908,4.7958,4.8335,4.846,4.851,4.8862,4.8987,4.9038,4.9238,4.9289,4.9339,4.954,4.959,4.959,4.959,4.959,4.959,4.959,4.959,4.959,4.959,4.959,4.959,4.959,4.959,4.959,4.959,4.959,4.959,4.959,4.959,4.959,4.959,5.0078,5.0245,4.9654,5.0142,5.0916,5.1927,5.2944,5.4208,5.5791,5.5849,5.6137,5.665,5.5734,5.5964,5.7552,5.7552,5.7804,5.8276,5.8276,5.858,5.9099,5.8495,5.858,2.1267,2.2601,2.4126,2.8969,3.2497,3.5459,3.8123,4.1654,4.4646,4.5753,4.6681,4.7309,4.7309,4.7309,4.7728,4.909,4.9299,4.9733,5.102,5.1229,5.1229,5.1229,5.1229,5.1229,5.1229,4.9582,4.9381,5.1562,4.9553,4.8517,4.9171,4.8762,4.8268,4.7743,4.6815,4.6301,4.6301,4.6301,4.6401,4.6602,4.6602,4.6878,4.738,4.738,4.7682,4.8209,4.8209,4.8083,4.7933,4.8109,4.8209,4.8209,4.841,4.8485,4.8485,4.8485,4.8485,4.8535,4.8912,4.9063,4.9113,4.9464,4.959,4.959,4.959,4.959,4.959,4.959,4.959,4.959,4.959,4.959,4.959,4.959,4.959,4.959,4.959,4.959,4.959,4.959,4.959,4.959,4.959,4.959,4.959,4.959,4.959,4.959,4.959,5.0078,5.0181,4.9654,5.0078,5.0853,5.1927,5.3489,5.5035,5.6593,5.7187,5.7496,5.7496,5.6508,5.6451,5.7496,5.7496,5.8026,5.9099,5.9099,5.9099,5.9099,5.9099,5.9099,0.0,0.0,0.0,2.4477,2.6482,2.9232,3.5639,3.8811,4.1265,4.4466,4.6292,4.7309,4.7279,4.7309,4.7758,4.912,4.9299,4.9748,5.102,5.1199,5.1199,5.1229,5.1229,5.1229,5.1229,4.8688,4.8799,5.286,4.9236,4.7936,5.0575,4.9224,4.7743,4.6361,4.6301,4.6301,4.6301,4.6326,4.6602,4.7068,4.7093,4.7431,4.7933,4.7933,4.8259,4.8786,4.8786,4.8485,4.8008,4.856,4.8786,4.8837,4.9389,4.959,4.959,4.959,4.959,4.959,4.959,4.959,4.959,4.959,4.959,4.959,4.959,4.959,4.959,4.959,4.959,4.959,4.959,4.959,4.959,4.959,4.959,4.959,4.959,4.959,4.959,4.959,4.959,4.959,4.959,4.959,4.959,4.959,4.959,4.959,4.959,5.1016,5.1393,4.9822,5.1079,5.2086,5.2086,5.3549,5.5094,5.6622,5.8166,5.9045,5.9045,5.8991,5.8991,5.9045,5.9045,5.9045,5.9099,5.9099,5.9099,5.9099,5.9099,5.9099,1.6936,0.0,0.0,0.0,0.0,0.0,2.9681,3.516,3.9948,4.0846,4.4377,4.716,4.6681,4.7369,4.8297,4.9179,4.891,4.9015,5.0285,5.0465,5.0644,5.1169,5.1229,5.1229,5.1229,4.8688,4.8799,5.286,4.8273,4.6839,5.0519,4.83,4.6695,4.6301,4.6301,4.6301,4.6301,4.6702,4.6918,4.7068,4.7506,4.7983,4.8535,4.8535,4.8837,4.9364,4.9364,4.9264,4.9138,4.9314,4.9364,4.9389,4.954,4.959,4.959,4.959,4.959,4.959,4.959,4.959,4.959,4.959,4.959,4.959,4.959,4.959,4.959,4.959,4.959,4.959,4.959,4.959,4.959,4.959,4.959,4.959,4.959,4.959,4.959,4.959,4.959,4.959,4.959,4.959,4.959,4.959,4.959,4.959,4.959,5.1016,5.1865,5.1393,5.2761,5.373,5.373,5.5152,5.6251,5.665,5.7131,5.7384,5.7384,5.628,5.6223,5.7328,5.7384,5.7915,5.9099,5.9099,5.9099,5.9099,5.9099,5.9099,1.7443,1.7818,1.8356,1.942,0.0,0.0,2.8368,3.3245,3.7823,4.0808,4.4347,4.6681,4.6022,4.698,4.7908,4.8027,4.7938,4.8416,4.9956,5.0002,5.0062,5.0674,5.0764,5.0853,5.1199,4.9259,4.9316,5.2521,4.8217,4.6466,4.8713,4.7239,4.6301,4.6301,4.6301,4.6426,4.6652,4.6979,4.7355,4.7832,4.8134,4.856,4.9113,4.9113,4.9289,4.959,4.959,4.959,4.959,4.959,4.959,4.959,4.959,4.959,4.959,4.959,4.959,4.959,4.959,4.959,4.959,4.959,4.959,4.959,4.959,4.959,4.959,4.959,4.959,4.959,4.959,4.959,4.959,4.959,4.959,4.959,4.959,4.959,4.959,4.959,4.959,4.9847,5.0499,5.06,5.0853,5.1518,5.158,5.158,5.158,5.242,5.3005,5.3005,5.385,5.4386,5.4386,5.5791,5.6736,5.6736,5.7328,5.7664,5.7664,5.6849,5.6792,5.7664,5.7664,5.8166,5.9099,5.9099,5.9099,5.9099,5.9099,5.9099,1.8565,1.8642,1.8852,1.9438,2.0079,0.0,2.882,3.1569,3.4562,4.1025,4.3778,4.4796,4.4107,4.5214,4.6022,4.5424,4.6202,4.7638,4.9777,4.9643,4.9523,5.0226,5.0315,5.0524,5.1169,4.9824,4.9794,5.1839,4.8772,4.6633,4.621,4.6276,4.6301,4.6301,4.6301,4.6577,4.7068,4.7143,4.7732,4.8761,4.8837,4.9113,4.959,4.959,4.959,4.959,4.959,4.959,4.959,4.959,4.959,4.959,4.959,4.959,4.959,4.959,4.959,4.959,4.959,4.959,4.959,4.959,4.959,4.959,4.959,4.959,4.959,4.959,4.959,4.959,4.959,4.959,4.959,4.959,4.959,4.959,4.959,4.959,4.959,4.959,4.959,5.0078,5.1492,5.1741,5.2236,5.367,5.385,5.385,5.385,5.4029,5.4149,5.4149,5.4268,5.4386,5.4386,5.5791,5.6736,5.6736,5.8221,5.9099,5.9099,5.9099,5.9099,5.9099,5.9099,5.9099,5.9099,5.9099,5.9099,5.9099,5.9099,5.9099,1.8864,1.8296,1.8732,1.8852,1.939,0.0,2.2362,2.5465,2.8338,2.9744,3.3634,3.6596,3.5908,3.7734,3.929,3.917,4.1914,4.5364,4.8955,4.9389,4.9703,5.09,5.102,5.1079,5.1199,4.8964,4.8342,5.0461,4.8679,4.695,4.5741,4.6075,4.6301,4.6301,4.6301,4.6577,4.7068,4.7556,4.8109,4.8786,4.9213,4.949,4.959,4.959,4.959,4.959,4.959,4.959,4.959,4.959,4.959,4.959,4.959,4.959,4.959,4.959,4.959,4.959,4.959,4.959,4.959,4.959,4.959,4.959,4.959,4.959,4.959,4.959,4.959,4.959,4.959,4.959,4.959,4.959,4.959,4.959,4.959,4.959,4.959,4.959,4.959,4.9719,5.0014,5.0078,5.0181,5.0499,5.0563,5.0563,5.0563,5.1678,5.2455,5.2455,5.361,5.4386,5.4386,5.5791,5.6736,5.6736,5.8221,5.9099,5.9099,5.9099,5.9099,5.9099,5.9099,5.9099,5.9099,5.9099,5.9099,5.9099,5.9099,5.9099,2.027,1.9211,1.9181,1.9181,1.9468,0.0,0.0,2.4687,2.6662,2.8637,3.142,3.3305,3.2647,3.4382,3.5848,3.5519,3.9349,4.2491,4.289,4.6065,4.8895,5.0495,5.0451,5.0511,5.1139,4.9357,4.8139,4.8058,4.7919,4.711,4.5565,4.5748,4.6024,4.6301,4.6577,4.6979,4.7506,4.8058,4.8611,4.9188,4.9464,4.959,4.959,4.959,4.959,4.959,4.959,4.959,4.959,4.959,4.959,4.959,4.959,4.959,4.959,4.959,4.959,4.959,4.959,4.959,4.959,4.959,4.959,4.959,4.959,4.959,4.959,4.959,4.959,4.959,4.959,4.959,4.959,4.959,4.959,4.959,4.959,4.959,4.959,4.959,4.959,4.9822,5.0664,5.079,5.1079,5.1865,5.1989,5.1989,5.1989,5.2727,5.3489,5.424,5.5066,5.5849,5.6679,5.744,5.7915,5.7915,5.8634,5.9099,5.9099,5.9099,5.9099,5.9099,5.9099,5.9099,5.9099,5.9099,5.9099,5.9099,5.9099,5.9099,2.2203,2.0498,1.9887,1.9887,1.9798,2.0546,0.0,0.0,0.0,2.8581,2.9747,3.0046,2.9507,3.0971,3.2018,3.133,3.5549,3.8003,3.534,4.0666,4.5603,4.7654,4.8835,4.9583,4.9853,4.8698,4.7393,4.603,4.625,4.6218,4.5515,4.5497,4.5748,4.6301,4.6853,4.738,4.7908,4.8485,4.9063,4.959,4.959,4.959,4.959,4.959,4.959,4.959,4.959,4.959,4.959,4.959,4.959,4.959,4.959,4.959,4.959,4.959,4.959,4.959,4.959,4.959,4.959,4.959,4.959,4.959,4.959,4.959,4.959,4.959,4.959,4.959,4.959,4.959,4.959,4.959,4.959,4.959,4.959,4.959,4.959,4.959,4.959,5.0014,5.133,5.1803,5.2455,5.373,5.4208,5.4386,5.4386,5.4386,5.4859,5.6137,5.6251,5.6792,5.8081,5.844,5.8634,5.8634,5.8936,5.9099,5.9099,5.9099,5.9099,5.9099,5.9099,5.9099,5.9099,5.9099,5.9099,5.9099,5.9099,5.9099,2.432,2.1545,2.0569,2.0569,2.0139,1.9828,2.0277,0.0,2.0516,2.0946,0.0,2.2004,2.1944,0.0,0.0,2.3131,2.6991,2.9924,2.9535,3.3215,3.6896,3.9439,4.5873,4.8761,4.5424,4.4161,4.42,4.5762,4.3065,4.2536,4.5321,4.5497,4.5748,4.6301,4.6853,4.738,4.7908,4.8485,4.9063,4.959,4.959,4.959,4.959,4.959,4.959,4.959,4.959,4.959,4.959,4.959,4.959,4.959,4.959,4.959,4.959,4.959,4.959,4.959,4.959,4.959,4.959,4.959,4.959,4.959,4.959,4.959,4.959,4.959,4.959,4.959,4.959,4.959,4.959,4.959,4.959,4.959,4.959,4.959,4.959,4.959,4.959,4.9654,4.9822,5.1079,5.2024,5.2236,5.3489,5.4386,5.4386,5.4386,5.4446,5.4623,5.4623,5.4741,5.4918,5.6223,5.6962,5.6962,5.8331,5.9099,5.9099,5.9099,5.9099,5.9099,5.9099,5.9099,5.9099,5.9099,5.9099,5.9099,5.9099,5.9099,2.5944,2.5106,2.5136,2.2054,2.2503,2.3002,2.0307,1.9708,1.9708,1.9708,0.0,0.0,0.0,0.0,0.0,0.0,2.4986,2.7225,2.4926,2.9983,3.4741,3.7015,4.0217,0.0,4.3082,4.5699,4.68,4.5473,4.521,4.5053,4.5003,4.5296,4.5748,4.6301,4.7129,4.7682,4.7908,4.8812,4.9364,4.959,4.959,4.959,4.959,4.959,4.959,4.959,4.959,4.959,4.959,4.959,4.959,4.959,4.959,4.959,4.959,4.959,4.959,4.959,4.959,4.959,4.959,4.959,4.959,4.959,4.959,4.959,4.959,4.959,4.959,4.959,4.959,4.959,4.959,4.959,4.959,4.959,4.959,4.959,4.969,5.0017,5.0067,5.0167,5.0519,5.1355,5.2156,5.25,5.3085,5.3651,5.3974,5.318,5.3333,5.5254,5.5436,5.6076,5.7569,5.8305,5.8493,5.811,5.8743,5.9099,5.9099,5.9099,5.9099,5.9099,5.9099,5.9099,5.9099,5.9099,5.9099,5.9099,5.9099,5.9099,2.8906,2.8637,2.8637,2.3729,2.4029,2.4597,2.1055,2.0127,1.9959,1.9959,1.9828,0.0,0.0,0.0,2.0318,1.9941,0.0,2.4051,2.0797,2.5734,3.0462,3.2497,3.3689,0.0,0.0,4.4496,4.6178,4.4017,4.564,4.618,4.4928,4.5121,4.5573,4.6276,4.7355,4.7908,4.7908,4.9038,4.959,4.959,4.959,4.959,4.959,4.959,4.959,4.959,4.959,4.959,4.959,4.959,4.959,4.959,4.959,4.959,4.959,4.959,4.959,4.959,4.959,4.959,4.959,4.959,4.959,4.959,4.959,4.959,4.959,4.959,4.959,4.959,4.959,4.959,4.959,4.959,4.959,4.959,4.959,4.9715,4.9941,5.0343,5.0544,5.0795,5.1197,5.1923,5.2596,5.3107,5.3449,5.3833,5.4323,5.3345,5.3474,5.5874,5.6548,5.7582,5.949,6.0104,6.0086,5.9428,5.9368,5.9279,5.9129,5.9099,5.9099,5.9099,5.9099,5.9099,5.9099,5.9099,5.9099,5.9099,5.9099,5.9099,3.4053,3.139,2.9505,2.5501,2.367,2.2613,2.1814,2.1126,2.0658,2.0658,2.0139,1.9708,1.9708,1.9738,1.9301,1.7997,1.8476,0.0,0.0,1.8745,2.0876,2.2912,2.652,3.0677,0.0,3.7044,3.8823,0.0,4.1876,4.3325,4.5347,4.4945,4.5171,4.6276,4.7355,4.7908,4.7908,4.9038,4.959,4.959,4.959,4.959,4.959,4.959,4.959,4.959,4.959,4.959,4.959,4.959,4.959,4.959,4.959,4.959,4.959,4.959,4.959,4.959,4.959,4.959,4.959,4.959,4.959,4.959,4.959,4.959,4.959,4.959,4.959,4.959,4.959,4.959,4.959,4.959,4.959,4.959,4.959,5.0017,5.0393,5.0419,5.087,5.1247,5.1272,5.2529,5.3587,5.3614,5.4889,5.5881,5.5909,5.5909,5.5909,5.597,5.7454,5.8462,5.8579,6.0082,6.0775,6.0086,6.0057,5.9757,5.9129,5.9099,5.9099,5.9099,5.9099,5.9099,5.9099,5.9099,5.9099,5.9099,5.9099,5.9099,3.7823,3.7998,3.749,3.1361,3.0522,2.9834,2.4754,2.2802,2.2024,2.2024,2.1126,2.0378,2.0378,1.9989,1.939,1.8506,1.8553,1.8237,0.0,1.7294,1.803,1.8893,2.4303,2.8742,3.0743,0.0,0.0,0.0,4.3179,0.0,4.492,4.5447,4.6075,4.6828,4.8259,4.8837,4.8485,4.959,4.9967,4.959,4.959,4.959,4.959,4.959,4.959,4.959,4.959,4.959,4.959,4.959,4.959,4.959,4.959,4.959,4.959,4.959,4.959,4.959,4.959,4.959,4.959,4.959,4.959,4.959,4.959,4.959,4.959,4.959,4.959,4.959,4.959,4.959,4.959,4.959,4.959,4.969,5.0067,5.0293,5.0645,5.1398,5.1699,5.2304,5.3786,5.4472,5.4642,5.4337,5.4709,5.5545,5.7126,5.6296,5.6459,5.873,5.9486,6.0118,6.0847,6.1005,6.1014,6.0775,6.0775,6.0475,5.9787,5.9757,5.9548,5.9129,5.9099,5.9099,5.9099,5.9099,5.9099,5.9099,5.9099,5.9099,4.1594,4.2363,4.2183,3.6118,3.54,3.4651,2.876,2.6422,2.5465,2.5465,2.349,2.2452,2.4837,2.2413,2.0288,2.1036,1.9779,1.8326,0.0,1.683,1.6806,1.7061,2.1282,2.5005,2.7033,0.0,0.0,0.0,0.0,0.0,0.0,4.5196,4.605,4.6828,4.8435,4.9213,4.9063,5.0167,5.0444,4.9891,4.9891,4.9791,4.959,4.959,4.959,4.959,4.959,4.959,4.959,4.959,4.959,4.959,4.959,4.959,4.959,4.959,4.959,4.959,4.959,4.959,4.959,4.959,4.959,4.959,4.959,4.959,4.959,4.959,4.959,4.959,4.959,4.959,4.959,4.959,4.959,4.9741,5.0293,5.1068,5.1907,5.2787,5.3627,5.4656,5.6061,5.631,5.6202,5.5891,5.5773,5.6293,5.7823,5.7021,5.7149,5.9352,6.0176,6.1024,6.2336,6.2061,6.1702,6.1493,6.1463,6.1164,6.0475,6.0446,6.0356,6.0176,5.9697,5.9578,5.9817,5.9338,5.9099,5.9099,5.9099,5.9099]}]]